ECMWFNIL_sfc_thetae_000.txt.gz
Theta_e
315 315 314 314 315 315 312 311 310 309 309 309 308 309 308 309 311 309 309 309 309 307 307 308 309 310 310 309 309 310 310 309 308 306 306 306 303 303 304 302 300 300
315 315 315 314 315 315 313 313 312 310 309 309 310 310 309 311 312 311 309 309 309 307 308 308 308 308 308 308 308 307 306 306 307 311 306 304 303 303 303 302 302 299
315 314 313 312 314 314 313 314 313 311 310 310 311 311 311 313 312 309 309 309 308 308 308 308 308 307 307 307 308 308 306 305 306 306 307 304 304 304 304 303 302 301
315 315 313 313 313 314 313 313 312 311 310 311 311 312 313 314 311 309 310 315 309 308 307 307 309 308 307 307 307 306 306 306 308 307 307 306 306 305 305 305 304 303
315 315 314 313 314 314 312 313 312 311 311 312 311 312 314 313 310 310 311 309 309 308 308 307 307 307 307 307 306 306 306 306 305 305 305 304 305 306 305 305 302 302
317 317 316 315 314 314 313 313 313 312 312 311 311 313 313 313 311 311 311 309 309 310 309 308 308 308 306 306 305 306 306 306 305 304 305 304 304 305 307 303 303 301
316 316 315 315 315 314 314 314 314 314 314 313 312 312 313 312 311 311 311 310 310 311 309 308 308 308 306 306 306 304 305 304 304 305 305 303 304 303 305 303 304 303
316 318 318 318 315 315 314 314 313 315 315 314 312 312 314 312 312 312 312 311 310 310 309 309 308 309 307 306 307 304 305 306 305 305 304 303 303 302 302 304 302 302
318 317 317 317 317 315 314 314 314 316 316 314 312 312 314 313 312 312 312 311 311 310 309 309 309 309 308 307 307 306 305 306 306 304 304 303 302 301 302 303 301 302
317 317 317 317 316 315 314 317 317 316 317 314 313 313 313 312 312 312 312 311 311 310 309 309 309 309 308 308 307 307 305 306 306 303 303 303 304 302 301 302 301 299
315 316 315 314 314 314 315 316 316 316 317 316 314 314 313 313 313 312 312 312 312 312 311 310 310 310 309 309 308 308 307 306 306 304 303 304 304 303 304 302 302 300
314 314 314 314 315 316 315 315 316 316 316 316 314 313 313 314 313 312 313 312 311 312 312 313 313 312 312 310 309 309 308 307 307 305 304 304 304 303 304 303 302 301
313 313 312 315 317 317 317 317 316 315 315 314 313 312 313 313 312 313 313 313 313 313 313 314 314 315 314 312 311 310 309 308 307 306 305 304 304 304 303 303 302 302
312 313 313 315 316 317 318 318 317 316 316 314 314 312 313 313 313 313 313 312 313 312 312 311 311 313 314 314 314 313 311 309 308 307 306 304 304 304 303 304 303 303
311 312 312 314 316 316 314 314 315 315 316 315 313 312 314 314 314 314 313 313 312 311 310 310 310 312 313 313 313 312 312 310 310 308 307 305 304 304 303 302 302 302
310 312 312 312 314 315 317 316 315 316 317 315 315 314 314 313 312 313 312 312 311 309 309 310 311 313 312 308 308 312 311 311 310 309 308 306 306 304 303 302 302 301
308 311 311 311 311 312 313 314 314 314 312 312 312 312 314 313 313 312 311 310 309 308 309 310 312 314 307 303 300 301 309 310 309 308 308 307 306 305 303 302 300 301
308 307 308 309 309 308 309 310 309 309 309 310 311 312 313 312 310 310 308 308 309 308 307 308 309 303 294 296 297 297 299 307 309 309 308 307 307 305 303 301 300 300
302 304 303 303 304 304 304 305 304 305 306 306 307 307 307 310 309 308 308 307 308 307 307 305 305 293 293 295 296 296 296 299 307 309 307 307 305 305 302 301 300 300
301 301 301 301 301 301 301 301 302 302 303 304 304 304 305 305 305 305 305 306 306 307 301 297 296 295 292 295 296 297 296 297 306 307 307 306 306 306 303 300 301 300
300 300 300 299 299 299 299 299 299 299 299 299 301 301 301 302 303 302 303 302 300 298 295 294 294 293 293 293 293 295 296 299 305 305 304 305 304 303 302 301 302 302
299 298 298 297 298 298 298 297 297 298 298 299 297 297 299 300 300 301 300 298 297 294 291 290 291 293 292 293 294 294 296 299 299 300 300 299 299 300 301 300 299 299
299 298 298 297 297 297 296 297 298 299 297 297 296 294 296 297 298 298 299 299 296 292 290 289 290 292 292 293 293 294 295 297 297 298 298 298 299 299 299 299 299 299
298 298 298 297 296 296 296 296 296 297 297 297 298 297 296 296 297 298 298 298 296 292 292 290 289 292 292 293 293 293 295 295 295 296 295 296 295 296 298 298 297 304
297 298 297 297 297 296 296 295 296 297 297 296 296 295 296 295 297 296 296 294 294 293 297 291 289 292 292 292 293 294 295 294 294 293 292 291 293 294 294 292 292 294
297 298 297 297 297 296 296 297 296 296 297 296 293 294 294 293 295 295 294 293 293 292 292 289 290 289 292 292 293 293 294 294 293 292 290 289 291 293 292 290 291 291

ECMWFNIL_sfc_thetae_003.txt.gz
Theta_e
316 315 316 314 312 313 311 308 307 306 306 305 305 306 306 306 307 305 306 307 307 306 306 306 307 307 309 307 308 307 306 305 304 302 303 303 301 300 300 298 298 299
316 317 317 315 314 313 311 309 308 307 307 306 306 306 305 308 306 307 307 307 307 305 306 306 307 307 307 307 306 306 305 305 305 307 303 302 301 301 300 299 299 298
315 316 315 314 313 312 311 309 309 307 307 306 306 306 308 308 307 306 307 307 306 306 306 306 306 306 306 306 305 306 305 304 304 302 303 301 301 301 300 300 299 299
316 316 315 315 314 313 312 310 308 307 306 307 307 307 308 310 307 307 307 312 306 306 306 306 306 306 306 306 305 304 304 304 304 304 303 302 303 302 301 301 302 301
318 317 315 314 314 314 312 311 309 308 308 308 307 307 309 309 306 306 307 307 306 305 306 306 306 305 305 305 304 304 304 305 305 305 303 303 302 302 302 303 301 300
318 318 316 314 314 314 312 312 311 309 308 307 309 310 308 309 306 306 307 305 306 306 306 306 305 305 305 305 304 305 306 305 305 304 304 303 303 302 304 301 301 301
315 316 316 314 313 314 313 312 312 311 310 310 309 309 309 309 307 306 306 306 306 307 306 306 305 305 305 304 305 304 305 305 304 304 304 302 304 302 303 301 301 300
315 316 316 315 313 313 313 313 312 312 311 310 309 310 311 310 308 307 307 307 306 306 306 306 307 306 305 305 305 305 304 305 305 304 303 302 303 302 302 303 301 300
315 316 315 315 313 312 312 312 312 312 312 311 310 309 311 311 309 309 309 307 307 307 306 306 306 306 304 305 304 304 304 303 305 304 303 302 302 302 302 302 300 301
314 315 316 315 314 313 313 313 315 314 314 312 310 309 310 310 309 309 308 307 307 307 307 307 307 307 306 305 306 305 305 305 303 303 303 303 303 302 302 302 301 300
314 314 315 315 314 314 313 313 314 314 315 314 312 312 313 313 311 310 309 308 309 308 308 307 307 307 307 306 305 305 305 305 304 303 303 303 303 303 304 302 302 301
313 314 314 315 314 313 313 314 315 314 313 312 313 313 313 313 312 312 312 311 310 309 309 309 308 308 308 307 306 306 307 305 305 304 303 303 303 303 303 302 302 301
313 313 314 313 313 313 314 315 315 315 315 313 314 314 314 314 313 313 313 312 312 311 310 310 310 309 308 306 307 306 306 305 304 304 304 303 303 304 303 302 302 301
311 312 312 313 314 314 314 314 314 314 314 313 314 315 314 314 315 314 314 315 315 313 313 312 311 310 308 308 308 307 306 305 305 304 304 303 303 302 302 303 302 302
312 313 314 314 314 314 314 314 314 314 314 313 313 314 315 315 315 316 315 315 314 314 313 311 310 310 311 310 309 308 307 307 307 307 306 305 304 303 302 302 302 301
314 314 315 315 314 314 314 315 315 315 314 314 314 315 314 315 315 315 315 314 314 312 310 309 309 309 309 306 305 307 307 308 308 306 306 305 305 304 303 302 302 302
312 313 314 314 314 314 313 314 314 314 313 313 312 312 313 313 314 313 312 312 311 309 308 309 308 307 295 299 301 300 303 305 307 307 306 306 305 304 303 303 302 301
310 310 311 312 312 311 312 312 312 313 313 313 311 311 312 312 311 311 311 310 310 308 306 305 305 296 293 296 296 297 300 305 306 307 307 306 306 305 304 303 302 299
306 309 308 308 308 309 312 311 311 310 311 311 311 311 311 310 311 310 310 309 309 307 306 301 299 296 292 293 294 294 295 298 304 307 308 307 306 305 304 302 300 300
304 305 305 305 305 305 308 309 308 309 308 310 310 310 310 310 310 309 309 308 308 304 298 294 294 295 293 295 295 295 295 296 300 302 303 304 304 304 302 301 301 299
300 300 302 301 300 300 301 303 304 300 302 302 304 306 307 308 307 306 306 305 302 297 294 292 294 293 293 293 293 293 295 296 296 298 297 296 297 299 299 299 298 299
298 297 297 296 297 297 298 298 297 299 299 298 298 297 297 298 298 300 300 297 295 293 293 292 292 293 293 293 293 293 295 297 296 296 295 296 296 297 297 298 298 299
297 297 296 296 296 296 296 297 296 294 294 294 295 294 296 296 296 295 298 296 293 291 292 291 292 292 292 292 292 293 294 295 294 295 295 295 295 296 296 296 296 297
296 296 297 295 295 295 296 294 294 294 294 294 296 295 296 295 294 296 294 294 294 291 292 293 291 292 293 292 293 293 295 294 293 294 292 293 292 291 291 292 297 303
296 296 296 296 296 296 295 295 295 295 294 293 295 295 294 293 296 296 293 291 291 291 297 291 289 292 292 292 292 293 294 292 292 291 291 289 290 290 289 289 290 294
296 298 298 297 297 296 296 297 296 295 293 294 292 294 294 294 293 294 292 290 289 288 289 288 289 289 290 292 292 292 293 293 291 291 290 288 290 291 289 288 289 289

ECMWFNIL_sfc_thetae_006.txt.gz
Theta_e
315 313 312 312 312 312 309 307 306 306 305 305 306 306 306 306 308 306 306 306 306 306 305 306 306 307 308 307 307 305 305 304 303 302 302 303 301 301 301 301 302 302
315 316 315 314 313 313 311 309 307 306 305 305 305 306 305 307 306 306 306 307 308 305 305 306 306 306 306 306 305 305 304 304 304 306 302 301 301 301 301 302 302 302
315 316 315 315 314 313 311 309 307 306 306 305 305 305 306 308 306 306 306 306 306 305 306 306 306 307 306 305 305 306 305 304 304 304 303 301 302 302 301 302 302 303
317 317 316 315 314 313 312 309 307 306 306 306 306 307 308 310 307 306 306 311 306 306 306 307 307 306 306 305 305 305 304 305 304 304 304 303 303 302 302 303 304 304
316 317 317 316 315 315 312 310 308 306 306 307 306 308 310 309 306 306 307 306 306 306 306 307 306 306 306 305 305 304 305 304 304 304 304 303 304 304 304 304 303 303
317 317 317 317 315 313 312 311 309 308 307 306 307 309 308 308 306 306 307 306 306 306 306 306 306 306 306 305 304 305 306 305 305 304 303 304 304 304 304 303 303 303
316 316 317 316 314 313 313 312 310 309 308 309 309 308 308 308 307 306 306 306 305 307 306 306 305 305 306 305 305 305 306 306 305 304 304 304 305 304 303 303 303 303
316 316 316 315 313 313 313 312 311 310 310 310 310 309 309 309 308 307 307 306 306 306 306 306 305 305 305 305 305 305 306 307 305 304 304 304 304 304 303 303 303 302
316 316 315 314 313 312 312 312 311 311 311 310 311 310 310 310 308 307 308 307 307 307 307 307 307 307 306 305 305 305 305 306 306 305 304 304 304 304 303 303 302 303
314 315 314 314 312 311 311 311 312 311 312 311 310 311 310 309 308 308 308 307 307 307 306 307 307 307 306 306 306 305 305 305 305 305 304 304 304 304 303 303 303 303
312 313 313 313 313 312 312 312 312 312 312 310 310 311 311 311 310 309 308 308 309 309 309 309 309 309 309 308 306 306 306 306 305 305 305 305 305 304 305 304 304 303
312 312 313 313 313 313 313 314 314 313 312 312 312 312 312 312 311 312 311 311 310 310 311 311 311 311 310 309 308 307 306 306 306 306 305 305 305 305 304 305 305 304
312 312 312 312 312 312 312 313 314 313 312 312 313 313 313 313 313 312 312 312 313 314 314 313 313 311 311 309 309 307 307 307 306 306 306 305 305 305 305 304 304 304
310 311 312 313 313 312 312 313 313 313 312 313 313 314 314 314 314 313 313 313 314 314 314 314 313 312 311 310 309 309 308 307 306 306 306 306 305 305 305 305 304 304
310 311 313 314 314 313 313 313 313 312 312 312 313 313 313 314 315 315 314 314 314 314 314 313 313 312 312 312 312 311 309 308 307 307 307 306 306 305 305 304 304 304
311 312 312 313 313 312 312 313 313 313 313 313 313 313 313 313 313 314 314 314 313 313 313 313 311 310 308 304 306 311 309 310 309 308 308 307 307 307 306 305 305 305
311 312 312 312 313 313 313 313 313 313 313 313 312 311 311 312 313 313 313 313 312 312 312 311 310 310 300 298 298 300 307 308 308 309 308 308 308 308 307 308 306 305
308 309 309 311 311 311 311 311 312 312 312 312 311 311 311 312 312 312 313 312 312 311 310 308 308 303 295 294 296 296 299 307 307 308 308 308 307 307 307 307 307 306
306 306 306 308 310 311 310 306 310 310 310 310 310 311 311 310 311 311 311 311 310 309 308 307 306 297 293 293 294 294 294 298 303 305 306 306 307 307 306 306 305 305
304 304 306 309 311 310 309 308 309 310 309 310 309 309 310 309 309 309 309 308 309 308 307 302 301 297 294 295 296 295 295 295 301 302 303 303 304 304 305 305 305 304
301 302 304 305 304 305 307 307 306 304 307 307 308 308 308 308 307 307 306 306 306 304 302 300 299 295 294 294 294 293 293 295 298 299 298 298 298 299 300 301 301 301
297 298 301 301 300 300 304 305 303 304 305 302 303 303 304 305 304 305 304 303 301 300 299 298 297 293 292 293 292 293 294 298 297 297 297 296 297 297 297 298 299 299
295 296 296 297 297 299 301 301 300 300 299 299 301 301 302 302 303 302 302 301 298 297 299 297 294 293 292 293 292 292 295 296 296 296 295 294 293 293 295 297 300 299
297 296 296 296 295 297 297 296 296 296 297 299 300 299 300 299 297 297 295 297 298 296 296 295 293 293 292 292 292 293 295 296 295 295 293 292 292 292 292 294 298 299
295 297 297 296 297 297 297 296 297 297 296 296 297 298 297 296 298 297 293 292 292 294 298 293 292 293 292 291 292 292 294 294 294 294 293 291 291 291 291 291 292 294
296 297 297 298 298 297 297 297 297 296 296 297 296 298 297 296 296 296 293 290 291 292 293 292 292 292 293 291 292 292 292 294 294 295 293 291 291 291 291 290 291 291

ECMWFNIL_sfc_thetae_009.txt.gz
Theta_e
323 323 322 322 322 322 321 320 319 321 322 324 324 323 322 321 320 321 321 322 322 321 320 320 320 320 320 320 321 319 320 320 318 318 319 319 318 318 317 316 319 316
321 322 322 322 320 319 318 318 319 319 319 322 322 321 320 320 319 320 321 320 319 319 318 319 319 319 319 319 320 319 317 318 316 316 318 318 317 317 317 318 317 317
323 323 323 322 322 321 320 318 316 317 319 320 321 321 320 320 320 320 320 320 320 318 318 318 319 318 317 318 319 319 318 317 315 316 316 315 316 315 316 315 315 317
323 324 323 320 321 322 320 318 315 314 317 319 321 321 321 320 320 320 320 318 319 319 319 319 319 318 317 317 318 316 316 314 314 315 313 314 315 314 315 315 315 314
321 321 323 322 323 323 318 316 316 315 316 320 320 320 320 320 320 320 320 319 319 319 319 319 318 318 317 317 318 316 316 313 314 315 313 313 314 315 315 316 315 314
319 320 321 320 321 321 319 317 317 315 316 317 320 320 322 321 320 319 320 319 319 318 319 319 318 318 317 316 317 317 316 314 315 315 313 312 312 314 312 315 314 313
323 322 321 321 320 320 319 319 318 316 316 318 317 321 321 321 319 319 319 319 318 318 318 319 318 318 318 317 317 316 317 316 315 314 312 313 314 313 313 314 311 311
324 324 323 323 322 321 320 319 319 318 317 316 316 318 320 319 318 320 320 318 317 317 318 317 317 317 317 317 316 317 317 317 317 314 313 313 314 312 313 313 315 311
325 324 323 325 323 321 320 319 320 320 318 318 317 317 318 320 319 318 317 317 316 316 316 316 316 316 317 316 316 317 317 318 318 316 315 314 314 312 310 312 313 312
324 324 324 324 323 323 321 321 321 320 319 318 317 317 316 318 319 318 317 316 316 315 315 315 316 317 317 316 315 315 315 316 318 317 317 316 314 313 311 312 312 312
323 323 323 323 322 323 323 323 322 322 321 319 319 318 318 318 318 318 317 316 317 316 316 316 317 318 317 316 317 317 316 316 315 316 318 317 317 316 314 314 314 313
320 322 322 322 322 322 322 322 322 322 321 321 318 318 319 319 318 318 317 317 318 318 318 319 319 320 319 319 319 319 319 318 317 316 316 316 317 316 315 316 316 314
318 319 321 322 322 322 323 322 322 322 322 320 320 320 319 319 319 319 320 319 319 320 320 320 320 320 320 321 320 320 320 319 319 318 317 317 317 316 316 316 316 316
319 320 320 321 322 322 322 322 322 322 321 321 320 320 320 319 319 320 322 322 322 321 321 321 317 316 317 318 318 320 321 321 321 320 318 318 319 317 317 316 316 316
320 320 321 321 320 321 321 321 321 321 321 321 321 321 321 321 321 321 321 320 320 321 319 316 315 315 316 316 316 317 319 319 320 319 318 318 319 320 319 318 317 317
320 321 320 321 321 322 321 321 321 321 321 321 319 319 321 322 320 320 320 319 318 318 318 316 315 315 311 307 306 315 318 317 318 319 319 319 319 319 320 320 319 319
320 320 321 320 321 321 321 319 318 318 318 319 319 319 319 320 321 319 319 318 316 315 314 314 316 314 305 301 300 300 309 317 318 320 321 320 320 320 320 321 322 320
319 319 319 319 320 320 319 319 319 318 318 318 317 317 317 318 319 319 319 319 318 318 318 318 319 306 300 299 299 298 299 312 317 318 319 320 320 319 319 319 319 320
318 318 318 318 318 319 319 319 318 317 318 318 318 318 319 318 318 319 320 320 320 318 317 319 319 300 299 298 297 294 293 299 312 314 315 317 318 318 317 318 318 318
316 318 318 318 318 319 319 318 318 318 319 319 319 319 318 318 319 320 320 320 319 319 319 319 319 300 296 295 294 293 293 296 312 314 315 314 313 314 316 316 316 315
313 316 317 317 318 318 318 318 319 319 318 318 318 317 318 318 318 319 319 319 319 319 318 318 318 296 294 293 294 295 293 299 315 312 311 311 310 310 310 311 312 313
307 311 315 316 315 316 316 317 317 317 317 318 318 318 318 318 319 319 318 318 318 319 318 317 314 293 294 294 294 294 293 311 313 313 311 310 309 308 308 309 309 310
305 306 308 312 313 314 315 316 316 316 317 318 317 317 316 316 318 317 318 318 317 318 318 317 310 297 293 293 293 292 297 312 310 309 308 307 306 306 307 308 308 308
306 306 307 308 309 311 313 315 317 317 317 315 315 314 314 315 316 316 317 317 316 317 317 314 310 298 292 292 292 291 302 312 310 309 307 306 304 304 305 305 301 298
305 306 307 307 307 308 310 312 313 313 314 313 314 314 314 312 311 312 312 312 312 313 307 311 309 300 291 292 292 292 304 313 310 309 307 306 304 303 303 303 301 297
305 305 308 308 309 308 306 307 309 310 310 310 311 312 312 312 310 310 308 308 308 308 308 310 309 307 300 291 293 293 298 311 310 308 306 305 305 303 302 301 301 299

ECMWFNIL_sfc_thetae_012.txt.gz
Theta_e
330 330 327 326 324 325 324 323 322 323 324 324 323 323 322 325 326 327 328 327 327 326 327 328 328 327 327 327 327 325 325 327 326 325 323 323 323 323 321 319 320 316
331 331 328 327 325 326 326 326 324 322 324 325 324 323 325 325 327 327 325 324 324 324 325 326 326 325 324 323 324 322 321 323 322 321 322 321 320 320 321 320 319 317
329 328 327 325 324 325 326 327 326 325 322 323 324 324 324 325 325 325 325 324 322 322 323 323 323 322 321 320 320 320 320 319 320 320 319 318 318 318 319 318 319 319
328 328 326 327 326 326 327 325 324 323 327 322 321 323 323 323 323 323 322 321 319 319 321 321 321 319 318 318 319 317 318 317 316 317 316 317 316 316 317 318 319 318
327 326 326 326 327 327 326 325 323 320 321 323 323 322 322 323 322 320 320 319 318 317 318 319 319 318 318 317 317 315 315 314 316 316 315 316 317 317 317 319 319 318
327 324 323 323 325 326 326 325 322 320 320 322 322 321 321 321 320 319 319 318 317 317 315 315 315 316 317 317 317 316 315 314 316 316 314 314 315 317 315 318 318 318
324 323 323 322 325 328 325 325 324 322 321 321 321 322 322 320 319 319 318 319 318 317 316 316 316 317 317 317 316 316 316 316 316 315 314 314 315 316 316 317 316 316
323 324 323 323 324 326 326 326 325 324 324 324 323 323 323 318 318 320 320 319 318 318 319 318 317 317 319 319 316 316 317 317 317 315 314 314 315 313 315 316 317 314
324 325 324 324 323 325 327 326 326 327 325 324 322 322 322 322 319 320 320 319 319 319 319 319 318 317 319 320 320 319 317 318 318 317 317 316 315 314 312 314 315 315
327 326 326 325 324 324 326 328 327 327 325 325 323 323 320 323 323 319 319 319 318 318 319 319 319 319 319 318 317 318 319 319 319 319 318 318 317 316 314 315 315 315
327 326 326 326 325 324 327 328 328 327 326 325 325 324 322 322 322 321 320 319 319 317 316 317 318 319 319 319 319 319 318 319 319 319 320 319 319 319 317 318 317 317
327 326 325 326 326 326 329 329 328 327 327 326 325 324 324 323 321 321 319 319 318 317 317 317 319 319 319 320 321 322 323 323 322 321 320 319 320 320 319 319 319 318
326 325 325 326 327 327 327 327 326 327 326 326 325 325 325 324 323 321 321 320 319 319 319 319 320 321 323 324 324 325 325 324 325 324 322 322 321 320 320 320 320 320
326 327 326 325 326 326 326 327 326 326 326 326 326 325 325 324 324 322 322 321 322 321 322 324 324 323 322 322 323 324 324 324 324 324 325 325 324 323 322 321 321 321
327 327 326 326 325 326 326 326 326 327 326 325 325 325 326 325 325 324 323 322 323 324 324 323 322 322 321 322 322 322 322 322 323 323 323 323 324 324 324 323 323 322
326 327 327 326 325 325 325 326 324 325 325 324 324 323 325 325 325 324 323 324 323 323 323 323 323 322 315 306 310 320 321 319 321 322 322 323 323 322 321 322 322 323
325 326 327 327 326 326 324 324 324 326 325 324 323 323 324 324 324 323 323 322 322 323 323 322 320 320 302 300 301 303 316 321 322 322 321 321 321 318 321 322 324 324
323 324 324 325 326 325 325 325 325 325 325 324 324 324 323 325 324 323 322 322 322 321 323 324 322 309 299 300 299 299 305 320 322 320 319 319 319 319 318 318 319 321
322 322 322 322 323 323 324 324 323 324 324 324 325 325 325 323 322 322 321 321 320 319 319 321 322 304 299 298 298 297 297 309 320 320 318 317 317 319 319 319 319 320
319 320 321 322 323 323 322 322 322 322 323 324 325 325 324 322 322 321 321 320 319 319 320 322 322 305 299 298 298 297 295 302 320 318 319 319 320 319 320 320 319 319
313 317 320 321 322 322 322 321 321 322 322 323 323 323 322 321 321 320 320 320 320 321 321 321 323 300 297 297 298 297 293 298 318 320 319 319 319 319 319 319 318 319
311 312 314 317 320 321 321 320 320 321 322 324 323 322 322 322 321 321 320 320 321 323 322 321 327 296 297 297 296 294 293 314 319 318 316 316 317 318 317 318 318 318
310 310 311 313 314 318 319 321 321 321 322 324 323 322 321 320 321 321 322 322 322 322 322 321 323 302 296 295 294 293 302 316 317 315 315 315 315 316 315 315 314 314
309 309 310 311 312 313 316 319 321 323 323 323 322 321 320 321 322 321 322 322 322 320 321 321 318 301 293 295 294 297 306 316 315 314 314 314 314 314 314 311 305 296
308 309 309 310 310 312 315 315 318 322 323 324 322 322 321 321 321 321 321 321 321 320 309 316 315 301 293 294 295 297 309 316 314 313 312 312 312 311 311 310 306 301
308 308 309 309 310 311 313 315 316 318 320 322 323 322 320 320 320 320 320 319 320 319 319 316 310 304 300 293 296 296 298 317 314 312 311 311 311 309 309 308 306 303

ECMWFNIL_sfc_thetae_015.txt.gz
Theta_e
333 330 326 325 324 324 325 322 323 325 326 326 325 325 324 327 327 327 327 328 328 329 329 329 329 328 327 328 328 326 326 327 325 325 325 325 324 323 321 320 320 316
333 329 325 326 324 325 325 325 325 326 326 326 325 323 325 326 326 325 323 323 324 326 327 327 326 325 325 325 326 325 323 323 321 321 322 321 321 321 321 320 318 318
332 328 326 325 325 326 326 326 326 326 326 325 325 324 324 326 325 324 323 323 323 323 324 324 323 322 321 321 322 321 321 320 320 321 321 318 319 319 320 321 320 320
331 328 325 324 324 325 326 325 325 324 325 323 323 322 322 323 324 323 321 320 320 321 321 321 320 319 319 320 321 318 319 318 319 319 318 318 318 318 320 321 320 319
330 326 326 326 325 325 324 323 324 323 322 322 322 321 323 323 320 318 319 318 319 319 320 319 319 319 319 319 318 317 316 315 318 318 317 317 319 320 321 322 321 320
329 325 325 325 324 324 322 320 320 324 326 321 321 320 324 323 318 317 317 317 317 317 316 317 317 318 318 317 317 316 316 316 317 317 315 316 316 319 318 321 320 319
328 326 325 324 325 325 324 321 320 320 322 324 321 321 321 319 318 317 316 317 315 315 315 317 317 318 318 318 317 317 317 317 316 315 315 316 318 318 317 319 318 318
329 326 324 324 326 326 324 321 320 320 321 320 321 320 319 316 318 319 318 317 316 315 315 316 317 317 318 318 317 317 318 319 318 316 315 315 317 316 318 318 318 316
328 325 323 323 327 326 325 324 323 322 323 322 321 321 320 318 318 319 318 318 318 318 316 316 317 319 320 318 317 317 316 318 318 317 316 316 315 315 314 316 316 316
328 327 324 323 323 324 325 325 326 326 325 323 321 320 320 320 320 318 318 319 318 318 318 317 317 319 320 319 318 317 317 318 318 319 317 317 316 314 313 314 316 316
328 327 327 326 325 324 324 324 324 324 323 320 321 320 319 322 319 318 318 319 320 318 318 318 318 317 318 319 321 322 321 320 319 319 320 319 319 318 318 317 317 318
328 328 327 326 325 325 325 325 325 324 322 323 322 322 320 320 321 319 316 316 317 316 317 318 318 317 318 318 319 320 321 321 321 321 321 321 321 321 319 320 320 319
327 327 328 326 326 326 327 327 325 324 322 322 322 322 322 321 321 319 319 318 316 316 316 317 318 318 318 318 319 320 321 322 322 322 321 322 322 321 322 322 322 321
327 327 326 327 328 328 327 327 323 323 322 323 323 322 323 321 321 320 320 319 319 317 318 318 319 318 320 320 321 322 325 325 325 324 324 322 324 323 323 322 323 323
329 329 329 329 327 327 327 327 326 326 325 323 323 325 325 323 324 323 321 319 319 319 318 319 320 321 322 322 322 324 326 326 326 324 325 325 324 324 326 324 325 325
328 328 328 328 328 327 326 327 327 327 326 325 324 324 324 324 324 325 322 321 320 320 320 322 323 324 321 312 315 323 325 324 325 325 325 325 325 324 323 323 322 324
327 327 328 327 327 326 325 325 326 327 326 324 322 324 324 324 324 324 323 323 321 322 323 325 325 325 302 301 303 309 321 324 322 321 321 320 320 321 320 321 321 322
325 326 326 326 326 325 325 325 326 326 326 326 325 324 324 324 324 323 324 324 323 324 325 325 326 307 298 299 301 303 310 322 322 321 319 319 319 317 318 317 317 319
321 322 322 324 325 325 325 326 326 325 324 324 325 325 324 324 323 323 323 325 325 324 324 324 327 300 299 297 298 299 303 313 321 322 321 319 318 318 317 317 318 319
317 320 321 322 322 324 325 325 325 324 326 326 326 325 325 324 323 323 324 323 323 324 323 325 325 301 298 297 297 297 299 305 320 320 321 320 319 318 320 319 318 315
313 314 317 319 321 322 323 323 323 325 325 325 324 324 324 324 323 322 323 323 323 323 322 322 324 300 297 297 296 296 297 301 319 319 319 318 318 320 318 317 319 319
312 312 314 315 316 318 320 320 321 322 323 325 324 324 325 325 324 323 321 321 322 322 321 320 325 297 297 296 296 296 295 311 317 318 317 318 319 318 318 318 318 319
311 311 312 313 314 314 315 317 319 321 324 324 323 324 323 324 322 322 323 322 320 320 320 321 326 300 297 297 296 295 299 315 316 316 317 317 316 317 316 319 319 318
309 310 310 311 312 312 314 316 318 319 319 324 323 322 322 323 324 322 322 322 322 322 320 322 318 309 296 297 296 296 304 314 315 316 315 314 316 315 316 313 308 298
308 309 309 310 310 311 313 313 315 317 317 319 323 323 321 322 323 322 320 322 323 323 314 317 319 309 294 295 295 295 304 317 316 314 313 313 313 312 312 311 310 302
307 307 308 309 310 310 311 312 313 314 316 317 320 321 321 321 322 322 321 322 323 323 322 318 319 317 302 294 295 295 300 316 317 314 312 312 311 310 309 310 309 305

ECMWFNIL_sfc_thetae_018.txt.gz
Theta_e
332 330 330 330 330 330 331 329 331 330 333 332 327 328 328 329 328 328 331 331 331 330 331 332 331 330 332 330 329 324 325 328 328 328 327 325 324 322 320 319 320 318
333 331 329 330 327 328 331 333 333 333 331 330 328 327 328 329 329 326 327 328 329 330 330 330 329 329 327 325 325 324 323 322 320 322 322 321 318 319 321 321 320 321
332 330 330 328 327 329 330 332 333 332 330 326 327 327 327 330 328 329 329 328 326 326 325 323 323 323 324 323 322 322 321 320 319 319 319 318 320 319 319 318 316 317
329 329 329 328 328 327 330 329 328 327 326 325 326 326 327 329 327 324 324 325 325 325 325 326 326 324 320 322 322 321 320 318 319 320 319 320 320 321 322 321 319 318
329 328 327 327 327 328 329 326 325 326 325 324 324 326 324 324 323 322 324 323 323 323 323 321 322 323 323 319 318 316 317 318 320 318 318 318 321 321 322 322 320 319
327 325 324 325 325 325 326 325 324 325 324 324 324 323 325 325 322 321 320 321 321 320 320 321 321 321 319 319 318 318 319 318 318 318 316 316 318 320 319 321 319 318
327 327 326 324 323 323 322 324 326 326 325 325 325 325 324 324 321 320 319 318 318 318 318 320 320 321 321 319 320 319 318 316 317 316 315 318 318 318 319 319 317 317
328 327 325 323 323 323 322 321 322 325 328 326 325 325 325 320 319 323 320 319 316 316 318 317 319 320 321 321 318 319 320 322 319 317 315 317 318 317 317 318 319 315
329 326 325 325 325 325 322 319 321 322 322 325 325 323 324 325 321 321 320 318 317 317 315 317 317 320 321 319 319 320 319 321 321 316 317 318 317 315 314 317 316 315
327 326 326 326 326 326 323 321 320 321 321 323 322 321 319 322 322 321 323 321 320 316 316 318 319 322 320 317 318 319 319 318 317 318 318 318 317 314 313 316 316 315
330 328 325 325 326 326 326 325 324 322 323 320 322 322 321 323 319 321 322 321 323 318 316 317 319 322 320 320 321 321 320 320 317 316 319 319 318 318 317 316 317 318
328 328 327 325 327 328 327 326 324 324 324 324 320 319 324 324 318 320 316 317 320 321 318 317 317 321 321 321 322 324 322 321 322 321 321 321 321 321 318 319 318 319
327 328 329 330 330 330 331 327 325 326 324 322 322 321 320 322 322 319 320 318 317 319 319 318 317 317 320 321 321 322 322 322 323 322 322 323 321 322 318 321 321 321
330 330 330 329 330 330 330 329 329 327 326 324 324 322 321 319 319 320 319 319 317 316 317 318 318 317 317 318 318 319 320 321 322 322 320 323 322 322 324 323 323 323
328 329 328 327 330 329 328 328 329 327 325 324 327 327 326 322 323 321 320 317 318 318 316 317 318 318 317 316 317 318 321 322 323 322 324 321 322 321 323 323 323 322
324 326 325 326 328 329 327 328 325 326 327 327 325 325 327 327 326 326 322 319 318 318 318 320 319 321 317 310 312 319 321 321 324 323 323 323 322 322 322 322 321 322
323 322 323 323 323 325 326 327 325 326 326 325 324 326 328 328 325 322 323 324 322 319 319 322 322 322 306 304 305 309 322 323 323 323 323 322 322 321 319 319 321 321
322 321 321 321 323 323 324 323 324 326 325 324 326 325 324 324 324 323 321 322 322 320 320 321 322 309 300 303 303 304 312 323 322 320 320 319 318 317 317 318 319 322
320 320 321 320 322 323 324 324 323 324 323 324 325 327 326 323 322 323 322 322 323 321 321 321 322 298 300 300 301 303 306 314 320 320 319 318 318 316 315 315 317 317
314 316 318 319 320 322 323 323 324 323 325 325 326 323 321 320 320 322 323 323 323 323 322 321 321 301 298 299 301 301 302 309 320 320 319 319 317 317 316 315 317 314
311 312 313 316 322 322 320 321 321 323 323 322 323 323 321 319 320 320 319 320 321 321 319 318 320 303 297 297 298 299 298 304 319 321 320 319 319 318 317 318 315 314
309 310 311 312 313 314 317 321 323 324 323 323 322 323 323 322 322 322 320 320 320 319 317 315 319 299 296 296 296 297 297 308 316 317 317 319 318 320 317 316 317 314
307 308 309 310 311 312 312 314 315 317 320 324 323 322 322 321 322 322 321 320 319 318 317 317 313 296 296 298 297 296 298 309 314 314 314 315 316 319 318 317 317 318
306 306 307 308 309 309 310 312 313 314 315 318 319 319 319 321 322 321 320 320 319 318 319 318 315 301 296 298 297 296 301 311 312 312 312 313 313 316 316 312 307 305
304 305 306 307 307 309 311 310 311 311 312 313 315 318 318 319 319 320 320 318 318 318 315 317 318 308 295 296 295 295 299 311 313 313 312 312 313 314 312 307 304 302
303 304 305 306 306 307 309 310 310 310 310 311 313 313 313 315 317 318 318 317 318 319 319 318 317 317 305 296 296 295 296 310 314 313 311 312 313 313 308 306 302 299

ECMWFNIL_sfc_thetae_021.txt.gz
Theta_e
321 321 319 318 318 319 319 318 317 319 321 320 319 321 320 320 321 321 321 322 322 322 322 321 321 322 325 323 323 324 324 322 321 320 317 315 313 314 315 313 309 308
321 321 322 320 319 319 319 318 320 321 320 320 320 319 320 318 318 318 320 320 321 320 318 317 319 320 319 317 317 317 316 316 315 318 314 314 314 313 312 311 309 310
322 320 318 317 318 318 320 322 321 319 319 319 319 318 319 317 316 316 318 318 315 314 315 315 316 316 316 315 314 314 313 313 313 313 314 312 311 312 311 312 312 312
321 321 320 319 319 319 319 318 317 317 317 317 317 319 320 319 316 316 318 320 315 315 315 316 314 314 315 315 314 311 311 311 311 312 313 314 315 313 312 312 312 312
321 321 320 320 320 319 317 317 317 317 316 316 316 317 316 313 313 313 313 313 313 312 312 312 314 313 312 311 311 310 311 312 312 312 312 312 313 315 314 313 312 311
320 320 320 320 320 319 317 317 317 315 314 313 314 315 313 313 312 313 313 312 312 312 311 311 311 310 310 310 310 310 311 312 311 311 312 311 312 313 314 312 311 310
318 319 319 319 319 319 318 318 316 315 314 314 313 312 313 312 311 311 312 312 311 311 311 311 310 310 310 309 310 309 310 310 310 311 312 311 312 312 313 311 312 311
318 318 318 317 317 317 318 319 317 316 314 313 313 313 313 314 311 311 310 310 310 310 310 311 311 310 311 310 310 308 309 313 311 310 310 310 310 310 310 314 310 309
319 317 317 316 315 315 316 317 317 316 316 315 313 312 314 313 312 311 310 309 310 310 310 310 310 312 311 311 310 310 311 312 312 310 311 309 309 309 310 309 308 308
318 318 317 317 316 314 314 314 315 315 316 315 314 312 313 313 312 311 311 309 309 309 309 310 312 311 311 311 313 311 310 310 310 310 310 309 309 309 310 309 308 308
318 318 318 319 318 315 313 313 313 313 314 314 314 314 314 313 313 311 313 310 311 310 311 312 312 311 310 310 312 311 311 310 309 309 309 309 309 309 313 309 309 307
320 319 319 319 319 317 314 314 314 313 314 314 315 314 314 314 311 312 313 313 311 310 312 313 313 312 311 312 312 312 311 310 310 310 312 311 310 309 310 310 310 308
321 321 319 320 320 320 318 317 316 315 316 316 316 315 314 311 310 310 311 312 312 312 312 312 313 313 313 313 314 313 313 313 312 312 313 312 312 311 311 310 312 312
322 322 321 320 320 320 320 319 318 318 317 317 317 315 314 313 313 312 310 311 311 311 312 312 311 311 312 313 313 313 313 313 312 313 313 314 312 314 313 312 314 315
322 322 321 320 320 319 319 318 319 318 317 317 317 317 315 313 313 313 311 310 310 310 311 312 312 312 313 313 312 313 313 313 314 313 312 313 314 315 315 316 315 314
320 320 320 319 319 318 317 317 317 317 318 317 317 317 317 314 313 313 313 310 310 310 309 312 313 313 313 309 309 313 313 315 316 314 315 315 315 315 314 316 316 314
318 318 317 317 316 316 316 317 318 318 317 317 316 316 315 316 316 315 314 312 310 309 309 312 313 314 305 301 303 305 314 315 315 315 315 316 316 315 314 315 314 314
317 316 316 315 316 316 316 315 316 317 317 316 315 316 315 315 315 315 315 314 314 313 311 313 313 308 301 300 301 302 308 317 316 316 316 315 314 314 314 313 314 314
317 316 314 313 315 315 315 316 316 316 315 317 317 317 315 314 312 314 314 315 313 313 313 313 311 298 301 299 299 301 305 312 318 317 317 316 315 314 313 313 314 314
306 309 313 314 313 313 315 316 315 314 314 315 317 316 314 312 312 313 313 313 313 313 312 311 312 301 298 300 302 300 301 309 318 317 316 316 315 314 313 311 313 313
302 304 304 305 306 309 309 310 311 310 313 313 314 315 313 312 313 312 311 312 312 312 308 311 313 299 297 299 302 301 300 301 312 314 313 313 313 313 312 310 311 312
301 301 302 303 304 304 305 305 305 305 307 312 312 313 313 312 311 311 311 312 312 311 310 307 310 296 297 298 301 300 298 306 308 308 310 313 313 313 313 312 313 311
300 300 300 302 303 303 304 304 304 305 305 306 304 307 311 312 313 313 314 314 312 311 311 308 309 299 295 297 298 298 299 308 309 310 309 310 310 312 313 314 314 312
299 299 300 301 301 303 304 304 304 304 304 304 303 304 305 307 311 313 313 314 313 313 312 310 308 304 296 297 297 297 301 310 310 310 310 310 309 311 312 312 313 311
300 300 300 300 300 300 302 302 303 303 303 303 303 304 304 305 307 310 312 313 312 312 312 311 309 306 298 297 297 297 300 307 308 307 305 307 308 309 310 310 310 308
299 300 299 300 300 300 300 300 301 301 301 302 302 303 303 303 304 305 307 311 313 312 311 311 310 309 303 296 297 297 297 305 308 309 307 307 308 309 309 303 301 298

ECMWFNIL_sfc_thetae_024.txt.gz
Theta_e
316 316 316 315 315 316 315 316 316 317 317 317 317 316 318 316 318 318 317 317 317 317 317 318 320 322 323 321 321 322 320 319 317 315 315 313 311 312 314 313 311 312
316 317 318 317 317 316 315 316 316 318 317 317 317 317 316 317 316 317 317 316 314 313 315 318 319 318 318 319 318 318 315 313 312 315 312 311 309 309 308 308 308 308
317 316 315 315 315 314 316 317 318 318 317 317 316 316 316 315 316 315 313 312 312 312 314 315 315 315 315 315 315 314 313 311 311 310 310 308 308 309 308 308 308 308
316 315 315 315 317 317 317 316 316 316 316 315 314 315 316 316 315 315 315 317 312 312 311 312 312 312 312 311 311 310 310 310 310 311 312 310 310 310 309 309 309 308
317 316 317 317 316 316 316 316 315 315 314 314 314 313 314 313 312 311 311 310 309 310 311 311 310 310 310 310 310 309 310 310 310 311 310 309 309 310 309 309 309 309
317 317 317 317 315 315 315 315 314 314 313 312 312 312 311 311 310 310 309 308 309 309 309 308 309 308 309 309 309 309 309 311 309 311 311 310 309 309 310 308 308 309
317 317 316 316 315 315 314 313 313 313 313 312 311 310 310 310 310 309 309 309 308 309 308 307 307 307 307 308 309 307 308 308 308 309 309 308 309 308 309 308 309 308
316 316 316 316 315 314 313 312 312 311 311 311 310 309 310 310 309 309 308 308 307 308 307 307 307 306 307 308 308 307 306 309 308 308 308 307 307 307 307 309 306 307
316 316 315 315 315 314 313 313 312 311 311 310 310 310 310 309 309 309 308 307 308 307 307 306 307 307 306 307 305 306 307 307 308 306 307 307 308 307 307 306 306 306
315 315 314 314 314 314 313 312 312 312 312 310 310 310 311 309 309 307 307 306 307 307 306 307 308 308 307 306 307 307 307 308 307 307 307 307 308 307 306 306 305 305
314 314 313 313 312 312 312 311 311 312 311 311 309 309 309 310 309 307 307 307 308 306 307 308 308 307 307 307 308 308 308 307 307 307 306 307 307 307 310 306 305 304
314 314 314 313 311 311 311 312 312 311 311 311 310 309 310 310 310 309 308 307 306 306 307 309 308 307 307 308 308 307 307 307 307 307 307 307 306 307 307 306 305 305
316 315 316 314 312 311 311 311 310 310 311 311 312 311 311 310 308 310 309 307 307 307 309 310 309 308 307 308 309 308 307 307 307 307 307 307 306 308 307 307 306 306
319 318 317 316 314 312 312 311 310 310 311 311 312 310 311 309 308 309 309 308 308 308 310 310 309 308 308 309 309 309 308 307 308 308 309 307 306 307 307 308 307 308
318 318 318 317 317 315 314 313 312 312 313 313 313 312 312 310 309 308 309 308 308 309 309 309 310 311 311 311 310 310 309 309 309 309 309 308 308 308 307 308 309 309
317 317 316 316 317 317 316 315 314 313 314 313 313 313 311 310 310 310 308 309 308 307 308 310 310 311 312 308 309 311 309 311 311 309 309 309 311 310 309 310 311 310
316 316 316 316 315 316 316 317 315 314 313 313 313 312 313 312 312 311 311 307 308 308 307 309 310 311 305 301 301 304 310 309 310 310 308 309 310 311 311 311 310 309
316 316 316 315 316 315 314 313 314 313 313 312 312 312 311 311 312 311 311 310 309 307 306 308 308 307 303 299 299 300 305 311 311 311 310 310 310 311 311 311 311 310
308 309 310 311 312 311 312 314 313 313 313 313 313 313 310 311 309 311 311 311 311 309 308 308 308 303 301 301 299 297 298 306 313 313 313 312 312 312 312 312 311 310
300 302 303 304 306 306 306 306 306 307 310 312 313 313 311 311 311 311 311 310 310 309 309 308 307 300 296 299 299 298 297 298 311 313 314 314 314 314 313 312 312 311
299 299 300 301 302 303 302 303 303 303 304 306 308 310 310 311 310 309 309 310 309 307 307 310 310 299 296 296 297 297 297 298 308 312 313 313 312 311 311 311 311 311
298 298 298 298 299 299 299 300 300 300 301 302 302 303 305 306 306 306 306 306 307 308 307 308 310 298 296 296 297 298 297 306 309 311 311 311 310 310 310 309 309 310
298 298 298 297 297 297 297 297 297 297 298 300 298 298 299 301 302 304 306 307 306 305 305 308 308 302 296 296 297 296 299 308 309 309 309 310 310 310 311 310 309 309
298 298 297 297 296 296 296 296 296 296 296 298 297 297 297 298 299 301 303 305 306 308 306 306 307 305 299 297 296 296 301 309 310 310 310 308 309 308 307 309 310 310
297 297 297 296 296 296 296 296 295 295 296 296 296 296 296 297 298 298 299 300 302 305 310 308 308 307 301 297 297 296 299 306 307 307 307 307 308 308 307 308 307 308
297 297 297 296 296 296 296 296 296 296 296 296 295 296 296 296 296 297 297 298 299 300 304 306 307 308 307 299 297 297 297 304 306 306 306 306 307 308 308 305 304 306

ECMWFNIL_sfc_thetae_027.txt.gz
Theta_e
314 314 313 312 312 314 315 315 314 315 313 313 315 313 315 314 316 314 314 314 314 315 316 317 318 318 320 318 318 319 318 317 315 314 315 315 314 316 317 315 314 316
313 314 315 313 314 314 314 315 315 315 315 313 315 315 314 314 315 314 313 312 312 313 314 316 316 316 316 317 317 317 314 312 311 313 312 311 310 314 314 314 313 310
314 314 314 314 314 312 313 313 315 315 315 314 314 314 315 314 312 310 310 310 311 312 313 313 314 314 314 313 313 313 311 309 308 307 309 307 307 309 308 308 307 308
314 314 314 313 314 314 314 315 313 314 314 314 313 313 314 314 311 311 312 314 310 310 310 311 312 312 312 311 310 309 308 308 307 308 308 308 308 307 307 307 307 306
314 314 315 315 315 315 314 315 314 312 312 312 311 312 314 310 309 308 308 308 309 308 309 309 309 309 309 309 308 308 308 308 307 307 308 307 306 307 307 307 306 306
315 316 316 315 314 314 314 314 313 312 311 310 310 310 309 309 308 307 307 307 307 308 307 307 307 307 308 308 308 308 308 309 306 307 308 307 306 306 308 306 306 306
316 316 315 314 313 314 314 312 312 312 310 309 309 308 307 308 307 306 306 307 307 308 306 306 306 306 307 306 307 306 306 307 306 307 308 305 307 306 307 307 308 307
316 314 314 313 313 313 313 312 311 311 309 308 307 307 307 307 306 307 306 306 306 305 305 305 305 305 305 306 307 306 305 308 307 307 306 304 305 305 304 307 304 305
315 314 313 313 312 312 312 311 310 309 309 308 307 307 308 307 306 305 305 305 305 305 305 304 305 305 305 305 305 306 306 305 306 305 306 305 305 304 304 304 304 305
314 314 313 312 312 311 311 310 310 309 309 308 308 307 307 306 306 305 305 304 305 304 304 304 305 305 304 304 305 305 305 305 304 304 304 304 305 304 303 303 303 303
313 313 312 312 311 311 310 310 309 309 309 307 306 307 306 306 307 305 304 304 305 304 305 305 305 304 304 304 304 304 305 305 304 304 304 304 304 304 308 303 303 303
314 314 313 313 312 312 311 310 309 309 308 308 307 307 306 307 306 305 306 304 304 304 305 305 304 304 304 304 304 304 304 304 304 304 304 304 304 304 305 303 303 303
315 315 315 314 313 312 311 310 309 309 308 308 309 307 307 307 305 305 306 305 304 304 305 306 305 304 304 304 305 304 304 304 304 304 304 304 304 305 305 304 303 304
315 315 315 313 311 310 310 310 310 309 309 308 309 308 308 307 306 306 306 305 304 304 306 307 305 305 304 305 305 305 304 304 304 304 304 304 304 304 304 304 303 304
315 315 314 313 312 310 311 310 310 309 309 310 310 310 310 309 307 307 306 305 304 305 306 307 307 306 307 306 306 305 305 304 304 305 305 304 304 304 304 304 304 303
315 315 314 314 313 312 313 313 312 311 310 311 311 310 310 308 306 306 306 306 305 305 305 306 307 307 309 307 307 307 305 306 306 305 305 305 305 304 304 304 305 304
314 314 314 313 313 313 314 315 314 313 311 311 310 309 309 309 307 307 305 305 305 305 305 307 308 309 305 300 301 304 307 306 306 305 304 305 305 304 305 306 306 306
312 312 311 311 312 312 311 311 312 312 313 312 312 312 310 309 310 308 307 306 305 304 303 305 306 306 302 300 298 299 304 309 307 307 306 306 306 306 307 305 307 308
304 304 304 304 305 305 305 305 305 305 306 309 312 312 310 311 308 308 307 306 305 305 304 303 303 302 298 298 298 297 297 303 307 307 308 307 307 308 308 308 308 308
300 300 300 301 301 301 301 300 300 301 302 303 305 306 308 308 308 307 307 308 306 307 308 306 307 301 295 296 296 296 295 297 305 307 308 308 308 309 310 309 309 309
298 298 298 299 299 298 298 297 297 298 299 299 299 300 301 302 303 303 305 305 306 305 306 307 307 299 293 292 295 296 296 296 301 304 307 307 309 309 309 310 310 310
298 298 298 298 298 297 297 296 296 296 296 297 297 297 298 298 299 300 301 302 304 304 302 305 307 301 296 293 293 294 296 300 302 303 305 307 307 308 309 310 310 309
297 297 297 297 297 297 296 296 295 295 295 296 295 295 295 296 297 297 299 299 301 302 303 304 306 302 298 296 294 294 297 301 302 303 303 306 307 308 309 309 309 309
298 297 297 296 296 295 295 295 295 295 295 295 294 294 294 294 295 295 296 297 297 299 300 302 303 302 299 298 297 295 297 304 306 304 305 306 307 308 307 308 309 309
296 297 296 296 296 296 296 295 294 294 294 293 293 293 293 293 296 294 294 294 296 297 302 300 299 300 298 296 296 296 298 302 304 303 303 305 306 307 306 306 307 307
296 296 296 295 295 295 295 295 295 294 293 293 292 293 292 292 293 293 292 293 294 295 295 296 297 298 298 295 295 295 296 300 303 304 304 305 305 307 308 307 304 305

ECMWFNIL_sfc_thetae_030.txt.gz
Theta_e
316 316 315 315 315 316 315 314 314 315 314 314 315 314 315 315 316 314 315 315 317 317 318 319 319 320 321 320 321 322 322 321 319 319 320 319 318 319 319 319 319 320
314 315 316 314 314 315 315 315 315 315 314 314 314 314 314 315 315 314 313 315 316 316 317 318 319 318 319 319 319 319 318 317 316 317 317 317 317 318 319 319 319 318
313 313 313 314 314 314 314 314 315 314 314 314 314 314 315 314 312 310 311 313 315 314 315 315 316 316 316 316 316 316 313 312 312 312 315 314 314 317 317 317 316 318
313 314 314 314 315 315 314 314 313 313 313 314 314 314 315 315 311 312 313 316 312 312 312 314 314 314 314 313 312 311 310 310 310 310 310 310 311 312 312 313 312 313
313 312 313 314 315 316 315 315 314 313 313 313 312 314 314 311 310 309 310 310 310 310 311 311 311 311 311 311 311 310 311 310 309 310 309 309 309 310 310 311 310 310
313 314 315 315 315 315 315 315 314 313 312 312 312 313 310 309 309 308 309 309 309 309 309 309 309 309 309 310 310 309 310 309 309 309 309 309 308 309 309 309 309 309
313 314 315 314 314 314 314 313 313 313 312 312 311 310 309 308 307 307 307 308 309 310 309 309 308 308 309 309 310 309 309 309 308 308 308 308 310 309 309 309 309 308
314 314 313 314 313 313 313 312 312 312 311 310 311 309 308 308 307 308 307 307 307 307 307 307 307 308 307 308 309 309 309 309 308 308 308 307 308 308 308 308 307 307
313 313 314 313 313 312 312 312 311 310 311 310 309 308 308 307 307 306 307 307 306 306 306 306 307 307 307 308 308 309 309 308 308 308 308 308 308 307 307 307 308 308
312 312 312 313 313 312 311 310 310 309 310 309 308 307 307 307 306 306 306 306 306 306 305 306 306 306 306 306 307 308 308 308 307 307 307 307 308 307 306 307 307 307
312 312 312 312 312 311 311 310 310 309 309 308 307 307 306 307 307 305 305 305 306 306 306 306 306 306 306 306 306 306 307 307 307 307 307 306 307 306 309 306 307 308
313 313 312 311 312 311 311 310 310 309 308 308 308 307 306 306 305 306 306 304 305 305 306 306 306 305 306 306 306 306 306 306 307 307 307 307 306 307 307 306 307 306
315 314 313 312 311 311 310 310 310 309 309 308 308 308 307 307 305 306 307 305 305 305 306 306 305 305 305 305 306 306 306 306 306 306 306 306 306 306 307 306 306 306
314 314 314 312 312 311 310 309 309 309 308 309 309 308 308 307 306 306 306 305 305 305 306 307 305 305 304 306 306 306 307 306 306 307 307 306 306 306 306 306 306 306
314 315 314 313 311 310 309 309 309 309 309 309 309 309 310 308 308 307 307 306 305 305 306 307 306 306 306 307 307 306 306 307 306 307 307 307 306 306 306 306 306 306
313 313 313 313 312 311 312 311 310 310 309 309 309 309 309 308 307 308 307 307 307 306 306 307 307 307 309 306 306 307 306 306 307 307 307 307 308 307 307 306 307 307
311 310 310 310 310 310 311 311 311 311 311 311 310 309 308 308 306 306 305 305 306 306 306 306 307 308 301 299 298 301 305 306 307 307 307 308 308 307 308 308 308 308
303 302 302 302 302 303 304 305 305 305 306 308 310 310 310 311 310 309 308 306 304 305 305 305 306 303 297 297 298 298 299 306 306 307 307 307 308 308 308 308 308 308
300 299 299 299 298 299 299 300 300 300 300 301 303 305 306 306 306 307 308 309 309 308 308 307 307 297 293 293 294 295 296 300 306 307 308 308 307 308 309 309 309 309
299 298 297 297 298 298 298 298 298 297 298 299 300 300 301 301 302 302 303 305 307 307 307 308 307 298 295 294 294 294 294 297 304 306 307 308 308 308 309 310 310 310
298 298 297 297 297 298 297 296 297 297 297 297 297 297 297 298 299 299 300 301 302 303 304 304 303 294 294 294 294 294 294 297 302 304 305 306 308 309 309 310 310 310
298 297 297 297 297 297 297 296 296 296 296 297 297 296 296 297 297 298 297 298 299 300 301 301 301 293 293 293 294 294 296 305 304 304 304 305 306 308 309 310 310 310
297 297 297 297 297 296 295 295 295 295 296 297 296 295 295 295 295 295 296 297 297 298 298 299 299 295 293 293 293 294 298 304 306 306 306 306 307 308 308 309 310 311
297 297 296 296 296 295 295 295 296 295 295 295 294 295 295 294 295 294 294 295 295 296 298 296 297 296 292 292 292 293 297 302 304 305 306 307 308 309 309 309 310 308
296 296 296 296 295 296 296 295 295 295 295 295 295 294 294 294 295 293 293 293 294 295 297 295 295 295 293 291 292 292 296 300 302 303 304 305 306 308 309 308 309 307
296 296 296 295 294 294 295 294 295 295 295 295 294 294 293 293 293 292 291 292 292 293 293 294 294 294 294 291 292 292 292 298 300 300 300 301 303 304 305 307 308 308

ECMWFNIL_sfc_thetae_033.txt.gz
Theta_e
333 334 333 334 333 334 332 331 331 332 332 332 331 332 331 332 331 332 332 332 333 334 334 333 333 335 336 336 337 334 332 331 332 334 334 334 333 333 333 333 334 333
332 333 332 333 332 331 333 333 332 332 331 332 333 332 332 331 330 332 332 333 333 334 334 334 334 334 335 334 334 335 334 334 334 332 334 333 333 333 333 334 334 334
330 331 331 331 331 331 331 331 332 332 331 330 331 332 331 331 329 330 332 334 333 334 334 335 335 334 335 335 335 335 334 333 333 332 333 332 333 333 334 334 333 333
330 331 331 332 332 331 330 329 329 329 330 329 331 331 330 328 329 330 331 331 332 332 333 333 334 334 333 333 334 333 333 332 332 333 333 333 333 333 333 333 333 332
328 328 329 330 330 330 330 329 328 329 329 330 330 329 328 327 328 328 330 330 331 330 331 331 331 331 331 331 332 331 330 328 327 330 330 330 330 331 331 332 332 332
327 326 327 327 328 328 328 328 328 328 328 328 329 328 328 327 326 327 329 329 329 329 329 329 328 328 328 329 330 330 328 326 324 326 326 326 325 327 326 330 331 331
325 326 326 327 328 328 329 328 327 327 327 329 326 326 326 325 325 326 326 327 327 327 328 327 326 325 326 327 327 325 324 323 321 321 321 321 323 323 323 327 328 328
325 326 326 326 328 327 328 326 326 326 326 325 327 324 324 322 323 325 325 325 325 325 325 325 324 323 323 324 323 323 322 322 322 320 320 320 322 320 322 322 324 323
325 325 324 326 327 327 327 325 325 324 324 326 325 322 322 323 323 324 323 323 323 323 323 323 322 321 323 324 324 323 321 321 323 322 322 322 322 321 319 320 321 322
324 324 325 325 325 326 326 325 324 323 323 325 323 322 320 321 322 322 321 322 322 321 322 321 321 322 321 322 322 323 322 320 321 322 323 324 322 320 319 321 322 322
322 323 324 325 325 325 325 324 324 322 323 322 323 322 321 321 319 321 321 320 322 319 319 320 321 321 321 321 323 324 324 322 321 321 323 323 323 322 320 322 322 323
321 321 320 321 321 322 322 323 323 323 323 323 322 321 321 321 320 319 317 317 319 319 319 319 319 320 319 320 321 322 323 324 323 322 321 321 322 321 320 322 323 321
320 320 321 320 319 319 320 320 322 323 322 321 322 322 321 320 320 319 320 318 318 319 319 319 318 318 320 321 321 321 322 322 322 322 322 322 321 319 319 320 320 320
321 322 321 321 321 320 320 320 319 321 321 322 321 321 321 320 319 319 320 319 320 319 320 321 319 318 319 319 320 321 322 322 322 323 321 322 322 320 321 320 320 321
320 320 319 319 320 321 319 319 320 321 321 321 321 322 323 321 320 319 319 318 318 320 319 321 321 321 319 320 321 319 320 321 322 320 321 321 321 321 322 320 320 321
316 317 318 318 319 318 318 319 320 321 322 322 321 322 322 321 321 320 319 318 317 318 319 319 318 316 306 299 303 317 320 318 322 322 320 321 320 321 322 321 321 321
308 309 309 310 311 311 311 313 315 318 319 319 320 321 321 322 321 319 319 318 317 317 317 317 313 306 294 295 296 299 315 320 320 321 322 322 322 321 321 321 322 320
305 304 304 304 305 304 305 307 309 310 311 312 313 314 316 319 320 320 321 321 321 319 316 312 305 295 293 294 294 294 301 319 320 319 320 320 322 321 320 321 321 323
303 303 303 303 303 303 304 304 304 305 306 307 308 309 311 311 312 314 316 318 316 312 309 307 304 293 293 293 293 293 293 307 319 320 320 320 320 319 319 320 321 322
303 302 302 302 302 302 303 303 303 303 304 305 306 307 307 308 309 309 311 312 312 309 307 305 302 295 293 293 294 294 295 307 319 320 320 320 320 320 321 321 321 321
302 302 301 301 302 302 302 301 302 303 302 303 303 304 304 304 305 306 307 308 309 308 306 303 299 292 292 293 293 294 297 307 322 322 322 322 321 320 320 320 320 321
301 301 301 301 301 301 301 301 301 301 301 302 301 301 301 302 303 304 305 305 306 307 306 303 299 291 291 292 292 294 299 314 316 318 319 320 321 321 321 321 321 321
300 300 301 301 300 299 299 300 300 299 299 301 300 299 298 298 298 299 301 303 304 305 306 304 302 294 291 291 292 292 302 310 312 312 314 315 316 317 318 319 321 320
299 299 299 299 299 298 298 299 300 300 299 299 298 297 297 297 298 297 297 298 300 301 302 303 302 296 291 291 291 291 298 307 308 309 311 310 312 314 315 316 317 309
299 299 298 297 298 299 299 299 299 300 301 301 300 298 297 298 297 296 296 297 298 299 299 301 302 299 292 291 291 291 299 306 305 306 307 308 308 308 311 313 314 312
298 298 299 298 298 298 299 299 300 300 299 299 300 299 298 297 297 297 296 295 297 298 299 300 301 301 297 290 291 291 292 302 305 304 303 304 305 305 305 308 310 311

ECMWFNIL_sfc_thetae_036.txt.gz
Theta_e
337 337 335 335 335 336 336 334 333 333 332 332 331 332 331 333 334 334 334 334 335 336 336 336 340 340 338 338 339 336 336 338 338 339 338 338 337 337 336 335 330 329
337 336 335 335 334 335 334 334 334 332 332 333 333 333 334 333 333 333 333 332 334 334 336 335 336 339 339 338 337 337 336 337 337 336 338 338 337 335 335 335 332 331
336 335 335 334 333 334 334 334 334 333 331 332 333 332 332 333 332 332 333 332 332 333 336 336 336 335 335 337 339 338 336 336 334 336 338 336 335 334 334 334 333 336
336 335 334 334 334 334 334 333 333 333 333 331 331 331 332 332 331 331 331 331 331 333 334 335 335 334 332 333 336 337 335 334 334 337 337 337 334 333 334 337 336 335
336 335 334 333 332 333 333 332 331 331 331 331 332 331 331 331 330 329 330 330 330 330 331 332 333 334 334 333 333 334 337 335 337 337 336 337 337 337 337 336 336 335
337 335 333 332 333 333 332 331 330 331 331 330 330 330 330 330 329 329 328 328 329 329 330 331 331 333 333 333 333 333 335 335 336 337 335 334 332 334 333 335 336 335
335 335 334 333 333 332 332 331 331 331 330 331 330 330 330 329 328 328 327 328 328 328 330 331 331 332 332 332 331 332 331 330 331 331 328 328 329 330 330 334 335 334
336 336 334 333 333 332 331 331 331 331 332 330 330 330 329 327 327 328 327 327 327 327 328 328 329 330 331 331 329 329 330 330 329 327 326 326 328 327 331 333 336 334
336 335 333 333 332 331 331 329 330 331 330 330 329 329 329 328 327 325 326 327 326 327 326 327 327 328 329 328 327 326 324 325 326 326 326 326 326 325 323 326 327 329
334 333 333 331 330 330 330 331 331 330 330 330 329 328 326 328 326 324 325 327 326 326 326 325 326 327 327 325 324 323 322 322 325 326 325 325 323 322 320 322 324 324
333 332 331 330 330 329 331 331 331 330 330 329 329 327 326 325 324 324 324 325 326 324 323 324 325 325 325 326 327 326 323 322 322 323 325 324 324 323 324 323 323 324
332 332 331 330 330 331 331 330 330 329 329 329 326 325 325 324 323 322 321 322 323 323 323 323 323 324 324 324 325 326 326 325 323 323 322 322 322 321 322 324 324 324
330 330 330 331 331 331 331 329 329 329 328 325 325 324 323 322 320 320 321 322 322 323 322 322 322 322 323 324 323 324 325 325 325 324 323 323 322 322 322 322 323 323
327 328 328 327 327 327 327 328 328 327 325 324 323 322 320 319 319 320 322 322 322 322 322 322 320 320 321 322 322 323 323 324 325 325 324 324 324 323 323 322 323 323
325 327 327 326 325 325 325 325 325 325 324 323 322 322 322 321 321 319 319 319 320 321 320 322 325 326 321 319 322 320 320 321 323 324 324 324 323 322 323 322 321 323
323 325 325 324 323 323 323 324 324 324 324 323 323 322 323 323 322 321 320 319 319 322 324 326 324 320 303 296 298 319 322 318 320 323 323 323 321 321 322 322 321 323
317 318 319 319 320 321 321 322 322 323 324 325 325 325 325 324 324 323 323 322 321 323 322 321 318 307 294 292 294 294 319 324 322 322 322 322 322 323 322 322 323 321
314 315 315 315 316 316 316 316 316 318 319 320 321 323 326 327 325 324 324 325 324 322 320 317 310 296 292 294 293 292 296 322 323 323 322 324 324 322 322 322 322 323
310 310 311 312 313 313 313 312 312 313 314 315 317 320 323 323 324 323 321 320 318 315 313 310 307 293 293 293 294 293 294 304 323 322 321 322 322 321 323 323 325 324
309 309 309 309 310 310 311 310 309 309 310 313 315 317 318 318 318 317 316 315 313 311 308 306 303 294 292 292 293 292 293 299 325 324 324 324 323 323 324 324 323 323
306 306 307 308 308 308 308 307 307 307 309 311 312 313 313 314 314 314 314 314 313 310 308 305 302 291 291 291 292 293 292 299 328 328 326 326 327 328 328 328 327 328
306 307 306 306 305 305 305 305 306 307 307 307 308 309 310 310 312 312 312 312 313 312 309 306 302 291 291 291 291 292 294 320 324 325 325 326 327 328 328 329 329 329
305 304 304 304 306 305 305 305 306 307 306 306 305 305 304 305 307 308 309 308 309 310 309 306 304 294 290 291 291 290 302 318 319 320 321 321 322 322 324 325 326 321
303 303 304 304 303 303 305 306 307 306 306 306 305 303 303 303 304 305 306 306 305 306 307 307 304 295 290 291 291 290 297 314 314 316 317 317 318 319 320 321 319 307
303 303 304 303 303 302 303 303 303 303 304 306 304 304 304 304 304 303 303 304 305 304 302 306 306 300 291 291 291 291 298 311 310 311 312 313 313 313 316 317 319 314
302 300 301 302 302 302 302 302 302 302 303 303 302 303 302 304 304 303 302 302 304 304 304 305 305 305 297 290 290 292 291 303 310 308 309 309 310 309 309 312 313 316

ECMWFNIL_sfc_thetae_039.txt.gz
Theta_e
338 337 335 334 332 334 335 336 335 334 334 333 332 332 331 334 334 334 334 335 335 335 336 341 338 339 339 339 338 336 335 336 336 335 335 334 336 332 329 330 333 334
337 336 335 335 336 335 335 335 334 333 333 334 334 333 334 333 333 333 332 333 334 334 335 336 340 339 338 338 339 337 336 337 337 336 336 337 336 336 334 330 331 337
337 336 335 335 336 335 335 335 335 334 333 335 335 334 333 334 333 332 332 332 331 331 334 335 336 339 339 339 338 338 337 338 338 338 337 334 334 336 338 338 338 336
336 334 334 336 336 334 334 334 334 334 335 333 333 333 333 333 333 332 332 330 330 331 334 334 333 333 332 335 338 337 338 338 338 338 336 335 336 336 337 335 335 334
335 335 335 336 335 334 334 333 333 333 332 332 332 332 331 332 331 330 331 331 331 331 332 333 333 333 332 332 332 334 336 337 336 337 335 333 336 335 336 335 333 332
334 332 332 331 332 332 332 332 331 332 331 331 331 330 330 331 330 329 329 329 329 329 329 331 331 332 333 331 331 332 333 333 334 334 332 332 332 333 333 333 331 331
332 333 332 331 332 332 332 332 332 332 331 331 329 329 330 330 329 329 327 328 327 327 327 329 329 331 332 331 331 331 334 332 331 332 330 332 331 332 332 332 330 330
333 333 332 331 332 332 331 331 331 331 332 330 330 329 329 327 328 329 327 327 326 325 326 327 328 328 330 331 329 330 331 333 332 329 327 326 328 326 328 331 331 331
330 331 330 331 331 331 331 330 331 331 330 330 329 328 329 328 328 325 325 325 326 326 326 327 328 328 330 329 329 328 327 328 328 327 326 326 326 326 326 332 331 330
330 328 331 330 330 331 332 332 330 330 329 329 328 327 327 329 326 324 323 326 326 326 327 327 327 329 329 327 326 326 325 325 326 327 326 326 326 324 323 325 327 329
330 331 331 330 330 330 331 331 331 329 329 328 328 328 327 326 323 324 324 325 327 325 325 326 326 327 326 325 326 326 325 325 325 324 326 324 325 323 326 323 324 324
330 330 330 329 328 330 331 331 330 329 329 331 327 327 326 324 323 323 322 323 323 324 323 323 324 325 325 325 325 325 325 325 325 325 324 324 324 323 322 324 324 323
329 328 328 329 330 330 330 330 329 329 330 328 327 326 324 323 322 322 323 323 322 323 323 323 322 322 324 325 325 325 325 324 324 324 324 324 323 322 323 324 325 324
328 328 328 329 330 330 329 329 329 328 328 327 326 324 323 321 320 320 322 323 324 323 323 323 323 322 322 322 323 324 325 325 324 325 324 324 324 323 324 324 325 324
330 328 329 329 328 328 328 328 328 327 325 325 323 322 322 320 321 320 321 322 322 323 322 324 324 318 312 310 315 320 322 324 325 324 324 323 323 323 324 324 324 324
329 329 328 328 327 327 327 326 325 324 323 322 322 322 322 321 320 320 320 321 320 321 326 323 320 313 301 296 298 310 319 321 324 324 324 324 323 322 323 323 323 324
327 327 327 326 327 327 327 326 326 328 327 322 323 323 323 322 322 319 319 320 320 323 321 318 313 304 294 293 294 294 312 324 323 322 323 322 322 322 321 321 321 322
324 324 324 324 324 323 324 324 324 325 325 325 325 324 323 324 323 322 323 324 323 321 318 315 309 295 291 293 293 293 297 316 325 323 323 322 322 321 320 321 320 322
320 320 319 318 317 318 319 320 320 320 321 322 323 324 325 324 326 324 323 321 319 315 313 311 309 293 292 292 293 292 292 303 323 322 320 321 323 322 323 322 321 322
315 316 316 316 316 316 316 316 316 317 319 320 321 322 322 322 321 320 319 317 315 313 310 308 304 294 291 291 292 291 292 297 325 323 323 322 322 322 323 323 323 323
312 312 313 314 314 313 312 312 313 315 315 316 318 318 318 317 317 316 315 314 313 311 309 305 301 291 291 291 292 291 291 297 325 323 322 323 324 324 324 324 325 325
310 309 310 310 311 311 310 310 310 311 311 312 313 314 316 316 316 316 315 313 312 311 308 304 301 291 291 291 291 291 292 319 323 323 323 325 326 327 325 327 327 328
308 309 309 308 309 309 309 310 308 308 308 308 309 310 310 311 313 313 314 315 313 312 309 305 302 294 290 291 291 290 299 319 322 321 323 323 324 325 324 326 327 322
306 307 306 307 308 308 308 308 308 308 307 308 306 306 306 307 308 307 308 309 310 310 310 306 302 295 290 291 291 290 296 314 317 319 320 320 321 322 323 323 315 311
304 305 306 305 304 304 304 304 305 306 307 308 307 307 307 306 306 306 305 306 306 306 306 309 306 299 291 291 291 291 298 309 313 314 315 316 316 316 318 319 317 306
303 303 304 304 304 304 305 305 305 305 305 305 307 308 308 308 307 306 306 306 307 307 305 306 306 302 295 290 291 292 291 304 313 311 310 309 311 310 310 312 314 309

ECMWFNIL_sfc_thetae_042.txt.gz
Theta_e
334 335 333 334 335 335 335 334 333 334 334 335 334 333 334 336 335 336 336 336 338 337 337 338 336 336 337 335 334 332 333 333 330 332 331 330 330 329 330 332 331 332
335 336 333 334 336 336 339 337 335 334 334 334 335 335 335 336 337 337 335 335 335 335 337 337 340 338 334 333 336 333 332 333 330 333 331 329 330 330 329 330 331 331
337 335 333 335 335 336 337 338 337 335 335 335 336 335 335 338 337 338 336 336 333 333 336 337 335 338 334 333 334 333 334 334 331 331 330 329 331 329 329 329 328 329
337 336 336 335 336 334 337 336 336 336 334 334 334 335 334 336 337 336 336 334 336 332 335 336 335 333 333 333 336 334 333 331 331 330 329 329 329 330 327 328 328 328
334 335 334 335 334 335 335 333 333 333 334 334 334 334 333 334 334 334 334 335 334 332 333 334 334 334 333 332 333 333 335 331 329 329 329 327 327 328 329 329 328 329
333 333 333 334 334 334 334 333 332 332 332 332 333 332 333 332 332 331 332 331 333 331 332 332 332 332 333 331 332 333 333 332 332 332 331 327 326 327 328 331 331 330
332 332 334 333 333 334 332 332 332 331 331 332 331 331 331 334 332 330 330 330 328 330 328 331 331 332 334 333 331 332 333 333 331 330 329 330 329 327 329 331 330 330
332 332 332 331 332 332 331 331 331 331 332 330 331 329 329 327 329 334 332 332 328 326 331 328 329 330 332 333 329 330 331 333 332 330 328 329 328 328 330 331 331 329
331 329 329 331 332 332 331 329 331 331 330 331 329 331 332 330 328 331 330 329 328 328 326 328 329 329 332 332 331 329 328 329 331 330 328 326 326 327 329 330 329 330
330 329 328 329 330 331 331 331 331 330 330 329 327 330 328 331 326 325 329 329 327 326 326 328 328 329 329 327 327 328 327 327 328 327 327 326 326 325 327 328 328 327
328 329 328 329 329 331 331 331 331 330 330 327 329 329 327 327 328 327 328 326 329 325 324 326 327 329 328 327 328 330 328 326 326 326 327 326 326 326 328 327 326 328
328 328 329 329 330 331 331 330 330 329 329 329 326 326 326 328 326 325 323 321 324 322 323 323 324 325 324 324 327 329 328 329 327 326 326 325 325 325 324 326 324 325
328 328 329 330 330 330 331 330 329 329 328 327 328 325 327 329 328 328 330 321 323 327 322 320 318 317 319 324 328 328 326 327 326 327 326 328 325 327 322 323 324 325
328 329 328 329 330 330 329 329 328 329 329 328 326 324 326 326 326 327 328 326 324 324 321 319 315 312 311 313 318 323 327 325 324 326 324 323 325 323 324 324 325 324
328 328 329 329 328 329 329 328 328 328 328 326 325 326 327 323 326 325 327 323 323 322 319 317 314 310 305 303 310 316 322 327 326 324 325 324 322 322 322 324 322 318
326 324 325 328 327 327 327 327 326 326 326 323 323 322 323 323 323 326 322 322 321 318 316 314 310 306 299 296 298 308 320 323 327 325 326 324 324 324 322 325 319 316
323 324 325 325 326 326 326 325 324 325 321 321 322 322 323 322 323 321 321 321 319 316 313 309 304 298 294 293 294 296 312 320 325 325 325 325 323 322 322 323 321 317
325 324 325 324 325 324 325 326 325 325 324 323 323 322 323 324 323 321 319 318 316 313 311 307 302 295 291 293 293 293 297 313 322 324 326 324 321 323 321 321 320 320
324 324 323 323 323 323 324 324 324 324 324 324 324 325 325 323 321 319 316 315 313 309 306 303 300 293 292 292 292 292 292 303 320 323 324 323 322 322 319 321 323 323
319 320 319 318 319 319 320 320 320 320 321 322 321 321 320 319 318 316 314 312 310 306 302 300 297 293 291 292 292 292 291 296 321 324 322 322 322 322 324 323 323 321
312 314 313 314 315 315 315 315 316 317 318 318 318 318 316 315 314 313 312 310 307 305 302 299 297 292 291 291 291 292 292 299 321 325 325 323 322 324 323 324 323 325
308 308 309 310 310 310 310 310 311 312 313 314 316 316 315 314 313 312 311 309 307 305 301 298 297 291 291 291 291 291 296 314 323 323 322 322 324 324 324 324 323 323
307 307 306 307 308 307 307 307 308 308 308 310 310 310 309 310 312 313 312 309 306 303 301 299 297 293 291 291 291 291 298 311 316 321 320 322 322 323 320 315 316 320
304 304 303 304 304 305 306 306 307 308 308 308 307 306 306 307 307 306 307 308 308 305 303 300 298 294 291 291 291 291 296 307 311 315 319 318 320 320 311 306 303 306
302 303 303 303 303 303 304 304 305 306 307 307 306 305 305 305 305 305 305 306 306 307 307 303 299 296 292 291 291 291 297 307 309 306 306 307 308 309 310 304 299 296
303 302 302 302 302 303 304 304 305 305 306 306 306 307 306 306 305 305 304 304 305 305 305 305 300 296 294 291 291 292 294 304 302 300 300 301 304 304 307 305 303 299

ECMWFNIL_sfc_thetae_045.txt.gz
Theta_e
331 330 328 327 327 327 326 327 327 327 326 327 328 329 329 330 331 331 331 331 331 330 331 331 330 330 330 327 327 329 329 328 327 327 327 326 325 326 326 326 324 325
330 330 329 329 328 328 327 327 327 328 329 329 329 328 329 329 329 329 329 330 330 330 331 331 330 331 329 328 327 327 328 327 327 330 325 324 324 325 326 326 325 324
329 328 328 329 329 328 328 328 328 328 328 328 328 328 328 328 328 328 328 328 329 330 330 330 329 329 329 329 328 327 327 326 326 327 325 325 324 325 325 325 324 325
328 327 328 329 329 329 329 328 328 328 327 327 326 327 328 328 327 326 327 332 327 328 329 329 328 328 328 327 327 326 325 326 327 326 324 324 324 324 323 324 323 323
328 327 329 329 329 329 329 328 327 326 326 326 326 326 326 325 324 324 324 326 326 326 328 328 328 328 327 328 327 325 326 325 326 325 323 323 323 324 322 324 322 323
328 328 329 328 329 328 327 327 327 327 326 325 325 325 325 324 323 324 324 325 325 325 326 326 327 328 328 327 325 325 325 324 324 325 324 323 323 323 326 324 323 323
327 327 327 328 328 328 327 327 326 325 325 325 325 324 324 324 323 323 322 323 325 325 325 325 325 326 327 325 324 324 324 324 324 325 325 322 322 323 325 326 325 325
326 326 327 328 327 327 326 326 325 324 324 324 323 323 323 323 321 322 322 322 323 323 323 325 325 325 326 327 326 324 323 325 324 325 324 322 321 322 323 326 326 325
326 326 327 326 326 326 325 325 324 324 324 322 322 322 322 322 321 320 320 321 320 321 322 323 324 323 324 326 326 325 324 324 324 324 322 322 322 322 324 326 325 324
325 325 325 325 324 324 324 324 324 323 323 322 322 322 322 319 319 318 319 320 321 321 322 322 322 322 322 324 325 325 325 325 325 324 323 323 324 324 326 326 324 323
323 324 324 324 323 324 323 323 323 323 322 322 321 321 319 318 318 318 320 320 321 320 321 321 322 321 321 321 323 323 323 325 325 325 323 322 323 323 328 325 324 323
322 322 323 323 323 323 323 323 322 322 321 321 321 318 317 317 318 318 320 320 319 319 319 317 317 318 318 319 319 321 321 320 322 323 321 321 321 323 325 324 324 324
322 321 322 323 323 323 323 323 322 321 320 320 319 317 317 317 317 317 316 315 314 314 313 312 311 310 311 313 316 318 319 319 318 319 320 319 320 324 324 323 324 324
322 323 323 323 324 324 323 322 322 321 320 319 318 317 317 316 316 317 315 315 313 311 310 308 307 306 305 307 313 317 317 317 317 316 316 317 320 320 321 322 321 321
322 322 323 323 324 323 322 321 321 320 319 317 317 317 318 316 317 317 314 312 311 309 307 306 304 302 301 301 305 313 318 317 316 317 316 315 316 317 319 320 319 320
322 320 321 322 322 322 321 321 320 318 317 316 317 316 314 316 316 315 313 309 307 305 303 302 300 300 298 297 298 305 314 318 317 316 315 315 315 315 314 316 316 315
320 320 321 320 320 320 320 321 319 317 316 315 314 314 316 316 316 313 311 308 305 303 300 299 297 297 294 292 294 296 309 314 316 316 315 314 314 314 312 311 310 311
319 320 320 320 320 320 319 319 316 315 314 314 314 315 315 314 312 310 308 305 302 300 298 297 295 294 292 293 293 293 298 309 314 315 316 315 314 315 313 310 309 312
320 320 319 319 319 319 319 319 317 317 316 316 315 314 312 310 308 306 303 301 299 297 295 295 294 293 292 293 293 293 293 305 317 316 315 315 314 316 315 314 314 314
319 319 317 317 318 318 318 318 317 316 315 314 313 312 309 307 305 302 301 299 297 296 294 294 293 293 292 292 293 294 294 303 316 315 316 316 316 318 318 317 315 312
313 314 314 314 315 314 315 314 314 313 312 311 310 309 307 305 302 301 300 299 297 295 294 293 293 292 291 292 293 295 299 304 314 317 317 317 318 319 318 316 311 306
305 307 307 307 307 308 308 308 310 311 310 309 309 308 307 305 303 301 299 297 296 295 294 292 292 291 291 293 294 296 300 308 312 316 315 312 310 311 314 312 305 300
303 304 304 304 305 305 305 305 305 306 306 307 306 306 306 305 302 301 300 298 297 295 293 293 293 292 291 293 295 297 301 307 308 310 309 304 302 301 302 303 301 299
302 303 302 303 303 303 303 304 304 304 304 304 304 303 303 303 303 303 302 300 298 296 295 293 293 293 292 293 294 296 299 302 302 304 304 302 299 298 297 298 300 302
302 302 302 303 303 303 304 303 303 303 304 305 304 304 303 303 302 302 302 302 300 298 298 294 293 294 292 292 293 294 297 298 299 301 301 301 300 299 297 295 294 296
301 302 302 302 302 303 304 304 304 304 304 304 304 304 303 303 303 302 301 300 300 298 296 294 293 293 293 292 293 293 294 297 297 298 298 299 302 301 298 296 295 294

ECMWFNIL_sfc_thetae_048.txt.gz
Theta_e
328 328 327 326 326 326 325 324 324 324 323 323 324 325 327 328 327 326 328 328 328 327 326 326 326 326 327 326 326 326 326 326 325 324 324 324 323 323 324 322 321 322
328 328 327 326 325 324 324 325 324 324 323 323 324 326 327 328 326 328 327 328 328 326 326 326 326 326 326 325 325 325 325 326 326 327 323 322 322 324 324 323 323 321
325 326 326 325 325 323 324 325 325 324 324 324 325 326 327 327 327 328 328 327 327 326 326 326 325 326 325 324 324 325 325 325 326 324 324 323 322 323 324 323 322 322
324 325 326 326 325 324 324 324 324 325 325 325 325 326 327 328 327 327 328 330 327 326 326 326 326 326 325 323 323 323 324 324 324 324 323 322 322 323 323 323 322 322
323 324 325 326 326 326 325 325 324 324 325 326 325 325 326 326 326 326 327 327 327 327 326 326 326 325 324 323 322 322 323 323 322 322 322 321 321 323 322 323 322 322
324 325 325 327 327 326 325 325 325 325 325 324 324 324 324 324 323 325 325 326 327 326 325 325 325 324 323 323 322 322 322 322 322 322 322 321 321 322 324 323 322 321
324 325 323 323 325 327 326 325 325 324 324 324 322 321 322 321 322 324 324 326 326 326 325 324 324 323 323 323 322 321 321 321 321 322 321 320 321 321 322 322 322 321
323 324 324 323 323 325 326 325 324 324 323 322 321 321 321 321 322 323 324 324 325 325 324 324 324 323 322 322 322 321 320 322 322 321 320 319 319 320 320 322 320 321
323 324 324 324 323 323 325 325 323 322 323 322 321 320 320 321 321 322 322 323 323 323 324 324 324 323 322 321 321 321 321 321 322 321 320 319 319 319 321 321 321 321
323 324 324 323 323 323 323 323 323 323 322 321 321 320 320 319 320 320 320 320 321 321 322 323 323 323 322 323 323 321 321 321 321 321 321 320 320 320 321 321 322 321
322 323 322 322 322 322 322 322 322 321 321 320 319 319 319 317 316 317 318 319 320 321 321 321 321 322 323 322 323 322 322 321 321 321 320 320 320 320 324 322 322 322
321 321 322 323 322 322 321 321 321 320 319 319 319 318 316 315 316 318 319 318 319 320 320 318 317 320 322 322 322 323 322 322 322 321 321 320 320 321 323 323 322 322
321 321 322 322 322 321 322 321 320 319 319 319 318 316 315 315 316 315 315 315 313 313 312 311 310 311 312 314 317 320 321 322 322 321 320 319 320 321 323 323 322 322
319 320 321 322 322 322 321 321 320 318 318 317 316 314 314 314 314 314 312 311 309 308 307 307 307 306 306 308 313 316 317 318 320 320 319 318 317 318 321 322 322 322
318 319 320 321 322 322 322 321 320 318 317 315 314 314 315 314 313 311 309 307 306 306 304 304 303 302 302 302 309 314 314 314 316 317 317 316 317 319 319 320 320 318
318 318 319 321 321 321 321 321 319 318 316 314 313 314 313 312 310 309 308 306 304 302 302 301 300 300 299 297 300 309 313 314 313 313 315 316 317 317 316 315 315 314
318 318 319 319 320 320 320 320 319 317 314 313 313 313 311 310 308 306 305 304 303 301 299 298 297 297 294 294 295 304 312 312 312 311 313 315 316 316 314 310 308 309
318 318 318 317 318 319 319 318 316 315 313 313 313 311 309 307 305 303 302 301 300 299 297 297 296 295 292 294 295 298 307 313 313 313 312 312 313 312 309 309 311 310
316 318 318 319 317 317 318 317 315 316 313 313 311 309 306 304 301 300 299 298 298 297 295 295 294 293 292 294 296 299 304 309 313 313 312 311 310 309 310 310 308 306
308 317 318 318 317 315 316 315 315 315 313 311 308 305 302 300 299 297 297 296 296 295 294 294 294 294 292 295 297 300 303 307 315 315 314 312 312 312 310 307 305 302
305 306 309 314 315 315 314 313 313 311 308 307 304 302 300 298 297 296 295 295 294 294 295 294 294 293 293 295 297 301 303 307 314 314 312 310 307 304 301 299 298 297
303 304 305 304 308 310 309 309 308 307 305 304 302 300 299 298 296 295 294 293 293 294 295 294 294 292 293 295 299 301 304 310 309 307 304 302 301 299 298 297 297 296
302 303 303 303 304 304 304 304 304 304 304 303 301 300 298 297 296 296 295 294 294 293 293 292 293 292 292 296 299 301 303 306 303 301 299 298 298 298 298 298 297 295
302 302 301 302 303 302 303 303 303 303 303 303 301 300 299 298 297 296 295 295 294 293 293 292 292 293 292 294 297 299 303 304 301 299 297 296 296 296 296 297 300 301
301 301 301 301 301 302 303 303 302 302 303 303 302 301 300 299 298 296 295 295 295 295 298 294 293 294 292 292 294 298 302 303 301 299 297 296 295 294 295 294 294 295
301 301 301 300 300 301 302 303 303 303 302 302 301 301 299 298 296 296 295 295 296 296 296 296 295 294 293 292 293 294 298 304 303 300 297 296 296 296 295 294 294 293

ECMWFNIL_sfc_thetae_051.txt.gz
Theta_e
327 326 326 327 326 327 328 328 328 327 327 328 328 328 327 327 325 326 326 326 326 325 325 325 325 325 325 325 325 325 324 324 324 323 324 323 322 323 323 321 320 321
325 327 327 326 324 324 326 328 327 327 326 326 327 326 326 325 324 326 325 326 326 326 325 325 325 325 325 325 325 325 325 325 324 325 323 323 322 322 323 322 321 319
324 323 324 324 324 324 324 325 325 325 324 324 324 324 325 325 324 324 325 326 326 326 325 325 324 324 324 324 325 325 325 325 325 324 323 323 322 322 323 322 320 320
324 323 323 323 323 323 323 323 322 323 321 321 322 324 326 326 324 324 324 328 325 325 324 323 323 323 324 324 324 324 324 326 327 324 323 321 321 322 322 322 320 320
323 323 322 323 324 324 323 323 323 322 322 322 323 323 325 325 324 324 324 325 325 324 323 323 323 323 324 324 324 322 323 326 326 324 323 321 320 321 321 322 320 320
324 324 323 324 323 323 324 324 323 322 323 322 323 324 324 325 325 324 324 324 324 323 322 322 323 322 323 323 322 322 323 324 325 325 323 321 320 320 322 321 321 320
322 323 322 322 323 323 323 323 324 323 323 324 323 323 324 324 324 325 325 324 324 323 322 322 322 321 322 321 321 322 323 324 324 324 322 319 322 321 322 321 321 320
321 322 322 322 322 322 322 322 323 322 322 322 322 323 323 324 323 324 324 324 323 322 322 322 322 321 320 320 320 321 322 324 323 323 321 319 321 322 322 323 320 320
321 321 322 321 321 321 322 322 323 323 323 321 322 321 321 323 322 323 324 324 323 322 321 320 321 321 320 320 320 321 322 323 323 322 320 320 320 321 323 322 319 319
321 321 321 321 321 321 321 321 322 322 322 321 321 320 320 320 321 322 323 323 323 322 320 319 319 320 319 320 320 320 321 321 321 320 319 319 320 320 321 321 320 319
321 321 320 321 321 321 321 321 321 322 322 321 320 319 319 319 319 321 322 322 322 322 321 320 320 320 320 319 319 320 320 320 320 320 319 319 319 320 322 320 320 320
321 320 319 320 320 321 321 321 321 321 321 321 320 319 317 318 319 319 321 321 321 321 321 320 320 320 321 320 320 319 319 319 320 320 319 319 319 319 321 320 320 320
320 320 320 319 320 320 320 321 321 320 321 320 320 319 317 316 316 317 318 319 319 319 319 318 318 319 319 319 319 319 319 319 318 318 318 318 318 319 320 320 321 321
319 319 319 319 319 320 320 321 321 320 320 320 319 317 315 315 316 316 314 314 313 313 309 310 311 312 313 316 318 319 318 318 318 318 318 317 317 317 319 320 321 320
318 320 319 319 319 320 320 320 320 320 320 319 317 315 314 314 315 313 311 309 307 306 305 305 307 307 307 312 316 317 317 317 318 318 317 317 316 316 316 317 317 316
316 317 318 319 319 319 319 320 319 319 318 318 316 314 313 313 311 310 310 308 306 303 302 302 301 301 302 301 307 316 316 318 317 317 317 316 315 315 312 311 311 310
311 316 317 318 319 319 318 318 318 317 317 316 313 312 312 311 310 308 306 306 305 303 300 299 298 298 296 295 297 303 314 314 315 315 315 315 315 315 311 308 308 308
308 313 317 316 316 317 317 317 316 315 314 313 312 311 310 308 307 305 303 302 301 300 298 297 297 296 292 295 296 300 306 312 312 313 313 313 314 312 309 308 307 307
306 310 315 316 316 317 317 316 314 313 311 311 310 309 306 305 303 302 300 299 299 298 296 296 295 295 292 295 297 300 302 308 310 310 311 310 310 309 308 306 305 304
304 305 306 308 315 316 316 313 312 311 309 307 306 305 302 300 299 298 297 297 297 296 295 296 295 295 292 296 298 298 301 305 310 310 309 309 309 307 305 304 303 304
303 303 304 305 305 311 313 312 311 307 305 304 302 301 299 297 296 295 296 296 295 295 296 295 295 292 293 298 297 299 301 304 309 306 302 300 298 298 298 298 298 299
302 302 303 303 303 304 307 309 307 305 302 301 299 298 298 296 295 295 294 294 294 295 294 294 294 292 295 298 297 299 301 306 303 300 298 297 296 296 296 295 295 295
301 302 302 302 302 302 301 302 302 301 301 300 298 297 297 296 294 294 294 294 294 294 293 293 294 293 293 295 296 297 300 302 300 299 297 297 296 296 296 296 295 294
300 301 301 301 301 301 301 301 301 301 300 300 297 296 295 295 295 295 295 296 295 294 294 294 294 293 292 293 294 295 299 300 299 297 296 295 294 294 295 296 299 300
299 300 301 301 301 301 301 300 300 300 300 299 298 297 296 296 296 296 296 296 296 296 298 295 293 294 292 292 292 293 298 299 298 296 294 293 293 293 293 293 293 295
299 299 299 300 300 300 301 300 300 299 298 298 297 297 296 296 296 296 295 295 296 296 296 296 294 293 293 292 293 293 295 301 299 297 295 294 294 294 293 293 293 293

ECMWFNIL_sfc_thetae_054.txt.gz
Theta_e
324 323 324 324 324 325 326 326 327 327 328 329 329 329 329 330 330 329 329 328 329 329 329 328 328 328 327 326 326 326 325 324 325 326 327 326 326 324 323 323 324 324
323 324 325 325 325 325 326 327 326 327 328 329 329 330 330 329 328 329 328 327 327 327 327 327 327 327 327 326 326 325 325 324 324 326 326 326 326 325 324 324 324 323
323 323 324 325 325 325 325 326 327 328 328 328 329 329 328 327 326 327 327 327 327 327 326 325 325 326 326 326 326 326 326 325 325 325 326 325 325 324 325 324 323 322
323 324 324 325 325 325 325 325 326 327 327 327 327 328 328 327 326 325 325 329 326 325 325 325 325 326 326 326 326 326 326 327 327 326 325 325 324 324 324 323 323 322
323 323 323 323 324 324 323 324 325 326 326 326 326 326 326 326 325 324 324 324 325 325 325 325 325 325 326 326 327 326 326 326 327 325 324 323 323 324 324 324 323 323
323 324 324 323 323 324 323 324 325 325 325 325 324 324 324 324 324 324 323 323 324 324 324 324 323 324 325 326 326 326 325 326 326 326 324 323 323 323 324 324 323 323
322 323 323 323 323 324 324 325 325 325 324 324 323 322 323 323 323 324 324 324 324 323 323 323 323 323 324 325 325 325 325 326 326 326 325 324 324 322 324 323 323 323
322 322 322 321 323 324 324 324 324 324 324 323 322 323 323 323 324 324 324 324 324 323 323 323 323 324 324 325 324 324 324 326 325 326 325 324 324 323 323 324 323 323
321 321 321 322 322 322 322 323 323 323 323 323 322 321 321 323 323 323 324 324 324 323 323 323 324 324 323 324 324 324 323 324 325 325 325 323 322 323 324 324 323 322
321 322 321 322 321 321 322 322 322 322 323 322 322 320 321 320 322 323 323 323 323 322 323 323 323 323 322 323 323 323 324 324 325 325 325 324 323 323 324 324 323 323
320 321 320 320 320 320 321 322 321 322 321 322 320 320 320 319 319 321 322 323 323 322 322 322 323 322 321 321 322 323 324 325 324 324 324 323 323 324 325 324 324 324
317 320 320 320 319 319 320 321 322 321 321 320 320 319 318 318 318 319 322 322 323 322 322 322 321 321 321 321 321 321 323 324 324 324 323 323 323 323 324 324 325 324
311 316 321 320 319 319 319 320 320 320 320 320 320 319 318 317 318 319 320 322 322 322 321 321 321 321 321 320 320 320 321 321 322 322 322 321 321 322 322 323 324 324
309 312 317 320 320 319 319 320 320 320 320 320 320 318 318 318 318 318 319 320 320 320 320 319 319 319 318 319 320 320 320 320 321 321 321 321 320 320 321 322 322 323
308 310 314 319 320 319 319 319 319 319 319 319 319 318 318 318 318 318 317 316 314 314 313 314 316 317 317 318 319 319 319 319 319 320 320 320 320 320 319 320 321 321
306 308 310 315 319 318 318 318 319 318 318 318 318 317 316 316 315 315 316 314 312 309 308 308 309 308 309 308 311 319 319 320 319 319 320 320 319 318 318 319 319 319
305 306 308 310 315 318 317 317 318 318 317 316 316 314 314 314 314 313 313 312 311 309 307 305 303 302 298 296 298 303 317 319 319 318 319 318 318 318 317 316 313 313
304 305 306 308 309 312 317 317 316 316 315 314 312 312 312 311 311 311 309 308 308 307 306 303 300 297 292 294 295 296 302 317 318 318 317 317 317 317 315 314 311 310
302 304 304 306 306 308 313 316 315 315 313 312 311 310 309 308 305 305 303 303 304 303 301 300 299 295 292 293 295 296 296 306 315 316 316 316 315 313 312 311 309 309
301 303 303 304 305 306 309 313 314 311 308 307 306 306 304 302 300 299 300 300 300 299 298 297 297 295 293 297 298 296 297 304 312 313 312 312 311 310 309 308 308 308
300 301 302 303 303 304 304 305 304 304 303 301 301 300 299 298 297 297 297 298 298 298 298 297 298 293 294 294 295 297 299 302 308 306 304 303 302 303 303 304 306 307
299 300 301 301 301 301 301 301 301 300 300 300 299 298 297 297 296 296 295 295 296 297 298 297 297 293 294 295 296 296 298 304 303 302 300 299 298 298 298 299 300 303
299 299 300 300 300 299 298 298 298 298 298 299 297 297 296 296 296 296 296 296 296 296 296 296 296 293 292 293 294 296 299 302 300 299 298 298 297 298 298 298 298 298
299 299 299 299 299 298 298 298 298 298 298 298 296 296 295 296 297 297 297 297 297 296 296 295 295 294 292 293 294 295 298 301 300 298 297 296 296 297 298 299 301 300
298 299 299 299 299 298 298 297 297 297 298 298 298 297 297 297 297 296 296 297 297 297 298 295 295 295 293 293 294 295 298 300 299 297 296 295 295 295 295 295 295 296
298 298 299 299 298 299 299 298 299 298 298 297 297 297 297 297 297 296 295 295 296 296 295 295 294 294 294 292 293 294 296 299 299 297 295 295 295 295 295 295 295 295

ECMWFNIL_sfc_thetae_057.txt.gz
Theta_e
329 330 329 328 327 328 329 329 330 330 331 331 331 331 332 333 334 333 332 333 333 333 335 335 332 331 330 331 332 332 333 333 334 333 332 332 331 331 329 329 331 331
328 329 328 327 327 327 329 330 330 330 330 331 332 332 333 334 334 334 332 333 332 333 334 334 332 331 331 332 333 333 333 333 332 333 332 331 331 331 329 330 328 330
328 328 328 328 327 327 328 329 328 329 330 331 332 332 332 333 332 331 332 332 331 332 333 332 332 332 333 333 333 333 332 332 331 332 331 331 332 331 330 331 330 330
327 328 329 328 329 328 329 328 328 328 329 330 331 332 332 332 332 331 331 330 330 331 332 332 332 332 332 331 331 330 330 332 332 332 330 331 331 331 331 331 330 330
326 328 328 329 329 328 328 327 327 328 329 330 331 331 332 331 331 331 331 330 331 331 332 332 332 331 330 328 328 328 329 331 332 330 329 329 330 331 331 330 329 328
325 327 328 328 328 328 328 327 328 328 329 330 329 331 331 331 330 330 330 331 331 332 332 333 331 331 330 330 329 329 330 330 331 330 328 328 329 330 330 331 330 329
321 325 328 328 328 328 328 329 329 330 329 330 330 330 330 330 330 330 330 331 331 331 332 331 330 330 331 330 329 329 329 330 330 329 328 329 329 329 329 330 330 330
319 324 326 327 328 328 327 327 328 328 329 329 328 330 330 329 329 330 331 331 331 332 332 331 330 329 329 329 328 328 328 329 330 329 328 328 329 328 328 329 330 329
317 320 324 326 326 327 326 327 328 329 330 328 328 329 330 330 330 331 331 331 331 332 332 331 331 329 328 328 328 328 328 329 330 329 329 328 328 328 328 329 328 328
313 316 319 323 325 325 326 327 328 329 329 327 329 330 329 330 331 331 331 331 331 331 331 330 330 329 328 328 328 329 328 328 328 329 329 329 328 328 328 328 328 328
310 312 314 316 321 326 326 326 327 326 325 326 328 329 329 330 331 331 331 330 330 330 330 330 329 328 328 328 328 329 328 328 328 329 329 329 329 329 328 329 329 328
308 310 311 314 317 322 324 324 325 325 325 326 328 328 328 329 329 330 330 331 331 332 332 331 330 329 328 327 327 328 328 329 329 329 330 329 329 329 329 329 329 329
307 308 311 313 316 320 323 323 324 325 326 327 328 328 328 327 327 328 330 331 333 333 332 332 331 330 329 329 328 327 327 328 328 328 328 329 329 328 328 329 329 329
307 308 310 311 315 318 322 323 324 325 326 327 328 328 327 327 327 327 329 330 333 334 334 333 332 331 331 329 328 328 328 328 327 327 327 327 327 327 328 328 328 327
306 308 309 310 312 315 318 321 323 325 325 326 326 327 327 327 327 328 327 328 331 332 332 332 332 332 331 330 329 327 328 327 327 326 326 325 325 326 327 327 327 327
306 307 307 308 309 310 313 318 321 323 324 325 326 326 327 326 326 326 326 327 328 330 331 331 331 332 323 314 318 329 329 328 328 327 326 326 325 325 326 327 327 327
305 305 306 306 307 308 310 315 319 321 322 324 325 325 324 324 324 324 325 327 327 328 327 328 328 325 306 303 305 311 327 330 329 328 328 327 326 325 324 325 327 328
303 304 304 304 305 305 307 308 313 317 318 320 321 321 321 321 323 323 323 324 325 325 325 322 320 301 297 299 300 302 311 330 330 329 328 328 327 326 326 326 326 327
303 303 303 303 303 304 304 304 305 305 306 308 309 312 315 314 315 316 316 318 320 321 319 317 314 294 293 294 296 297 298 313 330 329 328 328 328 328 328 327 326 326
302 302 302 302 302 302 302 302 301 301 302 302 303 304 304 305 307 308 309 310 312 314 314 313 313 298 293 293 294 294 294 304 328 329 329 329 328 328 328 327 327 327
301 301 301 302 302 302 301 301 300 300 300 300 300 300 300 300 301 302 304 305 306 309 311 310 307 293 293 294 294 293 293 301 326 327 328 328 328 328 327 327 327 326
301 301 301 301 301 301 300 300 300 299 299 300 300 300 300 301 301 302 301 302 303 305 307 307 304 292 292 293 293 294 296 319 324 324 323 322 321 321 322 324 324 324
301 301 301 301 301 300 300 300 300 299 299 300 299 298 299 299 299 300 301 301 301 301 301 302 302 295 292 295 294 296 306 320 319 318 317 315 314 314 315 315 317 320
302 301 301 301 301 300 300 300 301 301 300 300 298 298 297 298 299 299 299 299 298 299 298 299 300 297 292 294 296 298 307 314 314 314 313 311 310 310 311 311 308 304
302 302 301 301 301 301 301 300 300 300 301 301 300 299 298 299 299 298 298 298 298 297 297 297 297 297 292 292 294 296 305 311 309 309 309 309 308 306 306 306 305 301
302 302 302 301 301 301 302 301 302 301 301 301 300 300 299 299 299 298 297 297 298 297 297 296 296 296 294 291 292 293 295 306 307 306 305 305 306 305 304 305 304 303

ECMWFNIL_sfc_thetae_060.txt.gz
Theta_e
331 332 331 331 331 332 332 332 332 332 333 334 333 334 334 336 337 339 338 337 337 338 338 339 339 339 337 336 335 336 337 337 333 332 331 334 333 334 333 334 338 336
330 332 331 331 331 331 331 332 332 332 332 334 334 334 335 336 338 339 337 337 337 337 338 338 338 338 336 335 337 337 336 337 335 333 330 330 333 332 333 336 337 337
328 330 331 331 331 332 332 333 333 333 332 333 334 333 333 335 336 338 337 336 335 336 337 337 338 335 336 338 337 336 336 335 333 332 332 331 333 330 334 336 335 335
325 326 328 330 331 332 333 333 333 332 332 331 332 333 333 335 335 334 336 336 335 335 335 338 338 336 335 337 337 335 334 333 334 333 332 335 335 335 336 337 334 331
322 324 326 328 330 331 332 332 331 332 332 332 333 334 335 334 334 334 334 335 334 335 336 337 337 336 337 337 336 335 335 334 335 335 335 335 336 335 336 333 331 331
320 321 323 326 329 330 331 331 331 332 332 332 333 335 334 333 333 333 334 333 333 333 335 336 336 337 336 335 337 337 336 335 336 335 334 335 335 336 334 333 332 332
316 318 320 323 326 330 331 331 331 331 331 333 334 334 332 332 333 332 332 333 332 333 334 335 337 336 335 334 334 334 334 334 335 335 333 333 333 333 333 334 333 332
315 316 318 320 322 326 329 330 331 331 331 332 331 331 332 331 333 334 333 332 332 331 333 334 334 335 334 334 333 333 333 334 335 334 333 332 332 332 333 333 334 333
315 315 315 318 320 324 326 327 329 330 331 331 330 331 331 332 332 333 332 332 329 329 331 329 333 334 335 335 334 334 333 333 335 335 334 332 331 332 331 332 333 333
314 313 314 314 317 320 323 326 328 330 330 331 329 330 330 329 330 332 333 334 333 333 332 332 334 334 334 334 334 334 333 333 333 334 334 333 333 332 331 331 332 333
313 312 312 312 313 316 319 324 328 329 330 328 328 327 328 329 328 330 330 333 331 327 327 330 334 334 334 334 334 335 334 334 333 333 334 333 333 333 332 332 332 332
312 312 311 312 312 314 316 320 326 330 331 328 327 327 326 329 327 329 329 329 328 329 329 330 334 335 334 334 334 334 334 334 334 334 333 333 333 333 333 333 333 333
311 311 311 311 311 312 315 319 324 329 329 326 326 326 326 328 329 328 330 330 331 331 331 333 334 335 335 335 335 334 333 332 333 333 333 334 334 333 334 334 334 334
310 311 312 311 311 311 313 315 320 325 327 326 326 324 327 327 328 328 330 331 330 330 327 330 332 333 335 335 334 334 334 334 334 334 332 333 335 335 335 335 335 335
310 311 311 311 310 310 310 311 314 319 324 326 326 326 327 328 327 329 328 328 331 330 328 328 327 330 334 335 334 332 332 331 334 333 333 332 331 332 333 333 334 334
310 310 310 311 310 309 309 309 310 312 314 318 325 327 325 327 327 326 327 327 330 330 329 330 331 332 328 318 320 332 332 332 332 333 332 332 331 331 331 331 332 333
309 309 310 309 309 309 309 308 308 309 310 310 311 314 318 324 327 325 326 327 330 330 330 330 332 332 309 308 309 311 328 334 333 331 333 332 331 330 329 330 332 332
309 309 309 309 309 308 308 307 307 306 306 307 308 309 311 313 314 316 319 322 327 327 328 328 330 298 300 303 304 304 309 333 334 333 332 331 331 330 330 330 331 332
308 308 308 308 308 307 307 307 306 305 305 305 305 306 308 308 309 311 312 315 317 320 323 325 321 294 293 293 296 297 298 309 332 333 332 332 333 332 332 331 331 331
308 307 307 308 308 307 307 306 305 304 304 305 305 305 305 305 306 307 308 309 311 313 318 321 315 296 293 292 293 293 295 299 329 332 332 332 333 333 333 333 332 331
307 307 307 307 307 307 307 306 305 304 303 304 304 303 304 304 303 304 305 306 306 306 310 316 310 293 292 292 293 292 293 295 323 330 331 332 333 334 334 334 333 333
306 306 306 306 306 306 306 305 305 304 303 303 303 303 304 304 304 304 304 304 304 304 305 306 307 294 292 292 292 293 292 308 321 328 329 330 330 333 333 334 333 333
306 306 305 306 306 306 305 305 304 304 303 303 302 302 301 302 302 303 303 303 302 301 301 303 303 297 292 291 291 292 295 313 320 326 327 328 329 329 329 332 333 332
305 305 305 305 305 305 304 305 305 305 304 304 303 302 301 300 301 301 302 303 302 301 300 301 301 297 292 291 292 291 296 312 320 325 325 326 326 327 328 328 317 303
305 305 304 304 304 304 304 304 305 305 305 305 304 304 303 302 301 300 300 301 301 301 300 300 300 299 293 291 291 292 300 310 316 322 323 323 323 322 323 321 317 308
305 305 304 303 303 304 304 304 305 305 305 305 304 304 303 303 302 302 300 299 300 300 301 300 299 299 296 290 291 292 293 305 310 314 317 317 318 318 318 316 313 310

ECMWFNIL_sfc_thetae_063.txt.gz
Theta_e
329 330 330 331 332 333 332 333 334 335 335 335 336 337 336 338 337 338 340 339 339 338 338 339 338 337 337 337 338 337 335 335 334 334 334 334 334 331 332 332 331 332
326 326 327 329 330 333 334 335 334 334 334 336 336 337 337 338 338 336 338 340 338 338 339 339 335 336 337 335 338 338 336 337 335 338 336 335 335 333 333 331 331 333
326 326 327 326 327 329 332 335 335 335 335 335 337 337 338 339 336 332 335 338 336 334 334 336 336 338 338 339 338 334 336 336 336 336 334 333 333 335 336 334 330 334
323 325 326 327 328 328 330 333 334 335 335 335 335 335 336 338 337 333 332 336 334 335 334 335 335 337 335 335 335 336 336 337 337 336 335 334 335 334 335 336 334 335
322 323 325 325 326 326 327 329 332 333 334 334 335 336 336 335 335 334 332 331 334 334 333 332 336 336 335 335 337 336 335 337 338 336 335 335 336 334 333 334 333 330
321 321 322 322 323 324 325 327 329 332 333 334 334 334 334 335 334 333 332 331 332 335 332 332 332 335 335 333 334 334 332 333 333 334 334 334 336 336 334 334 332 331
318 320 320 321 321 322 324 327 328 330 331 333 334 333 333 332 334 333 332 333 332 331 330 331 331 333 333 333 331 332 330 335 335 335 333 334 334 333 333 333 331 331
317 318 319 319 319 320 321 322 323 326 329 331 333 333 334 333 331 331 331 329 329 330 330 333 335 333 332 332 331 330 328 332 333 334 332 332 332 331 331 331 333 333
316 317 317 318 317 318 318 319 321 323 327 329 331 332 333 332 332 330 329 329 330 330 329 330 330 331 331 328 329 329 328 334 336 335 333 332 331 331 331 332 334 334
315 316 316 316 315 316 316 317 319 321 324 327 330 332 330 331 330 330 329 330 328 329 329 329 330 332 332 330 329 329 332 332 333 334 332 332 331 331 331 331 331 332
315 315 315 315 315 315 315 315 315 317 320 322 327 330 330 330 330 329 328 327 327 329 329 327 328 329 330 329 331 329 329 330 332 332 333 332 333 332 332 331 331 330
314 314 314 314 314 314 313 313 313 315 317 319 323 327 328 327 328 329 328 328 328 328 329 328 330 330 329 328 330 330 329 330 334 332 333 333 333 333 332 333 333 332
313 313 313 313 313 313 314 312 311 312 314 316 319 320 324 326 327 326 327 329 331 331 329 329 331 331 331 330 328 331 331 330 332 332 333 332 333 333 332 332 332 332
313 313 314 313 313 313 313 312 312 310 311 313 315 316 318 317 318 324 326 329 328 328 329 330 330 329 328 328 329 330 329 329 331 328 331 333 334 333 334 333 333 333
313 313 313 313 312 312 312 311 310 309 309 310 311 312 314 315 315 316 319 324 327 328 328 329 328 327 329 328 327 328 328 331 330 332 334 332 332 333 333 331 332 333
312 312 312 312 312 311 311 311 310 309 308 308 308 309 310 311 312 314 315 317 320 325 327 328 323 320 306 300 303 315 319 323 328 333 330 333 333 333 332 332 333 335
310 311 311 311 311 311 311 310 309 309 308 307 307 308 308 309 310 310 311 312 313 318 322 312 305 301 295 293 293 296 308 319 324 328 330 331 331 333 332 332 334 333
309 309 309 310 310 309 309 309 309 309 307 306 306 306 307 308 307 308 309 309 310 312 316 310 304 295 293 293 293 293 297 308 320 326 327 330 332 331 331 331 331 332
308 308 308 308 309 309 309 309 308 307 307 306 305 306 305 305 305 306 306 308 307 307 309 311 303 294 292 292 292 292 293 299 315 325 329 328 329 331 329 330 331 331
307 307 307 307 308 308 308 308 307 306 307 307 307 306 303 303 304 304 304 304 305 305 306 309 302 295 292 292 292 292 292 295 311 320 327 329 329 329 330 330 332 331
306 306 306 306 307 307 307 307 306 306 306 306 306 306 304 302 302 302 302 302 303 303 303 305 303 294 292 291 291 291 291 296 312 319 326 329 330 330 327 330 331 331
306 306 305 306 306 306 305 305 305 306 305 305 306 306 306 305 304 303 301 301 302 301 301 300 302 294 292 292 291 291 291 308 316 319 323 327 328 330 329 328 328 330
305 305 305 305 305 304 304 304 305 305 305 306 305 305 305 304 304 304 303 301 301 301 299 299 299 296 292 291 291 291 294 305 313 318 321 324 327 327 329 328 323 324
305 305 305 305 305 304 303 304 305 305 305 305 304 304 304 304 304 304 304 303 301 300 300 299 298 298 293 291 291 291 293 302 310 315 317 321 325 328 328 327 312 303
305 305 304 304 304 304 304 304 304 304 304 305 304 304 304 305 304 304 304 303 303 301 301 298 298 297 293 291 291 291 293 299 308 312 313 315 321 324 327 326 317 306
305 304 304 304 304 304 305 304 305 304 304 304 304 303 303 303 303 303 303 303 303 302 301 300 297 297 295 291 291 291 291 297 308 310 310 309 310 310 319 314 311 309

ECMWFNIL_sfc_thetae_066.txt.gz
Theta_e
325 325 325 326 326 327 327 327 329 331 333 333 333 333 334 336 337 337 337 337 336 334 334 334 333 333 334 334 333 332 332 333 333 333 332 331 331 331 330 330 330 328
322 323 324 325 326 326 326 327 327 328 331 333 334 334 335 335 336 336 335 334 336 335 334 334 334 333 334 333 332 332 334 331 331 333 331 331 330 331 330 331 330 329
320 321 321 322 322 323 324 325 326 328 329 331 334 335 334 335 335 336 335 335 334 335 334 333 331 330 331 331 332 331 331 331 330 331 331 330 330 329 331 331 331 330
318 319 320 321 321 321 321 322 324 326 327 328 330 333 333 334 334 334 334 335 334 333 332 332 333 333 332 330 330 331 331 330 331 332 331 331 330 330 331 332 332 331
317 317 318 319 320 320 321 320 321 321 322 324 327 329 330 332 332 332 333 333 333 333 332 332 332 332 332 330 329 329 329 330 331 331 329 328 328 329 330 330 330 330
317 316 317 317 318 318 318 317 318 319 320 322 324 326 328 330 331 331 331 331 331 331 330 331 330 331 330 328 329 329 328 328 330 330 329 328 329 330 328 328 328 329
316 317 316 317 317 317 317 316 317 317 318 320 322 323 325 327 330 330 330 330 330 329 329 329 329 328 330 330 329 329 329 329 329 327 327 327 328 328 329 328 328 329
316 316 316 316 316 316 316 315 315 315 317 318 319 321 323 326 329 329 329 329 328 327 328 328 328 329 330 330 329 328 327 328 327 327 329 327 328 327 328 328 328 329
315 315 315 315 314 315 314 314 314 314 313 315 316 318 321 322 324 324 325 325 325 326 327 327 327 328 329 329 328 328 327 328 327 326 327 326 326 327 328 327 326 327
314 314 315 314 313 313 313 313 313 312 312 312 314 315 317 319 319 318 319 321 322 325 326 327 327 328 327 328 328 327 326 327 328 327 326 326 326 327 327 327 327 328
313 313 313 313 312 312 313 313 312 311 310 310 311 312 313 314 315 317 317 317 318 323 326 327 327 327 326 327 328 329 328 327 327 327 327 327 327 328 327 326 327 326
312 312 312 312 312 312 312 312 311 310 309 309 310 309 311 312 312 313 315 314 316 319 327 327 327 326 323 325 327 327 327 327 326 325 325 326 327 328 328 328 329 327
311 311 311 311 311 311 311 311 310 310 309 308 308 308 309 309 309 310 312 313 313 317 312 309 307 305 305 305 312 322 326 326 325 326 328 328 327 327 328 329 328 329
310 310 310 310 311 310 310 310 310 309 309 308 308 306 307 307 307 308 309 310 310 312 310 307 304 302 301 300 302 306 314 321 324 325 325 325 326 326 327 327 327 328
309 309 310 309 309 309 309 309 308 309 309 308 307 306 306 306 306 307 306 306 307 309 310 305 301 300 299 298 297 299 306 313 318 322 325 326 326 326 326 327 327 327
308 308 308 308 308 308 308 308 307 308 307 307 307 306 305 305 304 305 305 305 305 305 307 305 301 299 298 295 295 296 299 304 310 316 320 325 325 325 326 328 328 327
307 307 307 307 307 307 307 306 307 307 306 306 307 306 305 305 304 303 303 303 304 303 303 305 301 298 294 292 292 293 296 299 304 311 319 323 325 325 324 325 326 327
306 306 306 306 306 305 306 306 306 306 306 306 306 306 306 306 304 303 302 302 303 302 302 302 300 296 292 292 292 292 294 296 301 309 316 320 325 326 326 325 326 326
305 305 305 305 305 305 305 305 305 305 305 305 305 306 306 305 304 303 302 302 302 301 300 301 300 295 292 292 292 291 292 294 299 306 313 318 322 326 327 326 325 324
304 304 304 304 304 304 304 304 304 304 304 305 305 305 305 304 304 304 303 302 301 300 300 300 299 294 292 292 291 291 291 293 303 309 314 317 321 324 326 325 324 323
303 303 303 304 304 304 304 303 303 304 304 304 304 303 303 303 303 303 303 303 302 301 300 299 298 293 292 292 291 291 291 295 304 308 313 317 320 323 325 322 322 325
303 303 303 303 303 303 303 303 303 303 303 303 303 303 303 303 303 304 303 302 302 301 299 298 298 293 292 292 292 291 292 299 303 308 312 314 316 319 323 320 314 314
302 302 302 302 302 301 301 302 302 302 303 304 302 302 301 301 301 301 302 302 302 301 299 298 298 295 293 292 292 291 293 298 303 308 311 312 311 313 320 310 307 305
302 302 301 301 301 300 300 301 302 302 302 304 302 301 300 301 301 301 301 301 301 300 300 298 298 297 293 293 292 292 293 297 301 303 305 309 309 309 315 310 306 303
302 302 302 301 300 301 301 300 300 301 302 302 302 302 301 301 301 300 300 300 300 299 300 299 297 297 294 292 292 292 293 296 296 298 300 304 305 305 306 303 301 302
302 302 302 301 300 301 301 300 300 300 300 300 301 301 301 301 300 300 299 299 299 299 298 298 297 296 296 293 293 292 292 294 295 294 295 299 299 299 299 298 297 297

ECMWFNIL_sfc_thetae_069.txt.gz
Theta_e
318 318 319 320 320 320 319 318 319 321 322 323 323 324 326 329 330 330 331 331 331 330 331 330 330 329 329 329 329 329 329 328 328 329 328 327 327 327 327 327 327 326
316 318 319 319 319 319 319 319 319 319 319 320 321 322 325 326 327 329 330 330 331 330 330 330 330 330 329 329 329 327 327 327 327 329 329 328 328 327 327 328 327 327
315 316 317 316 317 317 318 319 318 317 317 318 320 321 322 325 325 327 329 329 329 330 329 329 329 329 328 328 329 328 327 327 326 328 327 326 327 328 328 328 328 327
315 315 315 316 316 316 317 316 316 315 316 317 318 320 321 322 323 325 328 330 328 328 328 328 328 328 328 328 328 326 326 326 327 328 327 327 326 326 327 328 328 328
314 314 314 315 316 316 315 314 314 313 313 315 317 318 319 320 321 322 322 323 324 324 325 325 326 326 327 327 327 327 327 326 327 328 326 326 327 326 327 327 327 326
313 314 314 314 314 314 313 313 314 312 311 312 314 316 317 319 318 318 317 317 318 319 320 322 323 325 325 326 326 326 326 326 326 327 326 326 326 326 327 326 326 326
310 312 312 312 312 312 312 311 311 311 310 311 312 313 314 315 315 315 315 315 315 316 317 319 322 325 326 325 326 326 326 327 327 326 326 326 325 326 327 326 326 326
310 311 311 310 310 311 311 310 310 309 309 309 309 310 312 312 312 313 314 314 313 309 308 306 306 310 313 320 325 326 326 326 325 326 325 324 324 324 325 327 327 325
309 309 309 308 308 309 309 310 309 309 309 307 307 308 310 310 310 311 312 312 312 307 306 304 304 304 305 306 309 315 322 325 325 325 324 323 324 324 324 325 324 324
308 308 308 307 307 307 307 308 308 308 309 307 306 307 307 308 309 309 309 309 311 305 303 301 301 300 301 301 303 306 310 321 325 325 325 323 323 324 325 324 324 324
306 306 306 306 307 307 306 307 307 308 308 306 306 305 305 305 307 308 307 306 308 304 301 299 299 299 298 298 299 301 303 309 318 324 324 324 324 324 325 325 324 323
305 305 305 305 306 306 306 306 307 307 306 305 305 304 304 304 304 305 305 304 304 306 301 299 298 297 296 296 296 298 300 304 309 315 322 323 323 324 325 325 324 325
304 304 305 305 306 306 306 306 306 306 306 305 305 304 304 303 304 303 304 303 303 304 302 299 297 297 296 295 295 296 297 299 303 307 313 320 325 325 325 326 326 325
304 304 304 305 306 306 306 306 306 306 306 305 305 303 303 303 303 302 303 303 302 302 302 300 297 296 295 295 294 295 296 297 300 303 308 313 321 324 324 324 325 325
303 304 304 304 304 304 305 305 305 305 305 305 304 304 304 303 302 302 302 301 302 301 301 299 297 296 296 295 294 294 295 296 298 300 304 309 316 322 324 324 324 325
303 303 302 302 302 302 303 303 303 304 304 304 304 303 303 303 302 302 301 300 300 300 300 299 297 296 297 296 295 294 294 295 297 299 303 308 314 319 322 323 324 324
301 301 301 301 301 301 301 302 302 302 302 302 302 302 302 303 302 301 300 300 299 299 298 298 297 296 294 293 293 294 296 296 296 299 304 309 313 317 320 321 322 324
300 300 300 300 300 300 301 301 301 301 301 300 300 300 301 302 302 302 301 300 299 299 298 298 296 296 292 293 293 292 295 297 299 302 307 310 314 317 320 321 321 320
300 299 299 299 299 300 300 300 300 299 299 299 299 300 299 300 300 301 300 300 299 298 298 297 296 294 292 293 293 292 293 296 302 305 308 312 314 315 319 322 319 318
299 299 298 298 298 299 299 299 298 298 298 299 299 298 298 298 299 299 299 299 298 298 297 297 296 294 292 293 292 292 292 295 300 303 308 311 310 312 307 307 308 311
298 298 298 297 297 297 297 297 297 297 298 299 298 297 297 297 297 298 299 298 297 297 297 296 296 293 292 292 292 292 293 295 297 299 303 306 307 308 306 305 304 303
297 297 296 296 296 296 296 295 296 296 296 298 298 296 297 297 297 298 298 297 297 297 295 295 295 293 292 292 292 292 294 296 296 297 299 300 301 303 302 301 302 301
297 296 296 296 296 295 294 294 294 295 295 297 296 296 295 295 296 297 298 297 297 296 295 294 294 294 292 292 292 292 294 295 295 295 296 296 297 299 299 299 299 299
297 296 295 295 295 294 294 294 294 294 294 295 295 295 295 295 296 297 297 297 296 296 297 295 294 295 293 292 292 292 294 294 295 294 295 295 295 297 297 297 298 299
296 296 295 294 294 294 294 293 293 294 294 294 294 294 294 294 296 296 296 296 296 296 298 296 295 295 293 292 292 292 293 294 294 294 294 294 294 294 295 295 296 297
296 296 295 294 293 294 294 293 294 293 293 293 293 293 293 293 293 295 297 297 297 295 295 295 295 294 294 292 292 292 292 293 293 293 292 293 293 293 293 293 294 294

ECMWFNIL_sfc_thetae_072.txt.gz
Theta_e
315 316 316 315 316 316 315 315 314 313 313 315 316 317 318 320 322 322 322 323 324 324 324 324 325 326 327 327 327 328 328 329 329 329 329 328 327 327 326 326 327 327
313 314 315 314 315 315 315 315 313 311 311 312 314 315 317 319 320 318 317 318 318 317 318 320 321 323 324 326 326 326 327 328 327 329 327 326 326 326 326 326 326 326
311 312 313 312 313 313 313 313 311 310 311 312 313 314 315 318 316 316 316 315 312 311 310 311 314 318 321 324 326 326 326 327 326 327 327 326 326 326 326 327 326 325
310 311 312 312 312 311 311 310 309 309 310 310 311 313 314 315 314 315 315 312 308 307 307 308 308 309 310 314 319 324 326 326 326 327 326 327 326 326 325 325 325 325
309 309 310 311 312 310 309 308 307 308 308 309 310 312 312 312 312 313 314 309 307 306 306 306 306 305 307 308 310 314 319 323 326 327 326 326 326 326 326 325 325 325
308 308 309 310 310 309 308 307 307 306 306 307 308 309 310 311 310 311 312 306 304 303 303 304 303 303 303 305 305 307 309 311 316 323 326 325 325 326 326 326 325 324
307 307 306 308 308 309 308 307 307 307 306 306 306 306 308 308 308 308 309 307 303 302 301 301 300 300 300 301 302 303 303 307 309 313 320 325 325 325 326 326 325 324
306 306 306 305 305 306 307 307 306 306 306 305 304 305 306 306 306 307 306 308 303 301 300 299 299 299 298 298 298 298 299 302 305 308 312 320 324 324 325 326 325 323
304 304 305 305 305 305 305 306 306 305 305 304 304 304 305 305 305 305 303 305 304 301 299 298 298 298 298 297 296 297 297 299 301 303 307 311 318 323 323 324 323 323
303 304 304 305 305 305 305 305 305 304 304 303 303 303 303 304 304 304 303 303 302 300 298 297 297 297 297 296 296 296 296 297 298 301 304 308 311 317 323 323 323 322
302 303 304 305 305 305 305 305 305 304 304 303 302 302 302 302 302 303 302 301 301 299 298 297 297 297 296 296 296 296 296 296 297 299 302 305 308 312 319 323 323 322
301 302 302 302 303 303 304 304 305 305 304 304 303 301 301 301 300 300 301 300 300 299 298 297 297 296 296 295 295 295 296 296 297 298 300 303 306 309 314 322 323 323
301 301 301 301 301 301 302 302 302 302 303 303 304 303 302 300 300 299 300 299 299 298 297 297 296 296 296 295 295 295 296 296 297 298 300 302 305 309 313 319 323 324
300 300 300 301 301 301 301 301 301 300 300 301 303 303 302 301 300 299 299 299 299 298 297 297 296 295 295 294 294 295 296 296 298 299 300 302 306 310 314 317 321 323
300 301 300 300 300 300 300 300 300 299 299 299 300 301 302 301 300 299 298 298 298 298 297 296 295 295 295 294 294 295 296 297 299 300 302 303 307 311 314 317 320 322
299 300 299 299 299 299 299 299 299 299 298 298 298 299 299 300 298 298 298 297 296 296 296 295 295 295 297 295 295 295 295 297 299 301 303 306 310 310 308 309 311 316
297 297 297 297 297 297 297 298 298 298 297 297 297 297 298 298 298 296 296 296 296 295 295 295 294 295 294 292 292 294 296 296 298 300 302 304 305 304 304 304 305 305
296 296 295 295 296 295 295 296 297 297 296 296 296 296 297 297 297 296 296 295 295 295 294 295 294 295 292 293 292 292 295 296 297 298 300 300 301 300 301 301 301 301
295 295 294 294 294 294 294 294 295 296 295 295 295 296 295 295 295 295 295 295 295 294 294 294 294 294 292 292 292 292 292 295 296 297 297 298 298 298 298 298 299 300
295 294 294 293 293 293 293 293 293 293 294 294 295 294 294 294 295 294 295 294 295 294 293 294 294 294 292 292 292 292 292 294 295 296 296 296 297 297 297 297 298 298
294 294 293 293 292 292 292 292 292 292 293 294 293 293 293 293 294 293 295 295 294 294 293 293 294 293 292 292 292 292 292 294 295 296 295 295 296 297 296 296 297 297
293 292 292 291 291 291 291 291 291 291 291 292 293 291 292 292 294 294 294 293 294 293 293 292 293 293 292 292 291 291 293 294 294 295 295 294 295 295 295 296 296 297
293 293 292 291 291 291 290 290 290 291 291 292 290 290 290 292 293 293 293 293 293 293 292 292 292 293 292 291 291 291 293 292 293 293 294 294 293 294 295 295 295 296
293 292 292 292 290 290 290 290 290 290 290 292 290 289 289 290 292 291 291 292 291 291 293 291 291 293 292 291 291 291 293 292 292 292 292 293 293 294 294 294 295 297
292 292 292 291 291 290 290 290 290 290 290 290 290 289 289 289 293 290 290 290 290 291 294 291 291 292 292 291 291 291 292 292 292 291 291 292 293 293 293 293 293 294
292 294 292 292 291 290 291 291 291 289 289 289 289 289 289 288 289 291 289 289 289 289 290 289 290 291 292 291 291 291 291 292 292 291 290 291 292 293 291 291 292 292

ECMWFNIL_sfc_thetae_075.txt.gz
Theta_e
313 313 312 312 312 313 311 310 310 310 311 312 312 313 315 316 316 314 309 309 310 309 308 308 308 308 308 311 313 316 322 325 326 327 327 328 327 327 326 327 326 326
310 311 312 309 308 309 309 309 308 308 309 311 311 312 313 314 314 312 307 306 306 307 307 307 306 305 305 307 307 311 316 317 319 325 325 326 326 326 325 325 325 326
308 309 309 307 306 306 307 307 307 307 308 308 310 311 311 313 312 311 306 305 304 304 304 305 304 303 303 303 304 307 308 310 313 314 316 320 324 325 326 326 326 326
307 308 308 308 307 306 306 305 304 305 305 305 306 309 310 310 310 310 306 305 302 302 302 302 301 301 301 301 302 303 304 306 308 309 311 314 319 323 325 326 326 325
305 306 307 308 307 307 305 304 304 304 304 305 305 306 306 307 307 307 307 304 302 301 300 299 300 299 300 299 299 301 302 302 303 305 307 309 313 317 322 325 325 325
304 305 306 307 307 306 304 303 303 303 303 303 304 305 305 305 304 304 305 304 301 300 299 298 298 298 298 298 298 298 298 299 300 301 303 304 308 312 316 320 323 324
303 303 303 305 305 306 304 303 303 303 302 303 303 302 303 304 303 303 303 302 300 299 298 298 297 297 297 297 297 296 297 297 298 299 299 301 304 307 311 314 317 321
303 303 303 303 303 303 304 303 302 302 302 301 300 301 301 301 301 302 302 301 299 298 297 297 297 297 297 296 295 295 296 297 297 297 298 299 302 303 307 310 312 315
303 304 304 303 303 303 303 303 302 302 302 300 300 300 300 300 300 301 301 300 298 297 296 296 296 296 296 295 295 295 295 296 297 297 298 299 300 302 304 308 310 312
301 302 302 302 302 303 302 302 302 302 302 300 300 300 299 299 300 300 299 298 297 296 296 295 295 295 295 295 295 295 295 296 297 298 299 299 301 302 304 307 310 312
299 300 300 300 300 300 300 300 301 302 303 301 300 299 299 298 299 299 298 297 296 296 295 295 295 295 294 294 295 295 296 296 297 298 299 300 302 303 307 308 311 313
299 299 299 299 299 298 298 299 299 299 300 301 301 299 298 298 297 297 298 296 296 295 295 295 294 295 294 294 294 295 295 296 298 299 301 302 304 305 307 310 309 308
298 298 298 298 299 298 298 298 298 298 298 299 300 298 297 297 297 296 297 296 296 295 295 295 294 294 294 294 294 294 295 296 297 298 300 302 304 305 304 304 306 306
298 298 298 299 299 298 298 297 297 297 297 298 299 297 296 296 295 295 295 296 295 295 295 295 294 294 294 294 293 294 294 295 296 298 299 300 301 301 303 303 303 304
296 297 297 297 297 297 297 296 296 296 296 296 296 297 298 296 295 295 294 294 294 294 294 294 294 294 294 294 293 293 294 295 296 297 298 298 299 299 300 300 300 301
294 295 294 294 295 295 296 296 295 296 296 295 295 295 295 297 295 295 294 294 293 293 294 294 294 294 296 295 295 294 294 294 295 296 296 297 297 297 297 298 298 299
293 293 293 293 293 293 294 295 295 295 294 294 294 294 294 295 294 294 294 294 293 293 293 293 293 294 293 292 292 293 294 294 294 294 295 295 296 296 296 296 297 298
292 292 292 292 292 292 292 292 293 294 293 293 293 293 294 294 293 293 293 293 293 293 292 293 293 295 291 292 292 292 294 294 293 294 294 294 295 295 295 296 295 296
291 291 291 291 291 291 291 291 291 292 292 292 291 293 292 292 292 292 292 292 293 292 292 292 292 294 291 292 291 291 292 293 293 293 294 294 294 294 294 294 294 295
291 291 291 290 290 290 290 290 290 290 290 290 291 291 291 291 291 290 291 291 291 291 291 291 291 293 291 291 291 291 291 292 292 293 293 294 294 294 294 294 294 294
291 290 290 290 290 290 290 289 289 289 289 290 289 289 289 289 289 289 290 290 289 289 290 290 291 292 291 291 291 291 291 293 292 292 293 293 294 294 294 293 293 294
290 289 288 288 289 289 288 288 288 287 288 289 289 287 289 289 289 289 288 288 288 288 289 288 290 291 291 291 291 291 292 292 291 291 292 292 293 294 294 294 293 294
290 289 289 288 288 287 287 287 287 288 288 290 287 287 287 288 289 288 288 287 288 288 288 288 288 291 291 291 291 291 292 291 291 291 291 291 292 293 293 293 293 294
290 289 289 288 287 287 287 287 287 287 288 289 286 286 287 287 289 288 288 288 288 287 290 288 288 291 291 291 291 291 292 291 291 291 290 291 291 292 292 292 292 295
289 288 288 287 287 287 287 287 287 287 287 287 287 286 287 286 290 287 287 287 287 288 292 289 288 291 291 290 291 291 292 291 291 291 290 289 290 290 291 291 291 292
290 291 289 288 287 287 287 288 289 286 287 287 286 287 286 286 286 287 286 286 287 287 288 287 288 290 292 291 291 291 291 292 291 290 289 289 289 290 289 289 290 290

ECMWFNIL_sfc_thetae_078.txt.gz
Theta_e
308 308 307 306 306 307 306 306 307 307 308 309 309 310 311 311 308 306 305 304 304 303 302 303 303 303 303 303 303 304 307 307 309 311 312 313 315 317 319 322 324 325
307 308 308 306 305 306 306 306 306 306 306 307 308 309 310 311 310 307 305 303 303 302 301 301 301 301 300 301 301 301 303 304 305 307 306 308 311 313 315 318 320 323
306 306 305 304 304 304 304 305 305 305 305 305 306 307 307 308 307 307 304 303 301 301 300 300 300 300 299 299 299 299 300 300 301 302 303 304 306 308 310 313 316 318
305 305 305 304 304 303 303 303 303 303 303 303 304 306 306 305 305 304 303 302 300 299 299 299 299 298 298 298 298 298 299 299 299 300 300 301 303 304 306 309 312 313
304 305 305 304 304 303 303 301 301 301 301 301 302 303 303 303 303 301 300 299 299 298 298 297 297 297 298 297 297 297 298 298 299 299 299 300 302 304 305 307 308 309
303 304 305 304 303 302 301 301 301 300 300 300 300 301 301 302 301 300 299 298 298 297 297 297 296 297 297 296 297 297 297 298 299 299 299 300 301 303 305 306 307 308
302 302 302 303 303 303 301 301 301 301 300 300 300 299 300 300 299 299 298 298 297 297 296 296 296 296 296 296 296 296 297 298 298 299 299 300 301 302 304 305 306 307
301 302 302 302 302 302 302 301 301 300 300 299 298 299 299 299 299 298 298 297 297 296 296 296 295 295 296 295 295 295 296 297 298 298 299 300 301 302 303 305 307 307
300 300 300 300 300 300 300 301 301 301 301 299 298 298 299 299 298 298 297 297 296 296 295 295 295 295 295 295 294 294 295 296 297 298 299 300 301 302 303 305 304 305
298 298 298 298 298 298 298 299 300 300 301 298 298 298 297 298 298 298 297 296 296 295 295 295 294 295 295 294 294 294 295 295 296 297 298 300 301 301 302 303 303 303
298 298 298 297 297 297 297 298 298 299 300 298 297 297 297 297 297 297 296 296 295 295 295 294 294 295 294 294 294 295 295 295 296 296 298 298 300 300 302 301 301 301
298 298 297 297 298 297 297 297 297 297 298 298 298 296 296 296 296 296 297 295 295 295 295 294 294 295 294 294 293 294 294 295 295 296 297 297 298 298 299 300 299 299
297 297 297 297 297 296 297 296 296 296 297 297 298 296 296 295 295 295 296 295 295 295 294 295 294 294 294 294 293 294 294 294 294 295 296 296 297 297 298 298 298 298
296 296 297 297 297 296 296 296 296 296 296 296 297 296 296 295 295 295 295 295 295 294 295 295 294 294 294 294 293 293 293 294 294 294 295 295 296 296 297 297 297 297
295 295 295 295 296 296 295 295 295 295 295 295 295 295 296 296 295 295 294 294 294 294 294 294 294 294 294 293 293 293 293 293 293 294 294 295 295 295 295 296 296 296
293 294 293 293 293 293 294 294 294 294 293 293 293 293 293 295 293 293 293 293 293 293 293 293 293 294 295 294 294 293 293 293 293 293 294 294 294 294 295 295 295 295
292 292 292 291 292 292 292 292 292 292 292 292 292 292 292 292 292 291 291 292 292 291 292 293 293 294 293 291 292 293 294 293 292 292 294 294 294 294 293 294 294 295
291 291 291 291 291 291 291 291 291 291 291 291 291 291 291 291 290 290 290 290 291 291 291 292 292 294 291 292 292 291 293 293 293 292 293 293 293 293 293 293 293 293
290 290 290 290 290 290 291 291 290 290 290 290 290 291 290 290 289 289 289 289 290 289 290 291 291 293 291 291 291 291 291 293 292 292 292 292 292 293 293 293 293 293
290 290 289 289 290 290 290 289 289 289 289 290 290 290 289 289 289 288 289 289 290 289 290 291 291 293 291 291 291 291 291 292 292 292 292 292 292 292 292 292 292 292
290 290 290 289 289 289 289 289 288 288 289 290 289 288 288 288 288 288 289 289 289 289 290 290 291 292 291 291 291 291 291 292 292 292 292 292 292 292 292 292 291 292
289 289 288 288 288 288 288 288 288 288 288 289 289 287 288 288 289 289 288 287 288 288 289 289 290 291 291 291 291 290 292 293 292 292 292 291 291 291 292 292 292 292
289 289 289 288 288 288 288 287 287 288 288 290 287 287 287 287 288 288 288 287 288 288 289 289 289 291 291 291 291 291 292 292 292 292 291 291 291 291 291 291 291 292
289 289 289 289 287 287 287 287 287 288 288 289 286 286 287 286 288 287 287 288 288 287 290 288 288 291 291 291 291 291 293 292 292 291 291 290 290 291 291 291 291 294
288 288 288 287 288 287 288 287 288 288 288 287 287 286 287 287 290 287 287 287 288 288 291 289 289 291 292 290 291 291 292 293 292 291 290 290 290 290 290 290 290 292
290 291 289 288 287 287 287 288 289 287 287 286 287 286 286 286 287 287 286 287 287 287 288 288 289 291 292 290 291 291 291 293 292 291 289 289 289 289 289 289 290 290

ECMWFNIL_sfc_thetae_081.txt.gz
Theta_e
312 312 311 311 311 311 311 311 311 311 310 311 310 310 309 310 308 307 307 307 307 306 306 306 306 306 306 306 307 307 307 306 307 307 306 307 308 309 309 311 313 315
310 310 310 310 309 310 310 310 310 310 309 310 310 310 310 308 307 306 306 305 305 305 305 305 305 305 305 305 306 305 304 305 304 306 305 306 307 308 308 310 311 314
309 309 308 308 307 308 308 308 308 308 308 308 309 309 308 307 306 305 305 305 305 304 304 305 305 304 304 305 305 305 304 304 304 304 305 305 306 306 308 309 310 312
309 308 307 307 307 307 307 307 306 307 307 306 306 306 306 306 305 305 304 305 304 304 304 304 304 304 304 304 304 304 305 305 305 305 305 305 306 307 307 308 309 310
308 307 307 307 307 307 307 305 305 305 305 304 305 305 305 304 304 303 303 303 303 303 303 303 303 303 303 303 304 303 304 304 305 305 305 305 306 307 307 308 308 308
308 307 307 306 306 306 305 304 303 304 304 304 304 305 304 304 303 302 302 302 302 302 302 302 302 302 302 302 303 302 303 303 304 305 304 305 305 306 307 307 307 307
307 307 306 306 306 305 304 303 303 304 303 304 304 303 303 303 302 302 302 302 302 301 301 301 301 301 301 302 301 301 302 302 303 303 303 304 305 305 307 306 306 305
306 306 304 304 304 304 304 303 303 303 304 303 303 303 303 302 302 302 302 302 301 301 301 301 301 301 301 301 300 300 301 302 302 302 302 302 303 303 304 305 305 304
305 304 303 303 303 303 302 303 303 303 303 302 302 302 303 302 302 302 301 301 301 301 300 300 300 300 301 300 300 300 300 300 301 301 301 301 301 302 302 303 303 303
303 303 303 303 302 302 302 302 302 302 302 302 302 302 301 302 302 301 301 301 300 300 299 299 300 300 300 300 300 300 300 299 300 300 301 301 301 301 301 302 302 301
303 302 302 302 302 302 302 302 302 302 303 301 302 301 301 301 302 302 301 300 300 299 299 299 299 299 299 299 299 300 300 300 300 300 300 300 300 300 301 301 301 301
302 302 301 301 301 302 302 301 301 301 301 301 300 300 300 300 301 301 301 300 299 299 299 299 299 299 299 299 299 299 300 300 300 300 300 300 300 300 300 300 300 300
302 302 302 301 301 300 300 299 299 299 299 298 299 299 299 299 300 300 300 300 300 300 299 299 299 299 298 298 298 299 299 299 299 299 299 300 300 300 300 300 300 299
301 302 301 299 299 298 298 298 298 298 298 298 298 298 298 298 298 299 300 300 300 299 299 300 299 298 297 297 298 298 299 299 299 299 299 299 299 299 300 299 299 299
301 301 299 298 298 298 298 298 298 298 298 298 298 298 298 298 299 299 298 299 299 299 299 299 299 298 297 296 296 297 299 299 299 298 298 298 298 298 298 298 299 299
299 299 297 298 298 297 298 298 298 298 298 297 297 297 298 298 298 298 298 298 298 298 299 299 298 298 296 294 294 296 298 299 299 298 298 298 298 297 297 298 298 298
298 297 298 297 298 298 298 297 297 297 297 297 297 297 297 298 298 297 298 298 298 298 298 299 298 297 293 292 292 292 296 299 298 297 298 298 298 297 296 297 297 297
297 297 297 297 297 296 297 297 297 297 296 296 296 297 297 297 297 297 297 298 298 298 298 298 298 294 291 292 292 292 293 297 298 297 297 298 297 296 296 296 295 295
297 297 297 297 296 297 297 297 296 296 296 296 295 296 297 296 296 297 297 297 298 297 298 298 299 293 291 292 292 291 291 295 298 298 297 297 297 296 296 295 295 294
297 297 296 296 297 297 296 296 296 296 296 296 296 296 296 296 296 296 297 297 297 298 298 298 298 294 291 291 292 291 291 293 298 298 298 297 296 296 296 295 295 294
297 296 296 296 296 297 296 296 296 296 296 296 296 295 295 295 295 296 296 297 297 298 298 298 297 292 291 291 291 291 291 294 298 297 297 296 297 296 296 295 295 294
297 296 296 296 296 296 296 295 296 296 295 296 296 296 296 296 296 296 296 296 297 297 297 297 298 292 291 291 291 291 292 297 297 296 296 296 296 296 296 296 295 295
297 296 296 296 296 296 295 295 295 295 295 296 295 295 295 295 295 295 296 296 296 296 296 297 298 294 290 290 291 290 294 297 297 296 296 295 295 296 296 296 296 295
297 297 296 296 296 295 296 296 296 296 296 296 295 295 294 295 295 295 295 295 295 295 295 296 297 295 291 290 290 290 293 297 296 295 295 295 295 296 296 296 296 296
298 297 297 297 296 296 297 296 296 296 296 297 296 296 295 296 295 295 295 295 296 296 294 296 297 296 292 290 290 290 293 297 296 295 294 294 294 294 295 295 295 296
299 298 298 297 296 297 297 297 297 297 296 296 296 296 295 295 295 295 295 295 296 296 296 297 296 297 296 290 290 290 291 295 296 294 294 294 294 294 293 294 295 295

ECMWFNIL_sfc_thetae_084.txt.gz
Theta_e
316 317 315 315 315 316 316 315 315 315 315 314 313 314 313 314 313 313 313 313 313 313 313 313 313 313 313 314 314 313 312 311 310 310 311 311 311 312 312 312 314 314
315 315 315 315 314 314 314 315 315 314 313 313 313 313 313 313 312 312 312 311 311 311 311 312 312 312 312 312 313 312 311 311 310 311 311 311 311 311 311 312 312 313
314 314 314 313 312 313 313 313 314 313 312 312 313 313 312 312 311 311 311 310 310 310 310 310 311 311 310 311 312 312 312 311 311 312 312 311 311 310 311 311 311 311
314 313 313 313 312 312 313 313 312 312 313 312 311 311 311 311 311 310 310 310 309 309 309 309 309 310 310 310 311 310 311 310 310 311 311 311 311 311 311 311 311 311
312 312 312 312 311 311 312 311 311 311 311 310 311 311 310 310 309 309 309 308 309 308 308 307 308 308 309 309 309 308 308 308 309 310 309 309 311 311 310 310 310 310
311 310 310 310 311 311 310 310 309 310 310 310 310 310 309 309 309 308 308 307 307 307 307 307 306 307 308 307 308 307 307 307 307 308 307 307 309 309 309 309 309 308
310 310 310 310 310 310 310 310 310 310 309 309 309 309 309 308 308 308 307 307 306 306 306 306 306 306 306 307 306 306 306 306 306 306 305 306 307 307 308 308 308 307
309 310 309 310 310 309 309 308 308 308 309 309 308 308 308 307 307 308 307 307 306 305 305 305 305 305 306 306 305 305 305 306 305 305 305 305 306 305 306 307 307 306
309 308 308 308 308 308 308 307 307 308 308 308 307 307 308 307 307 307 307 306 306 305 305 304 304 304 305 305 304 304 304 304 304 304 304 304 304 304 305 306 305 305
308 308 308 308 307 307 308 308 308 307 307 307 307 307 306 307 307 306 306 306 305 305 304 303 304 304 304 304 304 304 304 303 303 304 304 304 303 304 304 304 304 303
307 307 307 306 306 306 306 306 306 306 306 305 306 306 306 306 307 306 305 305 305 304 304 303 303 303 302 303 303 304 304 304 303 303 304 304 304 304 303 303 303 303
306 306 305 305 305 305 305 305 305 305 305 305 305 305 306 305 306 306 305 305 304 304 304 303 302 302 302 302 302 303 304 304 304 304 303 304 303 303 303 303 303 302
305 304 304 304 304 305 305 304 304 305 304 304 305 305 305 305 305 305 305 305 304 304 303 303 302 301 301 301 301 301 302 303 304 303 303 304 304 303 303 303 302 302
303 304 304 304 304 304 304 305 304 304 304 305 305 304 304 304 304 304 305 305 305 304 303 302 301 300 300 300 300 300 301 303 304 303 304 304 304 303 303 302 302 302
303 304 304 304 304 304 304 304 304 304 304 304 304 304 305 304 304 305 304 304 304 303 302 301 301 300 300 298 299 298 301 303 303 303 303 302 302 302 302 302 302 302
302 303 303 303 303 303 303 304 304 304 304 304 303 303 304 304 304 305 304 304 303 302 302 301 300 300 296 293 294 297 300 302 304 303 303 302 302 301 301 301 301 301
302 302 302 302 302 303 303 302 303 304 304 303 303 303 304 304 304 304 304 303 303 302 301 301 300 298 292 292 292 292 297 302 302 302 302 302 301 300 299 300 300 300
301 301 301 301 302 301 302 302 303 302 302 303 303 303 304 304 304 303 303 304 303 303 302 301 301 294 291 292 292 291 293 299 303 302 302 301 300 300 299 299 298 298
301 301 301 301 301 301 302 302 302 302 302 302 302 303 304 303 303 303 303 303 303 302 301 300 300 293 291 291 292 291 291 295 302 301 301 300 300 300 299 298 298 297
301 301 300 300 301 301 301 301 301 301 302 303 303 303 303 302 303 302 302 303 302 302 302 301 299 294 291 291 291 290 291 294 302 301 301 300 299 299 299 298 298 297
301 300 300 300 300 301 301 301 301 302 301 302 302 302 301 301 301 302 302 302 302 302 302 300 298 291 291 290 291 291 290 295 302 301 300 300 300 300 300 299 298 298
301 301 300 300 300 300 300 300 301 301 301 301 301 301 302 301 301 302 301 301 301 302 301 300 298 291 291 291 290 291 291 301 300 300 299 299 300 300 300 299 298 298
301 301 300 300 300 300 300 300 300 301 301 302 301 301 300 300 301 301 301 301 300 301 301 301 300 294 291 291 291 290 294 300 299 299 299 299 299 299 299 299 299 298
301 301 300 300 300 299 300 300 301 301 301 302 300 300 299 300 301 301 301 301 300 299 300 300 300 296 291 291 291 290 293 299 298 298 298 298 299 299 299 299 299 299
301 301 301 300 300 300 301 300 300 301 301 302 301 301 300 300 300 300 300 301 301 301 298 299 300 298 292 291 290 291 294 299 298 297 297 298 298 298 299 298 298 298
302 302 301 301 300 301 301 300 301 301 302 301 301 300 300 300 300 300 300 300 301 301 300 300 299 300 297 291 291 291 291 296 298 297 296 297 297 296 296 297 297 298

ECMWFNIL_sfc_thetae_087.txt.gz
Theta_e
319 318 317 317 317 318 318 317 317 316 315 315 314 314 313 314 315 314 314 313 313 313 313 314 314 315 315 316 316 316 314 315 315 315 315 314 313 314 313 313 313 313
317 317 316 316 316 316 316 316 316 315 314 315 315 314 314 313 313 313 313 312 312 312 313 313 313 313 313 314 314 314 312 312 313 315 314 313 313 313 313 313 313 313
316 315 315 315 314 315 315 315 315 315 314 314 315 314 313 313 312 312 313 312 311 311 311 312 312 312 312 312 312 312 311 310 311 313 313 312 312 311 312 312 312 312
314 314 314 314 314 314 315 314 314 314 314 313 313 313 313 312 313 312 312 312 311 310 311 311 311 311 311 311 310 310 310 309 309 310 310 310 311 310 310 311 311 311
314 314 314 314 314 315 315 313 313 313 313 313 313 313 312 312 311 310 311 310 310 310 310 309 310 310 310 310 310 309 309 308 309 309 308 308 310 309 310 310 309 308
314 313 313 313 313 313 313 313 312 312 312 312 311 311 311 312 310 309 309 309 309 308 308 309 308 308 309 309 309 308 308 307 308 308 307 307 308 308 309 309 308 307
312 312 312 312 313 313 313 312 312 312 311 311 311 310 311 310 310 309 309 309 308 307 307 307 307 307 308 308 308 308 307 307 307 307 306 306 307 307 308 308 307 306
312 313 313 313 312 312 311 310 310 310 311 311 310 310 310 309 309 310 309 308 307 306 306 306 306 306 307 308 306 307 307 307 307 306 306 306 306 306 306 306 307 305
312 311 311 312 311 310 310 309 310 310 310 310 309 309 310 309 309 309 308 308 307 306 306 305 305 305 306 306 305 306 306 306 307 306 306 306 305 305 304 305 305 305
310 310 311 311 311 311 310 310 310 309 309 309 309 309 308 309 309 308 308 307 307 306 305 304 304 304 304 304 304 304 305 306 306 306 306 306 305 304 304 304 304 303
310 310 309 309 309 309 309 309 309 309 309 308 309 308 308 309 309 309 307 307 306 305 304 303 302 302 302 302 303 304 305 307 306 305 306 306 305 305 305 304 303 303
308 308 308 308 308 308 308 308 308 308 308 308 308 307 308 308 308 308 307 306 305 304 304 303 302 301 300 300 301 303 305 307 307 306 306 305 305 305 304 304 303 302
306 307 307 307 307 307 308 307 308 308 307 307 307 307 307 307 307 307 307 307 305 304 303 302 301 300 299 300 301 302 305 306 306 306 305 305 305 304 304 304 303 302
306 307 307 307 307 307 307 307 307 307 307 307 308 307 307 307 307 307 307 306 306 304 303 302 300 298 298 299 300 301 303 305 306 305 305 304 305 304 304 303 302 302
306 306 306 306 306 306 307 307 307 307 306 306 307 307 308 307 308 307 306 305 305 304 303 301 299 298 298 297 298 299 301 304 305 304 304 303 303 303 303 302 302 302
305 306 306 306 305 305 306 306 306 307 306 306 306 307 307 307 307 307 306 305 304 303 303 301 298 298 296 294 294 297 300 303 305 304 304 303 302 302 301 301 301 301
304 304 305 304 305 305 305 305 305 306 306 306 306 307 307 307 307 306 305 305 303 302 302 300 298 298 293 292 292 293 297 301 303 303 304 303 302 301 300 300 301 300
303 303 303 303 304 303 304 304 305 305 305 305 306 306 306 307 306 305 306 305 304 302 300 299 298 294 291 292 292 291 293 298 304 303 303 302 301 300 300 300 300 300
303 302 302 303 303 303 304 304 304 304 304 304 304 305 306 305 305 305 305 305 304 301 299 298 298 293 291 291 292 291 291 295 303 303 302 302 301 300 300 300 300 299
302 302 302 302 303 303 303 303 304 303 305 305 305 305 304 304 304 305 305 304 304 302 300 298 297 294 291 291 291 290 291 293 303 303 303 302 301 300 301 300 300 299
301 302 302 302 302 303 303 303 303 303 303 304 304 303 303 303 303 303 304 304 304 304 301 299 298 291 291 291 291 291 291 295 303 303 302 302 301 301 301 300 300 299
301 301 302 302 302 302 302 302 303 303 303 303 303 303 303 303 303 303 302 303 304 304 302 299 298 291 291 291 291 291 291 302 301 302 301 301 301 301 300 300 300 299
302 301 301 301 301 301 302 303 302 302 303 303 303 303 302 302 303 302 302 302 302 303 303 301 299 293 291 291 291 290 294 302 301 300 301 300 300 300 300 300 300 299
302 302 301 301 301 301 301 302 303 303 303 303 302 302 301 302 303 303 303 302 301 300 301 302 300 295 291 291 291 291 294 300 300 298 299 300 300 300 300 299 300 297
302 302 302 301 301 302 303 302 303 303 303 303 302 302 302 302 302 302 302 303 303 301 300 301 301 298 292 291 291 291 295 299 299 298 297 298 299 298 299 299 299 300
303 303 302 302 301 302 303 303 303 303 303 303 302 302 301 301 301 301 301 301 302 303 302 300 300 300 296 291 292 292 292 297 299 297 295 297 299 298 297 299 298 298

ECMWFNIL_sfc_thetae_090.txt.gz
Theta_e
319 319 318 317 317 318 317 316 315 315 316 315 313 312 311 313 313 313 312 312 311 312 312 312 312 312 313 313 313 312 311 312 313 314 313 312 311 311 310 311 310 310
318 318 317 317 316 316 316 316 316 315 314 313 312 311 312 312 312 312 312 310 309 310 311 311 311 311 310 310 311 311 310 310 309 312 311 310 309 310 308 310 309 310
316 316 315 314 314 315 315 316 317 314 313 312 313 313 312 313 312 312 311 311 310 309 310 310 310 310 310 309 310 310 309 308 308 310 310 310 309 308 308 309 308 308
315 315 315 314 314 314 315 314 314 313 313 312 311 312 312 312 312 311 311 311 309 309 309 309 309 309 309 309 309 308 308 308 308 309 308 309 308 308 308 308 308 307
314 314 314 314 314 314 314 312 312 312 311 312 312 312 312 311 310 309 309 309 309 308 308 308 308 308 309 308 308 307 307 307 307 307 307 306 308 308 307 307 306 306
314 313 313 313 313 313 312 310 309 310 310 311 311 311 311 310 309 308 308 307 307 307 307 307 306 307 308 307 308 307 307 306 306 306 305 305 306 306 307 306 304 303
312 313 312 312 312 313 311 310 311 310 310 310 310 310 310 309 308 307 306 306 306 305 304 304 305 305 306 306 306 306 307 306 306 305 305 305 305 304 305 304 304 302
312 312 312 311 311 311 310 309 309 310 310 310 309 309 309 307 308 308 307 306 305 303 303 303 303 303 304 304 303 305 307 307 306 305 305 304 304 302 303 304 304 302
311 311 310 310 310 310 309 308 309 309 309 309 308 309 309 308 308 307 307 305 303 303 302 301 301 301 302 302 302 303 304 305 306 305 305 304 303 302 302 302 302 301
311 311 310 310 309 309 308 308 309 309 309 309 308 308 308 308 308 306 306 304 303 302 301 300 299 299 300 301 302 302 304 305 304 305 304 303 303 302 302 301 300 300
310 310 309 309 308 308 309 309 308 308 308 307 308 308 308 308 307 306 305 304 303 301 300 299 298 298 299 300 301 303 305 305 304 304 304 303 304 303 303 301 300 299
308 308 308 308 308 308 308 308 308 308 307 308 307 306 307 307 306 305 304 302 302 300 299 298 297 298 298 298 299 301 303 305 305 305 305 303 303 302 301 301 300 299
306 307 307 307 307 307 308 307 307 307 306 306 307 307 306 306 306 305 305 303 302 300 298 297 297 297 297 297 298 299 300 303 305 304 304 303 302 302 301 301 300 299
306 307 307 307 307 306 306 307 306 306 307 307 307 307 307 306 305 304 304 303 302 300 298 297 296 296 296 295 296 297 298 300 303 304 303 301 302 302 302 300 300 299
306 306 306 306 306 306 306 306 306 306 306 306 306 307 308 306 305 305 303 302 301 300 297 297 296 296 295 294 294 295 297 300 301 303 302 302 301 302 301 300 299 299
305 306 305 305 305 305 305 305 305 306 306 306 306 306 306 306 305 304 302 301 299 298 298 297 295 296 295 293 293 294 295 299 300 303 303 302 301 301 300 300 299 299
304 304 304 304 305 305 305 305 305 306 305 306 306 306 306 306 305 303 301 299 298 297 297 296 295 295 293 291 292 292 295 296 299 302 303 302 301 299 299 299 298 298
303 303 303 303 303 303 304 304 305 305 304 305 305 305 305 306 305 303 302 300 298 297 296 296 295 294 291 292 292 291 293 295 299 303 302 302 300 299 299 299 298 298
302 302 302 302 302 303 304 304 303 303 303 303 304 305 305 304 304 305 303 301 298 296 295 295 295 293 291 292 292 291 291 294 299 304 301 301 300 299 299 299 298 298
302 302 301 302 302 302 303 302 303 302 303 303 303 303 303 304 304 304 304 302 300 298 296 295 295 293 291 292 292 291 291 293 301 302 302 302 300 299 300 300 298 298
301 301 301 301 302 302 303 302 302 303 303 303 304 303 303 302 302 303 304 303 301 299 298 296 295 292 291 291 291 291 292 296 301 301 301 301 302 301 300 301 299 299
301 301 301 301 301 302 302 302 303 302 302 303 303 302 303 302 302 302 303 303 304 301 299 296 295 291 291 291 292 291 293 299 300 298 299 299 300 301 299 300 299 297
301 301 301 301 301 301 301 301 301 302 302 303 302 302 302 301 301 300 300 301 301 303 300 297 295 292 291 291 291 291 294 297 298 297 297 297 297 299 299 301 300 297
301 300 301 301 301 301 301 302 302 303 303 304 302 301 301 301 301 300 299 299 299 299 302 298 295 294 291 291 291 291 294 296 297 296 295 295 296 298 299 300 298 302
301 301 301 301 301 301 302 302 302 302 303 304 303 303 302 302 301 301 301 300 299 300 301 301 297 295 292 291 291 291 294 295 296 295 294 293 295 296 298 298 299 299
302 302 301 301 301 302 302 302 303 303 303 302 302 300 299 300 301 301 301 301 301 300 301 302 300 298 295 292 292 292 292 295 296 294 293 292 294 295 296 296 296 296

ECMWFNIL_sfc_thetae_093.txt.gz
Theta_e
315 316 315 315 315 315 313 313 313 310 307 307 307 306 307 308 309 307 307 307 308 306 306 306 306 306 307 306 306 305 305 305 306 307 305 305 304 304 305 303 303 302
315 316 316 314 314 314 313 313 310 308 307 306 307 307 308 307 308 307 306 305 306 305 305 305 306 306 305 304 305 305 303 303 303 309 305 304 304 303 303 303 302 302
313 313 313 313 312 312 312 311 309 307 307 307 308 307 309 308 306 306 306 305 304 304 304 304 305 305 305 304 304 303 303 302 303 303 305 303 303 303 303 302 302 301
313 313 312 312 311 311 311 309 308 308 307 307 306 308 309 309 306 305 305 308 303 303 303 304 304 304 304 304 303 302 303 302 302 303 302 303 304 303 302 302 302 300
312 312 312 311 311 312 309 308 307 307 307 306 307 308 307 304 303 303 303 302 302 302 302 302 302 303 303 302 303 301 303 301 302 302 301 301 301 303 303 301 300 299
312 312 312 312 311 309 307 306 306 306 306 305 305 306 304 303 302 302 302 301 301 300 300 300 300 300 301 301 301 302 301 302 302 301 301 300 300 301 303 301 299 298
311 310 310 310 309 307 306 306 306 306 305 305 305 304 304 303 302 302 301 300 299 300 298 298 298 298 299 299 299 299 302 302 301 301 300 300 301 300 300 300 298 297
308 308 307 306 306 305 305 305 305 304 305 304 303 304 304 304 302 302 300 300 299 297 297 296 297 297 298 298 299 299 300 303 302 301 300 299 299 298 298 299 297 296
307 307 307 306 305 304 304 304 304 304 305 303 303 303 304 302 301 301 300 299 298 296 296 296 296 296 297 297 298 298 299 300 301 299 299 299 298 298 298 298 297 296
306 305 305 304 304 303 303 303 304 304 304 303 303 303 303 302 301 300 299 298 296 295 295 295 295 295 295 296 297 297 298 300 300 299 299 299 298 297 297 297 296 295
305 305 304 303 303 303 303 303 303 303 304 303 303 303 302 301 301 300 298 297 296 295 294 294 294 294 294 294 295 296 297 298 299 299 298 298 298 299 301 296 296 295
304 303 303 302 303 302 302 303 303 303 302 303 303 302 301 301 300 299 298 296 295 294 294 294 293 293 293 293 294 295 295 297 299 299 298 298 297 297 297 297 296 295
303 303 302 302 302 302 302 302 302 302 302 302 303 302 301 300 300 298 297 295 295 294 294 293 293 292 292 292 292 293 294 296 297 298 297 298 297 297 296 296 295 296
302 302 302 302 302 302 302 302 302 302 302 303 303 301 300 300 299 298 297 296 294 294 293 293 292 292 291 291 292 292 293 294 296 298 297 297 297 296 296 296 295 295
302 302 302 302 302 301 301 301 301 301 302 302 303 303 302 300 299 298 296 295 294 293 292 292 292 292 292 292 291 292 292 294 295 296 297 297 296 296 295 295 294 295
302 302 301 301 301 300 300 301 301 301 301 301 301 301 299 298 297 296 295 294 293 292 292 292 292 293 294 293 294 292 292 293 295 296 297 296 295 296 295 295 295 294
301 301 301 300 300 300 300 301 301 301 301 301 300 300 299 298 296 294 293 293 293 291 291 292 292 293 293 292 292 293 294 292 293 295 297 295 294 294 294 295 294 294
300 300 300 300 300 300 300 300 300 300 300 300 300 300 299 297 295 294 293 293 292 291 290 291 291 294 291 292 292 292 294 294 294 296 297 295 294 294 294 294 293 294
299 300 300 299 299 300 300 300 300 300 299 299 299 300 299 297 295 294 293 292 292 291 290 290 289 293 291 292 292 292 292 296 296 296 297 295 293 294 294 293 293 295
299 299 298 298 299 299 299 299 299 298 298 298 299 299 298 298 296 294 294 293 292 291 290 289 289 292 291 292 292 291 292 294 296 294 295 295 295 295 295 293 293 292
298 297 298 298 298 298 298 298 298 297 298 298 297 297 296 297 297 295 295 295 293 292 291 290 291 292 291 291 291 291 292 294 295 294 294 293 294 295 295 293 292 293
297 297 297 297 298 298 297 297 297 297 297 297 297 295 295 295 295 297 295 294 293 292 290 289 289 291 291 291 291 291 293 294 293 292 292 292 292 293 294 294 292 292
298 297 297 297 297 297 296 296 296 296 296 297 295 295 294 293 293 294 295 295 295 293 290 288 288 291 291 291 291 291 292 291 291 291 291 290 291 292 293 294 293 292
297 297 297 297 296 296 296 295 296 296 296 297 295 294 293 293 293 293 293 294 294 293 292 289 288 291 291 291 291 291 293 290 291 290 289 289 290 291 292 293 294 301
297 297 297 296 296 296 296 296 296 296 297 297 296 295 295 294 295 293 292 292 292 294 299 291 289 292 292 291 291 291 292 289 290 289 289 288 289 290 292 292 292 296
297 298 297 297 296 296 296 296 296 296 296 296 296 296 295 294 294 293 292 292 293 295 297 293 291 290 291 292 292 291 292 290 290 288 289 288 288 292 291 291 291 291

ECMWFNIL_sfc_thetae_096.txt.gz
Theta_e
314 314 313 313 312 312 310 309 308 307 306 305 305 304 304 304 305 304 304 305 305 303 304 303 303 302 304 303 302 303 303 304 304 302 302 302 301 301 300 299 298 298
313 314 314 312 312 311 309 309 308 306 305 305 305 304 305 304 304 303 303 302 303 302 303 303 303 302 302 302 302 302 301 301 302 305 301 300 300 300 299 298 297 297
311 311 311 311 310 309 309 308 308 306 305 304 305 305 306 305 303 303 303 302 301 301 301 301 301 302 302 301 301 301 300 300 300 301 302 300 300 299 298 298 297 297
311 311 311 310 309 308 309 308 307 306 305 305 304 306 305 304 301 301 301 303 299 299 299 299 300 300 300 301 301 301 300 300 300 300 300 300 300 298 297 298 297 296
310 311 311 311 310 309 308 307 305 305 304 303 304 304 303 300 299 299 298 298 297 297 297 298 298 298 299 299 300 300 301 299 299 299 299 298 299 298 298 297 295 295
310 311 312 310 309 307 307 306 304 304 303 302 301 302 300 300 298 298 297 296 296 296 297 297 297 298 298 298 299 299 300 299 299 299 298 297 297 297 297 296 295 294
308 309 309 308 306 305 304 304 304 304 302 302 301 300 299 298 297 296 296 296 295 297 295 296 296 296 297 297 298 298 299 299 299 298 297 297 297 296 296 295 295 294
306 307 307 306 305 304 304 303 303 302 303 302 301 300 299 298 297 296 295 295 295 294 294 295 295 295 295 296 296 297 297 300 298 297 296 296 296 295 294 296 294 293
306 305 305 304 303 303 302 302 302 302 302 300 299 299 299 297 296 295 295 294 294 293 293 293 294 294 294 295 295 295 296 297 298 297 296 295 295 294 294 294 293 294
304 304 304 303 302 302 301 301 302 302 302 300 299 298 297 297 296 295 294 293 293 292 292 292 292 293 293 293 294 294 295 296 296 296 295 295 295 294 294 294 293 292
303 303 302 302 301 301 301 301 301 301 302 300 298 297 297 296 296 295 293 293 293 292 291 291 291 292 292 292 293 293 294 295 296 296 295 295 295 295 299 294 294 292
302 302 301 301 301 301 301 301 301 301 300 300 299 297 296 295 294 294 294 292 292 291 291 291 291 291 291 291 291 292 293 294 295 295 296 295 294 295 294 295 293 292
301 301 301 301 301 300 301 301 300 300 300 299 299 297 295 294 293 292 293 292 291 291 291 291 291 290 290 290 290 291 292 293 294 294 295 295 294 294 294 293 294 293
301 301 300 300 300 300 300 300 300 300 300 300 299 296 295 294 292 292 292 292 291 291 291 292 290 290 290 289 290 290 291 292 292 294 294 294 294 294 294 293 293 293
301 301 300 301 300 300 300 300 300 300 299 299 298 297 297 294 293 292 291 291 290 290 290 291 291 291 291 290 290 290 290 291 292 293 294 294 293 293 293 293 293 293
301 301 300 300 299 299 299 299 299 299 299 297 296 296 295 294 293 293 291 290 290 289 289 290 290 291 294 294 294 292 291 291 293 293 295 293 294 293 293 293 293 293
301 300 299 299 299 299 299 299 299 299 297 296 294 294 293 294 292 291 290 290 289 288 288 290 290 292 293 292 292 295 294 292 293 294 294 292 293 293 291 293 292 292
300 300 299 298 298 298 299 299 299 297 296 294 293 292 292 291 290 290 289 289 289 288 288 289 289 294 291 292 292 293 296 294 293 294 294 292 291 291 292 292 291 292
300 299 298 298 298 298 299 298 298 297 296 294 292 292 291 290 289 289 288 289 288 288 288 288 288 293 291 292 292 292 293 294 292 292 292 291 291 292 291 291 291 292
299 299 298 298 298 298 298 298 298 297 296 295 294 292 290 290 289 289 289 288 288 287 287 287 288 292 291 292 292 292 292 293 290 291 290 290 291 292 291 290 290 290
299 299 298 297 297 298 297 297 297 296 296 296 294 292 291 290 290 289 289 290 288 287 287 287 289 292 291 291 291 292 292 292 289 291 290 289 290 291 291 290 289 290
299 298 297 297 297 297 297 296 295 296 295 295 295 293 292 292 290 291 291 289 288 287 287 286 288 291 291 291 291 291 293 292 288 288 288 289 289 290 290 290 290 290
299 298 297 296 297 296 295 295 295 294 294 295 294 293 293 292 292 292 292 290 289 288 286 286 287 291 291 291 291 291 291 288 287 288 288 288 288 289 289 290 290 292
299 298 297 296 296 296 295 294 294 294 294 295 293 292 292 292 293 292 292 292 290 287 287 287 287 291 291 291 291 291 291 287 288 287 286 287 287 288 289 288 290 298
299 298 297 296 295 295 295 294 294 294 294 293 292 292 292 292 294 293 292 292 291 289 296 289 287 291 292 290 291 291 290 286 288 286 287 286 286 288 289 289 289 292
298 298 296 296 295 294 294 294 295 294 293 292 291 291 291 291 293 293 293 293 292 292 294 290 289 289 291 291 291 291 292 289 287 287 288 286 286 289 289 288 288 289

ECMWFNIL_sfc_thetae_099.txt.gz
Theta_e
317 316 313 311 309 309 308 307 306 306 305 305 303 302 302 302 303 302 303 303 303 301 301 301 301 301 302 301 302 302 302 301 300 299 298 298 297 296 296 295 295 295
314 314 313 311 310 310 308 308 306 306 305 304 303 302 303 302 301 301 300 300 301 300 300 301 301 301 300 300 300 300 300 300 299 301 297 296 296 295 294 294 294 294
312 311 310 308 307 307 307 307 307 306 304 303 303 303 303 302 300 300 299 298 298 298 299 299 300 300 300 300 300 299 299 298 298 298 298 296 296 295 294 294 293 293
310 309 308 307 307 306 307 307 306 305 304 303 301 302 301 301 298 298 298 301 297 297 298 298 298 299 299 299 299 299 298 298 298 298 297 297 297 295 294 295 295 293
309 308 308 307 308 308 307 306 305 304 302 300 300 300 300 297 296 296 296 296 296 296 297 297 297 298 299 299 299 298 298 297 297 297 296 295 295 295 295 294 293 292
308 308 308 308 308 307 306 306 305 302 300 299 298 299 296 296 295 295 296 295 296 296 296 296 296 297 298 298 298 297 297 296 296 296 295 294 294 294 295 293 293 292
307 307 307 308 307 307 306 304 303 301 299 298 298 296 295 295 295 294 295 295 295 297 295 295 295 295 296 297 298 297 296 296 295 295 294 294 295 293 294 293 294 292
306 306 306 307 306 306 304 302 300 299 299 297 296 295 295 294 294 294 294 294 294 294 294 294 294 294 294 296 297 296 296 297 295 295 294 293 293 292 292 294 292 291
305 305 306 305 304 303 302 301 300 299 298 296 295 295 295 294 293 293 293 293 293 292 292 292 293 293 293 294 295 295 295 294 295 294 294 293 292 292 292 292 292 292
305 305 304 304 302 302 300 299 299 298 298 296 295 294 294 294 293 292 292 291 292 291 291 291 292 292 292 293 293 294 295 295 294 294 293 293 293 292 292 291 291 290
304 304 302 302 301 300 299 299 298 297 297 295 294 294 293 293 294 292 291 291 291 290 290 290 290 291 292 292 292 293 294 294 293 293 293 293 293 293 297 291 292 290
303 303 302 301 300 299 299 298 298 297 296 295 294 293 292 292 291 292 292 290 290 290 290 290 290 290 290 290 291 292 293 293 293 293 293 292 292 293 293 292 292 290
302 302 302 301 300 299 299 298 297 296 295 294 294 292 291 291 291 290 291 290 290 290 290 290 290 290 289 289 290 291 292 292 292 293 293 292 292 293 292 292 291 291
302 302 301 300 300 299 298 298 297 296 295 294 293 291 291 290 290 290 291 290 290 291 291 291 290 290 289 289 289 289 291 291 292 293 293 293 293 292 292 291 291 291
303 302 301 301 300 299 298 297 297 296 295 294 293 293 293 290 290 290 289 289 289 289 289 290 291 291 291 290 289 289 289 291 291 292 292 292 292 291 291 291 291 291
302 302 301 300 299 298 298 297 296 296 295 293 292 292 291 291 290 290 289 288 288 288 289 290 290 291 295 295 297 291 290 291 293 291 292 292 293 291 291 291 291 290
302 301 300 300 299 298 298 297 296 295 293 292 292 291 291 292 289 288 288 288 288 288 288 289 290 292 293 292 293 296 292 292 292 291 290 290 292 291 290 292 291 290
301 300 299 299 299 298 298 296 295 293 292 291 290 290 290 289 288 288 287 287 288 288 288 289 289 294 292 293 293 293 295 293 291 291 291 290 289 289 290 291 289 289
300 300 299 299 299 298 297 295 293 292 290 289 289 290 288 288 287 287 286 286 287 287 288 288 288 293 292 292 292 292 292 292 290 290 290 289 289 290 289 289 290 291
300 299 299 299 299 298 296 294 292 290 289 289 290 289 287 287 286 286 286 286 287 287 287 287 288 292 292 292 292 291 291 292 288 289 289 289 289 289 290 289 289 289
300 299 299 299 298 298 296 294 291 290 289 289 288 288 287 287 287 286 286 288 286 285 287 287 289 291 291 291 291 291 291 291 287 289 288 288 288 289 288 288 288 289
300 299 299 298 298 297 296 294 292 290 289 289 288 287 287 288 287 288 287 285 285 285 286 285 287 291 291 291 291 291 292 290 286 286 286 287 287 288 288 288 288 288
300 299 299 298 298 297 296 295 293 291 290 291 288 288 288 288 288 287 287 286 286 286 285 285 287 290 290 291 291 290 290 286 285 286 286 286 285 286 287 288 288 289
300 299 299 298 298 297 296 295 294 292 291 292 290 289 289 289 289 288 286 287 286 285 285 286 287 290 291 290 291 291 291 285 286 285 284 285 285 286 287 287 287 296
299 299 298 298 298 297 296 295 294 293 293 292 291 291 291 290 292 289 287 287 287 286 295 288 287 290 291 290 290 291 290 284 285 283 284 283 284 287 287 287 287 290
299 299 299 298 298 297 296 295 294 293 292 291 291 291 291 290 291 290 289 289 289 290 292 290 287 287 290 290 291 290 292 286 285 284 285 284 283 288 288 286 286 286

ECMWFNIL_sfc_thetae_102.txt.gz
Theta_e
317 316 314 311 310 309 307 306 306 306 305 305 303 303 302 303 305 303 303 303 303 302 302 303 303 303 303 302 302 301 300 299 299 298 297 297 296 296 295 295 295 296
316 315 314 311 310 309 307 307 307 306 305 304 303 302 302 301 302 301 301 301 302 301 302 302 302 301 301 301 300 299 299 298 297 299 296 296 296 296 295 295 295 295
314 312 311 309 308 307 307 307 307 306 304 304 303 302 301 302 300 300 300 300 300 300 300 301 301 301 301 300 300 299 298 297 297 297 297 295 296 295 295 295 295 295
312 311 310 308 308 307 307 306 306 305 304 303 301 301 301 301 299 299 300 302 299 299 299 300 300 300 300 299 299 298 298 297 297 298 297 297 297 296 296 296 296 294
310 310 309 308 308 307 307 305 304 304 302 300 300 301 301 298 298 298 298 298 298 298 299 299 299 300 300 299 298 297 298 297 297 296 296 296 297 297 296 296 294 293
309 309 309 308 307 306 306 305 304 302 300 299 298 299 297 297 297 297 297 297 297 298 298 298 299 299 299 298 298 297 297 296 296 296 295 295 295 296 296 295 294 293
307 308 308 308 307 306 305 304 302 301 299 298 297 296 296 296 296 296 297 297 297 299 297 298 298 298 298 298 297 296 296 296 296 296 295 295 297 295 296 295 295 293
306 306 307 307 306 305 303 302 300 299 298 297 296 296 296 296 296 296 296 296 296 295 296 296 297 297 298 297 297 296 296 297 296 295 295 294 295 294 295 295 294 293
306 306 306 306 304 303 301 300 299 298 298 295 295 295 296 295 295 295 295 295 294 294 295 295 296 296 297 297 296 296 296 296 296 295 295 294 294 294 294 294 295 295
305 305 305 304 303 302 300 299 298 297 297 295 294 294 294 294 294 294 294 294 294 294 294 294 295 296 296 296 296 296 296 295 295 295 295 295 294 294 294 294 294 293
305 304 304 303 302 300 299 298 297 296 296 294 294 293 293 294 295 293 293 293 293 293 293 293 294 295 295 295 296 296 296 295 295 295 295 295 295 294 297 294 295 294
304 303 302 301 300 299 298 297 296 296 295 295 294 293 292 292 292 293 293 292 292 292 292 292 293 294 294 295 295 296 296 296 296 295 295 295 295 296 295 295 295 294
302 302 301 300 299 298 297 296 296 295 294 293 294 292 292 292 292 292 293 292 291 292 292 292 292 292 293 293 294 295 295 296 296 295 295 295 295 295 294 294 294 294
302 301 301 300 298 298 297 296 295 294 294 294 293 292 291 291 291 292 293 292 292 292 292 293 292 292 291 292 293 294 296 295 296 296 296 295 295 294 295 295 294 294
302 301 300 300 299 297 296 295 295 294 293 293 293 293 293 291 291 291 290 290 290 291 292 293 293 293 293 292 293 293 294 295 296 297 296 295 294 293 293 294 295 295
301 301 300 299 298 297 296 295 294 294 293 292 292 291 291 291 290 291 290 290 290 290 291 292 293 294 298 297 296 295 294 295 295 295 296 296 296 294 294 294 294 294
301 300 300 298 298 297 295 295 294 293 292 292 291 291 291 292 290 289 289 290 290 291 291 292 293 295 295 293 293 295 294 294 294 294 294 295 295 294 293 295 295 295
302 301 299 299 299 297 296 295 294 292 292 292 291 291 291 290 289 289 289 289 290 290 291 292 293 295 292 293 293 293 295 295 294 294 294 293 293 293 294 295 295 294
301 300 299 298 298 297 296 294 293 292 292 291 291 291 290 288 288 288 288 289 290 290 291 292 292 293 292 292 292 292 292 293 293 293 294 292 292 293 292 294 294 295
301 300 299 298 298 296 295 293 292 291 291 291 292 291 288 288 287 288 288 288 290 290 290 290 291 293 291 292 291 291 291 292 291 291 292 292 292 292 293 292 292 293
301 300 299 298 297 296 294 293 291 290 290 291 290 289 288 287 287 287 288 290 290 289 290 290 292 292 291 291 291 290 290 290 291 291 291 291 291 291 292 292 292 292
300 300 299 298 296 295 293 291 290 290 290 290 289 288 288 288 287 289 289 288 288 289 289 289 290 291 291 291 291 291 291 291 290 290 290 290 291 291 291 291 291 292
300 300 299 297 296 294 292 290 290 290 289 290 288 288 288 288 288 288 288 287 288 289 288 288 289 291 290 291 290 290 290 289 289 290 290 290 289 290 290 291 291 292
301 300 299 298 295 293 291 290 290 290 290 291 289 289 289 288 288 288 287 288 288 287 288 288 288 291 291 291 290 291 290 288 288 288 288 288 289 290 290 290 291 295
301 300 299 298 296 294 292 290 290 290 291 291 290 290 290 290 292 288 288 288 287 288 295 289 289 292 291 290 290 291 291 288 288 288 289 287 287 290 290 289 289 291
301 300 299 298 297 295 293 291 292 292 291 291 291 291 291 291 291 289 289 289 290 292 294 289 289 290 293 290 290 291 290 289 288 289 290 288 287 292 290 289 289 289

ECMWFNIL_sfc_thetae_105.txt.gz
Theta_e
322 320 318 318 316 316 313 312 312 313 313 314 313 312 312 312 313 313 313 313 313 312 312 311 310 309 308 308 307 304 304 304 303 303 303 302 302 302 301 302 303 301
321 320 318 316 315 313 313 313 313 313 313 313 312 312 312 312 312 313 312 311 311 311 311 310 309 308 307 306 306 304 303 303 302 303 302 301 301 301 301 302 302 302
319 318 317 315 312 311 312 313 313 313 312 311 312 312 311 311 311 312 312 311 310 310 310 310 309 308 306 306 305 304 303 303 302 303 302 302 301 301 301 301 301 301
319 318 315 313 312 311 312 311 311 311 311 310 311 311 310 311 311 311 310 310 310 309 310 309 308 307 305 305 305 303 303 302 302 303 302 302 302 301 301 301 300 300
317 314 312 311 311 311 311 310 311 311 311 310 310 310 310 310 310 309 310 309 309 309 309 308 307 307 306 305 305 303 303 302 303 303 301 301 302 302 301 300 300 299
314 312 311 310 311 311 310 310 310 310 309 309 309 310 309 310 309 308 309 309 309 308 308 307 306 306 306 305 305 304 303 302 303 302 301 300 300 301 301 301 299 298
312 311 310 310 310 311 311 311 310 309 308 309 308 308 309 309 308 308 308 308 308 308 307 307 306 306 306 305 304 303 302 302 302 301 300 300 300 300 301 300 299 298
311 311 310 311 311 312 311 310 308 307 308 308 308 307 308 307 308 308 308 308 307 307 307 306 305 305 305 305 303 302 302 303 302 301 301 300 300 299 300 300 300 298
311 311 311 312 312 312 310 308 307 306 307 308 307 307 308 308 307 307 307 307 307 307 306 306 305 305 306 304 303 302 301 302 302 302 301 301 300 299 299 300 299 298
312 313 313 312 311 310 309 307 306 306 307 307 306 306 306 306 307 306 306 307 306 306 306 306 305 305 305 304 303 302 301 301 301 302 302 301 300 299 299 299 299 298
314 313 313 312 311 309 308 306 306 306 306 306 306 305 305 305 305 306 306 306 306 306 305 305 305 305 304 304 304 304 302 302 301 301 302 301 301 300 300 300 299 298
313 313 312 310 309 308 306 305 305 306 306 305 305 305 305 305 305 305 306 306 306 306 306 305 305 305 304 304 303 304 304 303 303 302 302 301 302 301 300 301 300 299
312 312 311 309 308 307 306 305 305 305 305 304 305 305 304 304 305 305 305 305 305 305 305 305 305 305 305 305 304 304 303 303 303 303 302 303 302 301 301 301 300 300
312 311 310 308 307 306 305 304 304 304 304 304 303 303 304 304 304 304 304 304 304 304 305 305 305 305 305 305 304 304 304 303 303 303 302 303 303 302 302 301 301 301
310 309 308 307 305 304 304 303 302 303 303 302 303 303 303 303 304 304 303 303 303 304 304 304 305 305 305 305 305 304 304 303 303 302 302 302 302 302 302 301 301 301
308 307 306 305 304 303 302 302 302 301 301 301 301 301 302 302 302 303 303 303 302 303 304 304 305 306 303 300 302 304 304 304 304 303 302 302 302 301 302 301 301 301
306 305 304 304 303 303 302 302 300 299 299 299 300 300 300 300 301 301 302 303 303 303 303 304 305 305 297 294 294 297 304 304 303 303 303 302 302 301 301 301 302 301
305 304 303 302 302 302 301 300 298 298 297 297 297 298 299 300 300 300 301 302 303 303 304 304 305 299 293 293 293 294 299 305 305 303 303 302 302 301 301 301 301 301
305 304 303 302 301 301 300 298 297 296 296 296 297 298 298 298 299 299 300 301 302 303 303 304 304 293 292 293 293 293 294 300 303 303 302 302 302 302 301 301 301 301
304 303 302 302 301 299 297 296 296 296 296 298 297 297 297 297 298 299 299 300 301 303 303 303 302 294 292 292 292 291 291 297 303 303 303 302 302 303 303 302 301 300
303 302 302 302 301 299 298 297 297 297 297 297 297 297 297 297 298 298 298 299 301 302 302 302 301 292 291 291 291 291 291 296 303 303 302 303 303 303 303 302 301 300
303 303 302 301 300 299 297 297 297 297 297 297 297 297 297 298 298 299 298 298 299 301 300 299 298 290 291 291 291 290 292 300 301 301 301 301 301 302 301 301 300 300
304 303 301 300 299 297 296 296 296 296 297 297 296 295 295 296 297 298 298 298 298 299 299 299 298 293 290 291 290 290 294 299 300 299 300 300 300 300 300 299 300 301
304 302 300 299 298 296 295 295 296 296 296 297 296 295 295 296 297 297 297 298 298 298 298 298 298 294 290 290 290 290 295 299 299 299 299 299 299 299 299 298 299 296
303 302 300 299 298 297 296 295 295 295 296 297 296 296 297 297 297 296 296 296 297 298 298 298 297 294 290 290 290 290 296 300 299 298 298 298 298 297 298 298 299 297
303 302 301 299 298 297 296 295 295 295 295 296 295 296 296 296 296 296 295 295 296 297 297 297 296 296 295 290 291 291 292 298 299 297 297 297 297 297 297 298 299 301

ECMWFNIL_sfc_thetae_108.txt.gz
Theta_e
334 333 330 328 326 327 327 324 322 323 323 323 322 322 320 320 320 319 319 318 317 316 315 315 314 313 311 311 310 308 309 309 309 309 309 308 308 309 308 308 309 307
334 331 328 327 325 325 325 324 322 322 322 322 321 321 321 320 319 319 318 317 316 315 315 314 313 311 310 309 309 308 308 308 307 308 307 307 307 308 308 308 308 307
331 328 327 325 324 323 322 322 321 320 320 320 321 320 319 320 319 319 318 317 315 315 314 313 312 311 310 309 309 308 308 308 308 308 308 307 307 307 308 307 307 307
329 328 326 324 323 323 321 320 319 319 320 320 320 319 319 319 319 318 317 316 315 314 314 313 312 310 309 309 309 307 308 307 307 308 307 307 307 307 307 307 306 306
327 325 324 322 321 321 319 318 318 318 319 320 319 318 318 318 317 316 316 315 315 313 313 312 311 310 310 309 309 307 307 307 307 308 306 306 307 307 306 306 305 304
326 324 322 321 320 317 316 316 316 318 318 319 317 317 317 317 316 315 315 314 314 313 312 311 310 310 310 309 308 308 308 307 307 306 305 305 306 306 305 305 305 304
323 322 321 319 318 317 316 316 318 319 318 318 316 316 316 315 315 314 314 314 313 312 311 310 310 310 310 309 308 307 307 307 306 305 304 305 305 305 304 304 304 303
324 322 319 316 316 317 316 316 317 318 319 317 316 315 315 314 314 314 314 313 312 311 310 310 309 309 309 309 307 306 307 307 306 305 305 305 305 304 304 304 304 303
321 318 316 316 315 316 316 316 318 318 318 316 315 314 315 314 314 314 313 313 311 311 310 309 309 309 309 308 307 306 306 307 306 306 305 305 304 304 303 304 304 304
316 315 315 315 315 316 316 317 318 317 317 316 314 314 313 314 314 313 312 312 311 310 310 309 309 309 308 307 306 306 306 305 305 306 306 305 304 304 304 304 303 303
316 315 315 316 316 316 317 318 318 317 317 314 314 313 314 313 313 312 312 311 311 310 309 309 309 308 307 306 306 307 306 306 306 306 306 305 305 305 304 304 304 303
316 315 315 316 317 317 318 317 317 317 315 314 312 312 313 312 312 311 311 310 310 310 309 309 309 309 307 307 306 307 307 307 307 306 306 305 305 305 305 305 305 304
317 316 316 317 317 317 317 316 316 316 314 312 312 312 311 311 311 311 311 310 310 310 309 309 309 308 308 308 307 307 307 306 306 306 306 306 306 305 305 305 305 304
318 318 318 317 317 317 316 315 314 314 313 312 312 311 310 310 310 310 311 311 311 310 310 310 309 308 308 308 307 308 307 307 307 306 306 306 306 306 306 305 305 305
318 318 318 318 316 315 314 313 313 313 312 311 311 310 310 309 310 310 310 310 310 310 309 310 309 309 309 308 308 307 308 307 307 306 306 306 306 305 306 305 305 305
318 317 316 315 315 314 312 312 311 311 310 310 310 310 310 309 309 310 309 309 309 309 309 310 310 310 308 303 303 307 308 308 307 307 306 306 306 305 305 306 305 306
314 313 314 313 313 311 310 309 310 309 309 308 309 308 308 308 308 307 308 308 308 308 308 309 309 310 298 297 297 296 306 308 307 307 307 306 306 306 305 305 306 305
313 312 312 312 311 310 309 309 309 309 307 306 306 306 306 306 305 305 306 307 308 308 308 309 310 301 295 295 295 295 299 309 308 307 306 307 306 306 306 306 306 305
311 311 311 310 310 309 309 308 307 306 305 305 305 305 304 300 299 303 305 307 308 307 308 309 310 294 294 293 294 294 294 300 308 307 306 307 306 305 305 305 306 305
310 310 309 308 308 308 308 307 306 303 304 305 303 301 300 299 300 303 305 307 307 308 308 309 309 295 293 293 293 292 293 295 307 306 307 306 305 304 304 305 304 304
310 310 308 308 307 307 306 306 305 304 303 303 302 300 300 301 303 305 306 307 307 308 308 308 307 293 292 292 292 292 292 294 307 305 305 304 304 305 305 306 304 303
310 309 308 308 307 307 306 305 304 303 304 305 304 303 303 303 305 306 307 307 308 308 307 307 304 291 291 291 291 291 291 302 305 303 303 304 304 305 305 305 304 303
311 310 309 308 306 305 305 305 305 305 306 306 305 304 303 303 305 306 306 306 307 307 307 305 302 293 290 291 291 290 295 302 302 301 303 304 304 305 305 304 303 302
310 309 307 306 306 305 305 306 307 307 307 306 304 303 303 303 305 304 304 305 306 306 306 305 303 296 290 291 290 291 296 300 300 302 303 303 305 304 305 303 302 301
308 308 307 306 305 305 305 304 303 304 305 305 304 304 303 303 303 303 303 304 305 306 304 304 303 297 290 291 290 291 296 302 301 302 302 303 303 303 304 303 301 299
309 307 306 304 303 302 301 302 303 303 303 303 302 302 302 302 301 302 302 302 304 305 304 305 303 300 296 290 291 290 291 302 303 302 301 302 303 301 301 302 302 302

ECMWFNIL_sfc_thetae_111.txt.gz
Theta_e
338 337 333 333 332 331 330 329 328 327 327 327 326 325 324 324 323 322 322 321 319 317 317 316 314 314 313 313 313 312 312 312 312 312 313 313 313 313 312 312 312 310
336 336 334 333 332 331 330 330 329 327 327 328 326 325 325 324 323 322 320 318 318 316 316 315 314 312 312 312 313 312 311 311 310 311 311 311 311 311 311 311 311 311
335 335 335 333 331 331 332 330 329 329 327 326 326 326 324 323 321 321 320 318 317 316 315 314 314 313 312 311 311 311 311 311 311 312 311 311 311 311 311 310 310 310
335 334 333 331 331 331 331 329 328 328 327 324 323 325 324 322 321 320 319 318 317 316 315 314 313 312 311 312 312 311 311 311 310 311 310 310 310 311 310 310 309 308
334 334 334 331 331 330 329 326 324 324 324 323 323 322 322 321 319 319 318 317 316 315 314 313 313 312 311 311 311 310 310 309 310 310 309 309 310 309 309 309 308 307
335 333 333 331 329 328 326 324 322 322 323 323 322 322 321 321 319 318 317 316 315 314 313 313 311 311 312 311 311 310 310 309 310 309 308 308 308 308 308 308 308 308
332 331 330 329 328 326 324 322 322 322 322 322 321 320 320 319 318 317 316 315 314 314 313 312 311 311 312 311 311 310 310 309 309 308 308 308 307 307 307 307 306 305
331 330 327 325 326 325 322 320 321 322 322 321 320 319 318 317 317 317 317 315 313 313 312 312 311 311 310 311 309 310 309 309 309 308 307 307 308 306 306 307 307 306
329 328 326 324 324 322 320 320 321 321 321 320 319 318 318 318 317 316 315 314 313 313 311 311 311 310 311 310 310 309 308 309 309 308 308 307 306 305 305 306 306 306
326 326 326 324 322 320 319 320 320 320 320 320 318 317 316 317 317 316 315 314 313 312 311 311 311 311 310 310 309 309 308 308 308 308 308 308 306 305 305 306 306 305
326 324 324 322 321 320 319 320 320 320 320 319 317 316 317 316 316 315 314 313 313 311 311 311 311 310 309 309 309 310 309 308 308 308 308 308 307 306 306 306 306 306
326 324 322 320 319 319 319 319 319 320 319 318 316 315 316 316 315 314 314 313 312 311 311 311 310 309 308 308 308 309 309 309 309 308 308 306 306 306 307 307 306 306
325 323 320 319 319 319 319 318 319 320 319 317 316 316 315 314 314 314 313 312 311 311 311 311 310 309 309 308 308 309 308 309 309 308 307 307 307 307 307 307 307 306
324 322 320 319 319 318 318 318 320 321 319 317 315 315 314 313 313 312 312 312 312 311 311 311 310 309 309 309 308 309 308 308 308 308 307 308 308 307 307 307 307 307
323 321 320 319 318 317 317 319 319 319 318 315 314 314 314 313 312 312 311 311 311 312 311 311 311 310 309 309 308 307 309 308 308 307 308 307 307 307 307 307 306 307
321 321 320 319 317 316 317 318 318 318 315 313 313 312 311 311 311 311 310 311 310 310 310 310 310 310 309 301 303 310 309 309 308 309 307 307 307 307 307 307 308 306
319 319 319 317 316 316 317 317 318 318 313 313 312 311 310 311 309 310 312 312 310 309 310 311 312 310 298 297 296 297 307 309 309 308 308 308 308 307 306 307 307 307
319 319 317 316 316 315 315 315 317 315 312 311 310 308 308 310 311 309 308 308 309 310 309 309 310 302 295 295 297 296 298 309 309 309 309 308 308 307 308 308 307 307
320 320 318 318 317 314 314 314 314 312 311 311 310 311 311 309 308 307 308 308 309 308 308 309 310 296 295 295 295 295 294 300 309 310 308 308 308 308 308 308 307 306
322 319 317 316 315 314 314 313 312 310 310 309 309 310 308 308 309 308 308 308 308 307 309 310 311 298 295 294 295 293 294 296 309 309 308 308 308 307 307 307 307 306
318 318 315 314 314 313 312 312 311 310 309 308 308 307 306 306 306 306 306 307 308 309 310 309 311 295 294 293 293 293 293 295 307 309 308 309 308 307 307 307 307 307
317 315 314 313 312 312 312 310 310 310 309 308 307 306 306 304 303 304 305 306 308 309 309 309 308 293 293 293 292 293 292 304 305 308 307 307 306 306 307 308 307 305
317 314 312 312 312 311 311 309 309 309 308 308 306 305 303 303 303 304 305 307 308 308 309 310 304 294 292 292 292 291 296 304 305 307 306 305 305 306 307 307 307 305
315 313 311 311 310 310 310 310 309 308 307 307 305 304 303 303 304 304 307 307 307 308 309 309 306 297 291 292 292 291 298 303 304 305 303 304 305 307 307 307 305 302
314 313 312 311 311 310 310 309 308 308 308 308 307 305 304 303 305 305 307 307 309 310 309 308 306 298 291 291 291 291 298 304 303 301 303 304 305 305 306 306 304 300
315 314 313 312 310 309 309 308 308 308 308 308 307 305 304 304 305 307 305 306 308 309 308 308 305 302 297 290 291 291 293 302 303 302 303 303 304 304 303 305 304 300

ECMWFNIL_sfc_thetae_114.txt.gz
Theta_e
337 335 333 332 331 331 330 329 329 328 328 328 326 325 324 326 324 325 323 321 319 319 318 317 316 315 314 314 314 312 312 312 313 313 313 312 311 311 310 309 309 309
336 335 334 333 332 331 331 330 329 328 328 328 327 326 327 324 324 325 321 319 318 316 316 315 315 314 313 313 313 312 311 310 309 312 310 310 310 310 310 310 309 309
336 336 334 332 331 331 330 330 330 329 328 328 327 327 327 324 323 322 321 318 316 315 316 315 315 314 312 312 312 311 310 311 310 311 311 309 310 309 309 310 309 309
337 336 334 333 332 331 331 330 329 329 329 327 326 326 326 322 322 320 319 318 315 315 315 314 313 312 311 312 312 311 310 310 310 310 310 311 311 310 309 310 309 307
336 335 334 333 332 331 330 329 328 328 326 326 327 326 323 321 320 318 318 316 316 314 314 313 312 312 312 311 311 310 310 309 311 310 308 307 308 308 309 309 308 307
335 335 334 332 332 330 328 327 328 326 324 324 325 326 322 320 318 317 317 315 315 313 313 312 311 312 311 311 311 310 310 310 309 308 307 307 307 308 309 310 309 307
334 333 332 332 331 329 328 328 326 324 323 323 322 324 321 319 318 317 315 315 313 312 311 311 310 311 311 311 310 310 310 309 308 308 306 307 307 308 308 307 305 304
333 333 331 331 330 328 327 326 323 323 323 322 321 322 319 317 317 316 315 314 312 311 311 310 310 310 310 311 310 309 308 311 309 307 305 305 307 305 307 310 307 303
332 331 330 328 327 327 326 323 323 322 322 321 320 321 319 318 316 316 315 313 312 312 310 310 309 309 311 311 310 308 307 309 310 307 307 306 305 305 304 306 305 306
331 330 329 327 325 324 323 322 322 321 321 320 319 318 317 318 317 315 314 313 312 310 310 310 309 310 310 309 308 308 307 307 307 307 307 306 305 304 304 306 305 305
328 328 327 325 323 322 321 322 321 321 320 319 318 317 317 316 316 315 313 312 312 310 309 309 309 309 309 309 309 309 308 308 307 307 308 307 306 306 307 305 306 306
327 326 325 323 322 321 321 320 320 320 320 318 317 316 316 316 314 314 312 311 310 310 310 310 309 309 308 308 308 309 308 308 308 308 308 306 306 307 306 308 307 306
325 324 324 322 321 320 320 320 319 319 318 317 316 316 315 314 314 313 313 311 310 310 310 310 309 308 308 308 308 308 307 308 308 308 307 306 306 306 306 307 307 306
325 324 322 321 320 320 320 320 319 318 318 317 316 315 315 313 312 312 312 311 311 310 310 310 310 309 307 307 307 308 308 308 308 308 306 307 308 306 307 307 307 307
323 322 321 320 319 319 319 319 318 318 318 316 316 315 315 313 313 312 311 310 310 310 310 310 310 309 309 307 307 309 310 308 308 307 307 307 306 306 307 306 307 306
322 320 320 319 319 318 318 318 318 318 316 314 315 314 313 313 312 312 311 310 309 311 310 310 310 311 308 306 308 307 307 308 308 308 307 306 306 305 306 306 306 303
321 319 319 318 318 318 318 318 318 317 314 314 313 313 313 314 311 310 314 312 310 309 309 308 309 309 298 295 297 302 308 308 307 307 307 306 306 305 305 306 306 301
320 319 318 317 317 317 317 318 317 316 312 313 312 311 312 311 310 311 310 310 309 309 308 307 308 302 295 295 294 295 301 308 308 307 308 306 307 305 305 305 306 302
320 319 318 317 317 317 317 317 316 315 312 311 310 310 310 309 310 309 308 308 308 308 308 307 308 297 295 295 294 293 294 304 307 307 307 307 307 306 306 305 305 306
320 319 317 316 317 317 317 317 315 312 312 311 310 309 308 309 308 308 308 308 307 308 308 308 308 298 295 295 294 293 293 298 307 308 308 307 307 306 310 307 306 305
320 319 316 316 316 316 315 314 313 311 311 310 309 308 307 307 306 305 305 307 309 309 307 308 308 296 294 294 293 293 293 298 306 310 306 308 308 309 307 308 307 308
319 316 315 314 314 314 313 312 311 311 310 310 309 309 308 307 307 307 306 307 308 308 307 307 306 294 294 294 294 293 294 306 307 307 307 308 308 307 307 307 307 307
319 317 316 314 314 313 312 311 310 309 309 309 308 307 307 307 307 307 307 307 307 306 307 307 301 295 294 294 293 293 297 304 306 306 307 307 307 307 306 306 307 305
319 318 317 316 315 313 312 311 310 310 309 307 306 304 304 304 303 304 305 305 305 306 308 305 301 296 293 293 293 294 299 303 304 304 306 305 305 306 305 306 307 310
321 319 319 317 314 312 312 310 309 308 307 306 305 304 302 302 302 302 302 303 305 307 310 305 301 296 293 292 293 293 299 303 302 302 303 301 302 304 305 305 303 305
319 315 314 313 312 312 311 310 308 307 306 305 304 303 302 302 301 301 302 304 307 307 310 305 301 298 295 292 293 293 296 302 303 302 300 301 302 303 302 304 302 301

ECMWFNIL_sfc_thetae_117.txt.gz
Theta_e
332 330 328 327 326 326 326 325 324 323 322 321 320 319 318 318 319 316 315 313 312 311 310 309 309 309 310 308 309 309 309 309 308 307 306 306 305 305 304 303 303 303
331 330 328 327 326 326 326 326 324 323 323 322 321 320 320 319 318 315 313 313 311 309 309 309 309 308 308 307 306 306 305 306 306 309 306 305 304 303 303 302 302 302
331 329 328 327 326 326 326 325 324 323 323 322 321 320 320 319 316 313 312 311 310 309 308 308 308 308 307 307 306 307 306 305 305 306 305 304 303 304 303 303 302 302
331 329 328 327 327 326 325 324 324 323 323 321 320 321 319 318 315 313 313 314 309 309 308 307 307 307 307 307 306 305 305 305 305 305 305 305 305 303 303 303 303 302
331 330 329 328 327 326 325 324 323 323 322 321 320 318 317 315 313 312 310 310 309 308 307 307 307 307 307 306 305 304 305 304 304 303 302 301 302 303 303 303 302 301
331 330 329 328 327 325 325 324 323 322 321 319 318 317 316 314 313 311 310 309 308 308 307 306 306 306 306 305 304 304 305 303 303 303 303 302 302 303 305 304 302 301
331 330 328 328 326 326 324 324 322 321 320 320 319 316 315 314 313 311 310 310 308 308 306 306 306 305 306 305 304 304 304 303 303 303 302 301 303 302 303 301 301 301
330 330 328 327 326 325 324 323 320 320 319 318 317 316 315 314 312 311 310 309 308 306 306 306 306 305 305 305 304 303 303 305 303 302 301 301 302 301 302 303 300 299
331 329 328 327 325 324 324 321 319 319 319 318 316 315 315 314 312 311 310 309 307 306 306 305 305 305 305 304 303 303 303 303 303 301 302 302 301 301 301 301 300 301
330 329 327 326 325 324 322 320 319 318 319 318 317 315 314 313 312 311 310 308 307 306 305 305 305 305 305 304 303 303 303 303 303 303 303 302 301 300 301 301 300 299
328 327 326 325 324 323 320 319 318 318 318 317 316 314 313 312 312 311 309 308 307 306 305 305 305 305 304 303 303 303 303 304 304 303 303 302 301 301 306 300 301 300
327 326 325 325 323 321 320 319 317 317 316 316 315 314 312 312 311 310 309 307 306 306 305 305 305 305 304 304 304 304 304 304 304 304 303 302 302 302 301 302 300 300
327 325 325 323 321 320 319 318 317 316 316 315 315 314 312 311 310 309 309 307 306 306 306 305 305 305 304 304 305 305 305 305 304 303 302 303 302 302 302 302 301 300
326 325 323 321 320 319 318 318 317 316 315 315 314 313 311 310 310 309 308 307 306 306 306 305 304 304 304 304 304 305 305 304 304 302 302 302 302 301 302 301 301 298
325 324 322 320 319 318 318 317 317 316 315 314 313 312 312 311 310 309 307 306 306 306 305 305 304 304 305 305 305 306 305 304 303 302 302 301 300 300 300 301 298 296
324 322 320 320 319 318 317 317 316 315 314 313 313 312 311 310 309 308 307 306 305 304 304 305 304 305 308 307 306 305 304 304 303 302 301 301 301 300 300 299 296 295
322 320 320 319 318 318 317 316 316 314 313 313 313 312 310 309 309 307 306 305 305 304 304 304 305 305 302 298 299 302 304 302 302 301 301 301 300 299 299 299 296 296
321 320 318 318 318 317 316 316 315 313 312 312 311 310 309 308 307 306 305 305 305 304 304 304 304 303 296 297 298 299 303 303 302 302 302 301 300 300 300 299 295 295
320 319 318 317 317 317 316 316 314 312 311 310 309 309 308 307 306 306 305 305 305 304 304 305 303 297 295 296 297 298 299 302 303 302 302 301 301 300 300 299 296 295
319 318 317 317 317 316 316 315 313 311 310 310 309 308 307 306 305 304 304 304 304 304 304 304 301 296 295 295 295 296 298 300 302 302 302 301 301 301 301 300 298 296
318 317 317 316 316 316 315 314 312 310 309 308 308 307 306 305 304 303 304 304 304 304 303 304 303 295 294 294 294 295 296 298 300 303 302 301 301 301 301 301 300 300
318 317 316 316 316 316 315 314 311 309 308 307 306 306 305 304 303 304 303 303 304 304 303 304 303 293 293 294 294 293 297 301 299 299 299 299 299 300 300 301 301 300
318 317 316 316 315 315 314 313 309 308 307 307 305 304 304 303 302 302 303 303 303 303 303 302 300 294 293 294 293 294 297 299 299 298 299 299 299 300 300 300 301 299
318 317 316 315 315 314 314 312 309 308 307 306 305 304 303 303 303 303 303 304 303 303 303 302 300 296 293 293 293 294 298 299 298 298 298 299 299 299 299 298 301 310
318 317 316 315 315 314 313 310 308 307 307 307 305 305 304 304 304 303 302 302 303 303 307 303 300 297 293 293 293 294 299 299 299 297 298 298 299 298 298 299 299 307
317 316 315 314 314 313 311 309 308 307 306 305 304 304 303 302 301 301 301 301 302 302 305 302 299 297 295 292 293 294 297 300 300 299 298 297 296 298 298 296 298 297